GFSGL_sfc_thetae_000.txt.gz
Theta_e
309 311 312 312 312 312 312 312 314 315 317 316 317 317 318 318 320 319 318 321 319 319 320 320 318 317 313 309 312 310 309 309 308 311 314 314 316 318 316 317 317 317 314
309 311 311 311 311 311 312 311 313 314 316 317 318 317 316 316 317 318 317 317 316 317 316 316 313 312 312 312 314 313 312 312 312 312 310 306 308 307 310 312 310 308 309
311 311 310 309 309 310 311 311 312 313 315 316 316 314 313 313 313 313 313 313 313 313 315 315 313 314 312 313 314 314 313 314 315 311 305 302 304 304 306 307 307 309 308
312 311 310 308 308 309 310 311 312 313 313 314 314 313 312 311 311 310 309 308 309 309 311 312 312 314 314 313 313 314 314 314 311 306 303 301 303 302 304 305 304 303 303
312 311 311 308 308 309 310 309 310 311 312 313 312 310 310 310 308 308 308 308 308 307 307 308 309 311 310 311 311 313 314 310 307 305 302 301 301 302 304 302 302 300 302
312 311 311 307 307 308 308 308 308 308 309 311 311 310 310 308 300 302 305 305 305 306 306 304 306 307 306 304 305 305 307 310 307 304 301 303 302 301 300 301 299 299 298
312 313 311 308 308 308 307 306 306 306 307 308 309 309 309 307 298 298 300 302 302 302 302 301 302 302 304 305 303 302 301 301 304 308 306 305 303 303 302 298 298 298 300
312 313 312 309 307 308 307 305 304 304 305 305 306 307 308 306 297 296 297 299 298 297 298 298 301 301 301 303 303 302 301 301 303 303 308 309 307 304 304 302 300 299 298
312 313 313 309 307 307 306 304 303 302 302 302 304 304 306 306 297 295 297 297 297 297 297 297 297 298 295 294 301 300 299 297 295 295 295 294 293 294 298 298 297 297 297
313 315 314 310 308 307 307 305 305 303 304 303 303 303 302 306 296 295 298 299 298 298 301 301 297 295 293 292 299 299 299 299 295 294 296 296 296 296 296 302 299 297 296
315 316 315 311 308 308 307 306 306 305 304 303 303 303 303 303 302 296 296 305 305 303 303 303 302 295 292 292 293 298 298 295 294 294 294 294 295 297 299 299 299 299 296
315 316 316 313 311 308 307 306 307 305 304 303 303 302 302 303 298 295 295 297 301 306 305 304 303 295 294 292 294 292 289 291 293 293 292 292 293 294 295 297 299 298 299
314 315 316 314 313 309 307 306 307 306 305 304 304 303 303 303 303 296 294 294 296 304 305 300 296 294 293 294 292 292 290 293 292 291 291 293 293 295 296 295 297 299 299
313 314 316 315 314 311 309 308 308 307 306 306 306 306 306 306 306 304 302 299 295 299 299 300 298 296 294 296 296 295 297 295 294 293 293 294 294 294 294 296 296 297 296
312 314 315 316 314 315 313 310 309 310 309 309 309 309 309 308 309 305 304 303 300 298 298 297 297 300 302 302 297 296 295 295 295 296 295 295 295 295 295 297 297 298 296
312 313 314 315 315 316 315 314 301 300 299 298 296 307 312 302 299 297 297 296 294 292 298 299 299 299 301 301 299 298 295 293 294 295 296 297 296 297 296 298 297 297 297
312 313 314 313 315 316 316 316 314 312 299 296 297 296 296 302 295 294 295 294 291 293 303 301 302 302 303 302 300 300 298 298 297 296 296 294 295 296 295 296 296 295 294
314 305 314 315 315 316 317 317 317 316 315 316 299 297 295 294 295 293 292 295 297 297 304 306 307 307 305 302 300 299 298 297 294 294 293 294 294 294 294 293 293 293 294
315 314 315 315 315 314 316 317 317 317 317 317 305 298 294 292 292 291 294 311 309 305 304 305 303 305 305 303 301 299 295 292 291 291 291 291 291 292 292 292 293 289 291
315 307 310 315 313 314 315 315 315 316 316 314 311 305 302 303 305 303 307 309 308 308 307 306 305 303 299 297 295 293 293 292 292 292 292 292 292 292 292 293 293 294 294
313 311 304 313 311 313 314 314 314 314 309 305 302 298 291 306 303 301 300 300 299 299 298 296 295 295 294 294 294 293 293 294 294 294 294 294 294 294 296 295 296 296 295
311 309 311 312 314 314 313 311 308 305 302 300 300 297 290 301 301 301 299 296 296 295 294 294 293 294 294 294 294 295 294 294 294 295 295 295 295 295 295 294 295 295 294
314 313 312 310 309 302 307 307 305 303 302 302 302 301 301 301 300 299 296 295 295 294 294 294 294 294 294 294 294 294 293 292 293 294 294 294 295 295 295 295 293 292 291
314 312 311 311 310 309 307 305 304 299 303 302 301 300 299 297 296 294 293 293 293 293 294 294 294 294 294 294 294 293 292 291 293 293 294 295 294 294 295 294 293 291 290
315 312 310 310 309 307 306 305 304 302 300 298 297 296 294 293 293 293 294 294 294 294 293 293 294 294 293 292 292 291 287 285 290 287 294 294 293 293 294 293 291 289 289
314 313 310 309 308 306 303 301 300 299 297 296 295 295 295 294 294 294 294 293 293 294 293 293 293 293 293 292 290 286 285 285 287 285 292 293 292 292 291 290 289 289 288

GFSGL_sfc_thetae_003.txt.gz
Theta_e
322 323 323 322 322 324 323 325 326 326 325 322 323 323 324 328 326 326 329 331 330 330 332 330 329 330 328 324 321 318 317 316 311 315 317 324 326 326 326 327 325 326 318
321 322 322 322 322 323 323 324 326 327 327 326 326 326 324 325 325 323 326 329 330 329 328 329 328 327 328 326 322 321 318 320 314 315 319 319 321 322 324 323 319 318 316
320 321 321 321 322 322 322 323 325 326 325 325 325 325 324 324 324 324 325 325 329 329 329 329 327 328 325 323 323 319 320 319 321 317 315 316 316 317 318 316 315 315 311
319 321 320 321 321 322 322 323 325 325 324 324 323 322 321 322 323 322 322 321 321 324 326 326 326 327 326 325 323 323 322 321 321 317 315 314 315 314 318 313 310 312 310
319 321 321 320 320 321 321 322 323 325 324 323 322 322 322 321 319 322 323 323 321 320 321 319 320 317 314 317 323 324 324 320 318 317 316 315 313 312 314 315 313 310 310
320 320 321 317 318 320 320 321 322 323 323 323 323 322 322 316 301 305 319 323 323 322 320 319 318 314 309 306 309 311 321 324 322 318 317 316 318 316 315 313 313 308 307
320 320 320 317 317 319 318 319 320 322 323 322 322 322 322 319 299 300 306 323 323 322 321 319 314 312 315 316 304 303 303 303 309 324 322 320 320 318 317 314 313 312 312
320 319 319 316 317 318 318 319 320 320 322 322 321 322 322 318 298 297 302 318 318 316 317 317 318 316 313 315 317 317 316 316 317 316 322 324 322 322 318 318 316 314 312
319 319 319 316 317 318 317 318 318 318 318 319 320 320 321 319 297 295 305 314 312 310 309 309 311 310 297 296 314 314 313 312 297 296 296 294 295 297 307 311 309 307 306
319 320 320 317 317 318 320 318 317 318 318 316 316 318 312 319 296 294 304 310 310 306 307 307 296 304 294 294 311 311 309 311 308 305 307 303 298 303 297 312 311 305 304
320 321 321 319 318 320 321 319 318 316 316 315 315 316 316 316 315 295 294 312 309 307 306 307 307 293 293 292 296 309 308 308 303 306 305 305 305 307 306 307 310 307 303
321 320 322 321 317 318 320 319 318 318 317 316 316 315 315 317 303 297 294 296 305 315 314 313 312 294 292 292 294 297 293 294 307 305 304 304 303 303 305 307 309 309 308
321 321 322 322 319 318 319 319 317 318 315 315 313 312 312 313 315 297 295 294 295 310 317 309 300 294 293 294 292 294 290 303 308 307 306 306 306 305 306 305 307 308 309
321 322 323 322 320 319 317 318 317 316 315 314 313 313 314 314 313 313 310 306 297 302 300 309 304 302 299 301 303 302 307 310 308 308 307 307 305 304 303 304 302 302 301
323 323 322 322 321 320 318 317 316 321 316 316 316 316 317 317 317 311 310 313 314 308 309 312 311 310 310 311 312 311 309 308 306 306 304 305 304 305 305 305 302 300 300
322 322 321 321 321 321 319 318 302 301 299 298 298 311 318 304 298 297 296 297 296 293 307 312 313 311 309 314 315 316 315 307 308 306 305 305 303 301 300 303 302 301 300
321 322 322 319 321 320 320 318 317 311 297 295 295 296 296 294 295 296 295 292 290 294 312 308 307 309 311 313 313 314 312 310 307 302 302 299 299 301 299 300 299 300 299
322 307 322 322 322 322 322 321 320 320 320 320 296 298 295 294 297 293 291 296 303 304 313 313 314 316 315 313 311 308 306 303 300 299 300 301 301 300 299 299 299 299 298
321 320 322 322 323 321 324 322 321 321 321 323 316 304 297 291 291 291 294 317 318 316 315 312 310 311 309 304 303 303 299 298 299 299 300 301 301 301 300 300 300 291 292
321 310 313 322 322 322 322 322 322 323 323 322 323 317 311 310 313 313 315 316 310 309 310 304 303 302 299 299 296 298 300 299 300 301 302 301 302 302 301 301 300 298 298
320 320 308 320 322 322 322 321 322 322 322 322 317 310 295 316 313 310 308 305 302 301 299 299 300 298 296 296 298 298 298 298 300 300 299 299 300 300 301 299 299 301 300
321 320 318 319 320 321 320 321 322 320 317 313 308 302 290 307 305 305 303 301 301 302 298 298 297 297 296 297 298 297 297 296 296 297 298 300 300 299 299 300 300 298 298
318 320 319 320 320 309 319 319 317 315 312 309 307 308 309 307 306 303 303 300 297 297 300 298 297 296 297 298 297 297 296 296 297 298 298 298 298 298 299 298 295 294 293
319 319 319 318 317 317 315 313 312 305 310 309 309 307 305 304 301 299 294 295 296 296 298 300 299 297 297 297 297 297 297 298 299 298 298 298 298 297 298 297 297 294 293
320 320 318 316 315 313 312 311 311 310 309 305 303 299 298 294 294 296 296 298 298 297 296 296 296 295 295 297 297 297 288 285 293 287 299 298 297 297 296 296 295 294 293
317 317 315 314 313 312 311 307 307 303 300 299 296 296 295 297 297 297 298 298 296 296 296 297 297 298 298 297 295 287 285 285 291 285 297 298 297 297 296 296 295 294 290

GFSGL_sfc_thetae_006.txt.gz
Theta_e
324 325 326 325 327 329 329 331 331 329 331 329 325 326 328 333 334 337 335 330 329 329 330 328 325 326 323 323 321 322 326 324 320 320 323 327 326 324 322 327 325 322 320
323 324 325 325 327 328 329 330 333 332 331 331 330 326 326 326 330 331 334 332 332 330 331 330 326 330 330 331 328 330 328 327 323 318 323 324 326 330 328 330 326 326 325
320 322 324 325 326 327 328 329 329 329 331 332 329 328 327 325 327 329 330 331 332 333 333 333 331 334 332 332 331 326 324 322 323 319 319 322 325 327 327 327 326 326 323
320 320 322 325 325 327 328 329 328 327 327 329 330 329 330 329 327 331 335 335 334 334 334 334 334 334 333 334 331 327 323 322 323 320 320 321 321 324 325 321 319 320 318
320 320 321 325 325 326 326 328 329 327 326 325 325 326 327 327 325 328 329 330 330 330 331 331 332 323 316 321 323 326 328 323 322 320 319 319 319 319 321 322 320 321 321
321 320 320 320 323 324 326 328 328 327 326 326 325 325 325 321 303 310 323 327 327 327 326 324 321 317 312 308 310 310 323 328 326 321 320 320 323 322 323 322 321 319 315
321 321 320 319 320 323 323 325 327 329 330 327 326 326 326 322 301 304 313 331 329 329 329 328 323 319 321 322 306 306 307 307 311 329 327 325 326 328 327 324 324 321 319
321 321 321 317 318 322 323 325 328 330 330 329 328 327 327 318 299 301 309 329 329 329 329 329 327 326 322 323 323 323 323 323 323 323 330 331 331 331 330 327 326 326 324
319 320 321 318 318 320 321 325 327 328 329 328 327 327 326 323 298 298 308 324 324 323 321 321 322 320 300 300 318 320 321 321 297 298 299 296 295 296 306 323 318 317 315
320 320 321 319 319 319 322 325 327 327 326 323 324 326 316 324 297 296 306 316 319 315 316 315 299 308 295 297 319 319 317 319 318 314 315 306 300 308 297 315 316 312 313
321 321 322 322 320 323 325 325 325 324 322 323 321 324 323 321 317 295 296 315 314 311 310 311 308 294 294 294 295 319 316 316 310 313 314 314 314 314 313 312 314 312 309
322 320 322 324 319 321 325 325 324 323 322 321 320 320 320 323 307 296 294 295 306 316 316 317 315 292 292 293 295 297 295 297 312 314 313 313 313 313 313 313 315 314 313
322 321 323 324 321 322 324 323 321 323 318 317 316 316 317 319 321 299 295 294 295 317 323 310 298 294 292 293 292 293 291 310 312 313 314 315 315 315 315 313 315 314 313
323 322 324 324 322 321 322 322 319 319 318 317 316 316 317 318 318 319 314 310 298 306 308 315 309 304 302 304 307 304 310 314 315 317 316 316 315 314 314 314 313 311 306
324 324 324 323 323 321 321 321 319 325 318 318 318 318 318 318 318 312 313 318 318 312 315 319 316 315 315 317 318 319 320 320 318 318 316 316 317 315 314 313 308 307 307
327 324 323 322 322 321 319 318 303 302 302 300 300 310 319 303 299 299 301 300 298 296 312 318 320 320 319 322 325 326 325 314 320 315 314 311 309 306 305 306 307 306 305
328 327 324 319 322 319 319 317 316 310 298 296 296 297 297 304 296 297 296 293 292 296 317 322 321 321 322 324 324 322 317 312 311 309 307 306 304 305 305 305 306 305 305
330 311 324 324 322 321 320 319 318 316 315 316 298 299 294 295 294 293 292 296 307 307 320 320 321 323 321 317 314 309 308 307 303 302 303 303 304 304 304 304 304 304 303
327 324 326 323 323 320 322 321 320 319 318 317 318 305 297 292 292 291 292 319 323 321 320 320 320 317 310 308 304 305 303 301 303 303 303 304 304 303 302 302 302 293 296
326 312 315 323 322 322 322 322 321 321 320 321 325 324 314 311 317 318 322 325 323 319 317 312 306 304 306 303 300 301 299 298 299 303 302 302 301 302 301 301 301 301 300
325 325 311 323 322 322 322 322 322 322 321 322 323 321 302 325 322 323 320 320 316 312 308 304 305 306 306 300 303 305 305 302 301 300 300 300 301 300 301 301 301 300 300
324 324 323 321 322 322 322 323 323 323 323 324 322 315 293 323 320 314 312 307 305 309 309 308 304 303 302 302 303 302 300 300 299 300 301 301 301 301 301 300 300 299 298
323 323 324 323 323 314 322 323 323 323 325 322 319 316 317 314 312 310 310 310 307 304 304 303 302 301 301 301 300 300 298 300 301 301 300 300 300 300 300 300 299 298 297
324 324 323 322 321 322 322 323 324 314 321 317 317 316 314 313 312 310 309 307 303 301 300 300 300 300 300 300 300 300 302 303 302 301 301 300 299 298 299 298 298 297 295
323 323 323 323 322 322 322 323 322 319 317 316 315 314 312 310 308 304 303 300 299 300 300 300 299 300 300 300 300 299 288 286 295 287 301 300 299 300 299 298 298 297 297
321 323 323 323 321 320 318 317 317 316 315 312 311 306 303 301 299 299 300 301 298 298 299 299 299 299 299 298 297 287 285 285 292 285 297 300 299 298 298 296 296 296 295

GFSGL_sfc_thetae_009.txt.gz
Theta_e
326 327 327 328 330 332 332 333 331 335 331 333 333 334 333 333 336 337 335 333 330 330 327 325 323 322 321 320 320 322 323 324 320 325 328 332 334 330 325 329 323 320 318
324 325 325 327 329 331 332 333 334 333 331 328 332 333 332 333 333 334 333 331 329 328 327 325 322 324 322 321 319 321 326 328 324 323 328 327 327 332 327 333 326 322 323
322 324 325 326 328 329 330 331 334 334 333 330 330 328 330 333 333 334 330 332 332 331 328 325 325 324 323 324 324 326 331 330 327 323 322 325 326 328 328 332 333 334 327
320 322 325 325 326 329 330 329 330 331 332 333 332 330 328 330 333 334 334 334 332 330 331 332 332 328 330 334 332 329 331 329 330 324 322 323 324 329 328 324 323 325 323
320 320 324 325 326 328 329 329 327 327 327 328 330 331 330 331 332 335 335 336 335 334 335 333 335 330 323 326 332 333 333 327 322 321 320 320 320 322 323 325 323 325 327
320 319 322 323 323 325 328 329 328 326 325 326 326 327 327 323 305 313 328 332 333 331 326 327 326 321 314 309 311 313 326 335 332 320 320 321 329 327 325 324 324 321 318
321 320 319 322 322 323 325 325 326 328 330 328 327 327 326 325 304 308 315 331 332 332 332 330 324 320 322 325 311 309 310 310 315 332 329 329 332 332 333 332 329 327 323
320 320 318 319 322 323 323 325 329 330 330 329 327 327 327 316 303 307 314 334 334 332 331 329 329 328 324 324 324 324 324 325 326 326 333 334 334 335 338 334 335 333 330
320 320 319 317 320 322 323 327 330 331 332 329 328 327 326 322 300 301 310 331 328 328 326 327 328 327 304 304 323 323 324 324 301 302 301 298 297 297 304 324 322 320 319
320 321 321 318 319 321 325 329 330 330 329 326 326 327 319 326 299 298 307 320 324 320 322 319 302 314 299 299 324 323 321 323 321 316 318 314 304 312 299 313 317 313 314
321 322 322 321 321 325 331 331 330 328 327 326 324 327 326 325 316 298 298 319 317 314 312 312 311 297 296 295 295 323 317 314 316 319 318 318 321 322 318 318 318 312 309
322 321 322 323 321 322 329 328 327 329 328 325 325 323 322 324 312 297 296 296 303 318 317 316 312 294 294 294 297 296 297 301 313 314 316 317 318 318 320 320 323 320 318
322 321 323 323 321 324 326 326 322 327 321 320 318 317 317 320 322 300 296 295 297 319 321 303 294 292 292 293 292 294 293 312 314 315 317 320 321 321 322 322 325 321 315
323 325 326 324 321 325 324 324 321 320 318 317 316 316 317 319 320 319 315 311 298 308 309 314 311 307 304 306 308 303 311 314 315 318 319 320 321 320 319 315 314 312 310
328 326 327 324 324 324 324 322 320 325 319 318 320 318 320 319 319 314 312 316 318 313 317 320 319 318 317 317 317 319 321 321 321 322 319 316 314 311 308 309 309 309 307
329 325 323 322 323 320 321 321 304 304 302 299 298 309 319 306 299 300 300 300 300 299 313 321 321 321 321 322 322 324 321 315 316 316 312 310 308 308 305 304 305 305 303
329 329 324 320 322 320 319 318 318 310 298 298 296 298 301 301 297 297 296 294 294 299 317 320 322 324 323 325 325 322 313 311 311 309 305 304 303 303 302 303 303 303 302
332 310 326 325 323 321 321 319 318 317 316 318 300 305 297 296 295 294 293 299 310 306 320 322 323 323 324 322 317 312 309 307 307 304 303 303 304 303 302 302 302 301 301
332 328 327 326 324 321 322 321 318 318 318 317 319 303 298 292 292 292 293 317 319 321 322 323 325 322 318 313 311 309 306 307 305 305 305 306 305 303 302 302 301 293 295
332 317 318 327 325 324 323 320 321 321 321 319 319 317 313 306 311 312 312 317 322 325 324 322 319 315 312 310 309 309 307 304 305 304 303 302 302 303 302 301 301 300 299
329 329 312 325 324 324 324 323 323 321 320 319 322 318 303 317 318 318 319 325 326 323 318 313 311 309 310 310 307 304 303 302 302 301 301 302 303 301 302 302 300 300 299
329 329 328 326 326 325 324 324 324 320 322 320 322 313 295 323 325 326 325 323 321 315 313 312 311 309 306 305 303 302 300 300 300 301 302 302 302 301 301 301 300 299 298
328 327 327 327 327 317 322 323 322 323 322 323 322 320 320 326 324 320 315 314 312 312 311 309 306 304 304 302 302 301 300 300 301 302 301 301 301 300 300 301 298 298 297
327 327 326 326 325 324 324 323 321 310 320 326 324 323 324 321 316 312 312 312 311 308 306 304 302 301 301 301 301 301 302 301 302 302 301 300 299 298 300 299 298 298 298
327 328 328 327 325 325 324 325 324 323 324 324 322 321 317 315 314 313 311 307 304 301 300 300 300 301 300 301 299 298 289 286 294 287 300 300 300 300 299 298 297 297 297
325 326 326 326 326 325 326 326 325 325 321 321 319 317 315 313 311 306 304 302 300 298 298 300 300 300 300 299 296 287 285 286 291 285 297 301 298 298 296 295 295 294 294

GFSGL_sfc_thetae_012.txt.gz
Theta_e
331 332 334 334 334 333 333 332 331 330 331 331 329 330 332 333 333 333 330 330 330 328 326 323 322 324 323 322 324 323 323 322 319 323 326 330 328 327 328 328 324 321 318
328 329 331 334 334 334 332 334 332 327 331 331 332 331 332 331 333 330 329 330 327 326 325 323 322 323 321 321 323 321 322 322 322 320 322 326 325 323 322 323 319 316 315
324 326 330 333 332 333 330 334 334 329 330 331 331 331 331 331 330 331 330 329 328 326 324 322 321 321 321 321 321 320 320 325 324 322 321 321 321 318 318 323 323 321 319
322 325 328 331 332 333 332 334 332 334 329 329 331 330 331 332 332 331 331 330 329 326 326 324 323 323 323 323 322 322 326 324 323 321 321 318 319 322 318 320 321 322 320
321 323 327 331 333 333 331 331 332 332 331 329 329 332 332 333 333 331 331 329 327 326 326 326 325 324 323 324 327 325 327 322 321 319 317 318 319 319 319 321 318 319 319
322 321 325 325 327 332 333 331 329 328 329 328 327 327 326 320 307 316 329 331 330 329 328 326 323 318 316 314 316 314 320 320 319 318 318 316 316 319 319 319 319 316 314
321 320 323 323 323 328 329 330 330 331 332 327 326 325 324 318 305 308 317 329 326 325 325 324 324 324 321 319 309 310 310 309 315 328 321 320 321 323 322 321 319 318 319
320 319 320 321 321 324 327 329 331 332 332 329 326 325 323 312 305 306 317 330 330 328 328 325 320 324 319 323 323 322 322 322 322 325 326 324 319 317 323 325 324 323 323
319 320 318 320 322 322 325 329 332 333 332 331 328 326 322 318 304 304 319 329 329 327 324 323 328 322 304 304 323 321 321 316 303 302 300 299 298 298 302 317 316 315 313
319 321 319 318 323 324 328 330 332 334 332 328 328 328 319 322 300 300 307 326 325 323 321 312 305 314 300 301 320 321 318 319 311 307 309 304 301 306 300 309 310 307 305
321 322 321 321 324 327 331 331 332 332 330 331 327 330 327 323 313 300 299 318 321 317 316 314 307 298 297 297 303 317 309 309 313 315 314 316 318 318 313 312 312 309 306
322 321 322 324 320 325 329 329 330 330 331 328 328 326 327 326 312 298 296 299 300 318 312 313 305 295 295 295 300 296 297 304 312 312 313 315 317 316 314 317 317 315 313
323 323 324 323 322 325 327 327 326 328 325 322 322 320 321 323 316 301 296 297 300 316 313 307 295 294 295 295 294 296 297 310 312 313 315 318 318 317 310 313 313 313 314
324 325 325 322 321 324 325 326 323 322 321 320 318 317 318 319 320 313 310 306 299 310 303 301 299 301 302 305 301 297 307 311 313 315 316 315 311 310 307 308 306 306 304
326 325 325 323 321 324 324 324 322 323 319 320 318 318 318 317 318 311 310 313 317 314 318 315 315 314 313 313 314 315 315 315 316 317 315 311 308 307 304 305 303 302 300
326 324 323 322 320 323 322 323 302 306 301 299 300 312 320 311 300 300 300 301 301 300 312 317 317 317 317 317 317 318 316 313 314 310 306 305 303 302 301 302 302 301 299
326 325 322 320 321 320 321 321 317 309 298 296 300 300 305 305 299 298 299 298 296 298 313 316 319 321 321 322 317 313 308 309 307 306 305 303 303 302 300 300 301 300 298
328 311 324 321 323 320 320 320 321 317 315 313 299 305 296 294 295 295 295 299 307 306 315 316 319 322 322 317 312 307 307 306 305 304 303 303 302 301 300 299 299 298 297
327 326 325 324 323 320 320 320 319 319 317 317 312 303 294 292 293 293 295 314 313 312 313 316 324 321 314 311 309 308 306 305 304 303 303 303 301 300 299 299 298 292 293
329 315 317 325 323 323 321 320 318 317 318 317 317 313 308 305 310 310 310 315 316 318 319 322 318 313 312 308 305 306 304 303 303 303 301 301 301 300 299 299 298 296 295
330 326 312 324 325 322 322 320 320 318 317 317 317 315 300 311 311 311 311 313 315 317 323 318 313 311 309 309 307 304 304 302 299 300 301 301 301 299 300 299 298 297 295
330 329 325 324 324 323 321 322 321 320 319 318 318 309 295 312 313 313 314 314 320 319 315 312 309 310 308 304 303 302 300 299 299 300 301 301 300 298 298 298 296 295 295
328 329 327 325 325 315 322 323 321 322 320 320 317 308 307 311 314 316 320 318 314 312 311 311 307 305 304 303 302 300 298 298 299 300 299 299 299 297 297 295 296 294 294
329 328 328 327 325 324 324 323 322 311 322 319 316 312 312 318 319 312 310 311 310 309 307 305 303 301 300 300 300 299 298 298 301 300 301 298 297 295 297 296 294 294 292
327 329 330 329 325 323 323 323 322 320 321 320 319 317 321 314 312 311 310 309 307 303 301 300 300 299 299 298 296 293 288 287 293 290 299 300 298 298 296 293 292 293 291
325 327 328 327 328 324 323 323 322 323 322 322 321 322 315 311 311 310 306 301 300 299 299 299 299 299 297 296 293 287 286 286 287 286 295 298 296 293 291 291 292 289 289

GFSGL_sfc_thetae_015.txt.gz
Theta_e
319 319 321 322 325 326 324 326 323 326 326 328 328 326 327 328 328 327 326 324 323 323 323 323 323 324 324 324 325 325 323 323 319 321 326 327 327 328 328 328 326 322 321
319 318 320 323 324 325 325 325 326 324 326 327 328 328 328 326 325 325 325 325 323 320 320 323 322 323 323 324 325 323 322 322 322 319 323 324 323 324 325 320 321 323 318
319 316 320 322 322 323 324 323 326 324 324 326 327 327 328 328 327 327 327 325 323 323 322 322 322 322 322 323 323 322 322 325 322 320 318 320 318 316 317 318 313 311 314
318 315 319 320 320 321 323 325 326 326 325 325 326 328 328 329 329 328 327 325 324 323 323 323 322 323 322 322 323 320 320 320 322 319 316 314 314 313 311 311 315 317 317
317 315 317 319 322 322 322 324 325 327 325 326 325 327 328 329 330 328 328 326 324 323 323 324 324 323 322 322 322 319 320 319 318 315 313 312 311 312 309 311 314 314 315
317 316 318 318 321 322 319 319 322 323 322 322 321 319 320 324 309 315 324 325 325 324 323 323 322 321 319 317 316 316 320 317 313 313 312 312 312 314 314 315 314 311 310
317 318 318 318 321 321 320 319 319 320 318 318 318 317 312 311 308 311 316 328 326 324 323 322 324 325 320 321 309 308 310 311 314 314 313 313 311 315 315 312 311 312 312
315 317 317 317 319 320 319 319 319 319 317 317 317 315 311 307 303 307 312 322 320 321 321 321 321 318 317 315 315 316 316 315 316 323 318 315 315 316 318 318 316 315 315
313 314 317 316 316 317 319 317 319 319 318 316 315 314 311 307 304 308 319 320 319 319 318 316 318 314 305 308 316 314 313 308 302 302 302 299 298 302 308 313 311 308 304
313 314 316 316 316 315 319 319 320 320 320 319 316 313 311 308 300 302 315 320 314 312 308 311 309 308 300 307 314 314 311 309 305 304 303 299 298 299 301 305 307 301 300
314 314 313 316 316 316 320 321 321 321 319 317 318 314 313 309 305 299 302 316 314 311 308 305 305 297 300 302 308 313 310 307 306 309 309 309 310 309 304 307 305 303 301
314 315 313 314 319 323 321 321 321 320 318 317 316 315 316 312 305 297 297 301 301 310 308 305 298 294 295 296 297 295 298 303 305 305 307 309 307 308 309 309 308 308 308
314 313 314 315 316 322 321 320 318 318 318 314 316 313 315 315 308 297 295 300 301 310 306 303 295 294 294 294 294 297 299 303 304 307 308 305 302 302 303 303 303 304 305
314 314 315 313 315 321 322 321 319 316 315 313 313 311 311 313 308 299 298 301 300 298 298 296 295 294 295 295 293 293 298 303 306 309 304 303 302 301 300 300 299 299 300
315 316 314 313 317 318 320 320 318 317 315 314 311 311 309 312 312 302 301 303 305 303 302 300 299 296 299 302 304 301 303 306 310 307 303 301 299 299 299 298 298 296 295
317 317 315 313 316 317 317 315 300 302 303 303 303 309 312 308 301 298 298 299 300 300 308 306 305 305 304 305 306 308 309 308 303 302 300 300 298 297 297 297 296 294 293
318 318 316 313 316 316 316 316 312 301 297 296 298 299 304 304 299 297 297 297 297 298 305 308 308 309 310 311 310 305 303 301 301 301 299 298 298 296 296 296 295 295 294
318 307 318 317 314 316 316 316 315 310 305 304 298 297 297 297 297 296 295 296 299 300 304 306 308 312 314 310 305 302 302 301 301 300 300 298 296 296 295 294 294 293 293
321 318 318 318 317 313 316 316 314 313 310 309 303 297 291 292 292 293 295 307 305 305 306 307 309 312 309 305 303 302 301 301 301 300 300 298 296 297 295 295 293 289 289
321 311 313 317 316 316 315 315 314 312 312 311 307 305 297 298 299 300 303 306 307 307 307 308 308 306 304 304 302 302 300 298 300 298 296 297 297 296 294 293 292 292 291
323 318 308 318 316 317 316 314 314 313 311 312 311 306 295 306 304 305 306 308 309 308 310 310 307 304 303 303 301 300 299 299 298 298 299 297 296 294 294 295 293 292 292
324 322 317 319 318 317 316 316 313 313 312 311 312 307 293 308 308 308 308 309 309 313 311 308 305 305 304 302 301 300 297 298 298 298 297 296 296 295 296 294 293 292 292
324 323 320 319 319 309 310 316 315 315 313 312 312 308 303 309 309 309 309 310 311 308 307 307 305 303 303 302 301 300 299 298 299 299 298 297 296 294 295 291 292 290 290
321 321 321 320 319 317 317 316 315 306 313 313 311 308 306 309 309 310 312 311 308 308 307 305 302 301 299 299 299 299 300 299 299 298 297 296 295 292 294 291 290 291 286
318 320 320 320 319 318 318 316 318 317 315 313 309 307 308 309 309 310 309 309 307 304 302 300 299 298 297 296 295 295 289 289 294 292 297 296 294 292 290 288 288 285 283
318 319 320 320 320 318 317 316 317 316 315 314 311 312 311 308 308 307 307 303 300 299 299 298 297 296 295 295 293 288 287 287 288 288 295 294 290 288 287 286 286 284 283

GFSGL_sfc_thetae_018.txt.gz
Theta_e
319 318 320 321 323 323 323 321 324 323 324 324 324 324 324 323 324 323 325 323 323 323 324 323 322 322 323 324 325 325 323 323 319 322 326 328 328 328 327 325 324 321 320
316 317 319 321 323 322 322 321 321 322 325 325 325 325 325 325 324 323 323 322 322 321 322 322 323 323 323 324 324 323 323 324 322 320 324 325 325 326 325 322 324 324 320
316 316 319 320 322 321 320 322 322 323 326 325 326 325 324 323 323 323 323 322 321 321 322 321 323 324 323 324 323 322 324 325 323 322 320 322 319 318 319 318 315 314 317
314 317 318 317 319 320 321 324 322 324 325 325 326 327 327 326 326 325 324 322 320 321 322 322 323 324 323 323 322 321 322 322 321 319 318 315 314 312 314 314 312 311 310
314 316 316 317 318 320 322 323 323 323 324 325 327 328 328 328 327 326 325 323 321 322 323 324 324 323 321 321 323 320 320 319 318 316 312 311 311 308 310 309 309 311 314
313 314 318 318 320 318 319 322 322 321 321 322 322 325 326 327 310 313 322 324 323 322 322 323 323 320 317 314 316 315 318 317 314 313 311 310 308 309 310 308 309 309 309
314 316 317 317 321 317 317 318 317 316 316 315 317 318 319 319 307 309 313 325 324 323 323 322 324 325 321 321 311 311 309 309 313 314 312 311 310 312 312 310 310 310 309
314 316 316 316 319 317 317 317 315 314 314 314 313 312 314 314 304 306 311 325 324 323 323 322 324 322 320 318 315 312 315 316 315 317 314 313 314 314 315 314 312 311 312
315 315 315 317 317 317 315 315 315 314 312 313 312 312 311 309 302 304 315 320 320 320 321 321 320 319 308 304 314 311 308 306 303 303 307 305 303 304 309 314 310 308 304
314 315 315 316 315 316 315 316 315 314 313 313 312 311 307 305 300 304 313 317 313 311 313 315 308 313 300 301 313 310 308 306 303 302 300 298 298 299 302 304 306 300 298
314 316 314 314 313 316 315 316 316 316 314 312 311 310 309 306 301 301 306 313 311 309 311 311 306 297 300 300 305 311 308 305 303 306 306 307 308 304 305 303 302 302 300
314 314 313 313 315 318 317 316 317 315 314 312 310 308 309 307 301 298 302 305 305 309 308 308 302 295 296 297 303 296 297 301 304 306 306 305 306 306 305 306 306 305 306
312 311 311 314 314 319 318 316 316 315 314 313 312 310 311 309 302 296 296 297 301 307 307 301 295 293 293 294 294 296 298 302 306 306 303 300 300 301 301 301 302 304 303
311 310 310 314 315 319 320 319 318 316 314 313 313 311 312 311 305 297 300 301 300 303 300 295 294 294 294 294 293 296 301 303 308 303 299 299 299 298 298 298 297 296 295
311 311 310 313 316 318 319 319 319 319 317 314 313 313 311 310 309 299 298 302 300 299 295 292 291 292 294 293 296 294 299 306 305 302 299 298 297 299 296 296 295 293 292
312 312 311 311 315 318 317 313 298 306 302 303 302 309 311 307 300 296 295 296 296 294 297 295 294 293 295 299 302 301 303 304 301 301 298 297 297 296 296 295 293 292 291
315 313 311 311 314 315 316 315 311 303 297 299 300 300 301 304 297 296 294 294 295 298 302 301 300 300 300 301 303 305 303 302 300 300 298 296 297 295 296 293 293 293 291
316 306 312 312 314 315 315 316 316 312 310 306 297 297 295 296 296 295 293 295 298 300 304 306 306 305 306 306 305 302 301 299 299 298 296 295 296 297 296 295 292 291 290
316 315 314 313 315 313 315 315 315 313 312 306 301 296 291 291 292 292 293 304 303 306 305 304 306 308 310 307 303 303 302 300 299 297 299 300 298 297 295 294 291 288 288
318 308 311 314 312 314 314 314 314 313 311 310 307 306 295 296 297 297 298 303 302 305 306 307 307 308 306 304 302 301 299 298 298 301 300 299 298 297 295 293 292 291 290
319 313 305 316 314 313 315 314 314 313 312 310 309 306 294 302 302 301 302 303 304 303 304 306 309 307 304 302 302 301 300 299 300 300 300 298 298 295 294 293 292 291 290
320 317 315 315 316 314 313 314 314 313 312 311 310 306 291 304 306 304 305 306 307 307 306 309 307 306 305 303 303 301 299 298 298 300 299 298 297 296 294 293 292 290 290
321 319 316 317 316 307 310 314 313 313 312 311 311 309 299 303 307 306 306 307 306 308 309 308 307 305 305 304 304 302 300 298 300 301 298 297 297 296 294 290 291 289 288
321 320 317 318 317 313 313 313 314 304 312 311 310 310 306 305 307 307 307 307 310 309 307 307 307 306 303 301 301 300 301 301 301 300 299 297 295 293 293 291 289 289 285
320 320 318 317 316 315 314 313 313 313 311 311 310 309 308 309 310 309 309 309 309 306 305 305 304 302 300 299 299 296 290 289 297 293 299 296 294 293 291 289 288 285 283
315 318 319 317 317 316 316 314 314 314 313 313 311 307 307 309 309 309 309 308 305 303 301 300 299 298 297 298 296 292 290 290 292 290 296 294 291 290 289 287 286 284 283

GFSGL_sfc_thetae_024.txt.gz
Theta_e
318 318 320 322 322 321 321 322 322 323 323 323 322 323 322 322 324 324 324 325 324 323 323 323 323 324 324 324 326 326 324 324 319 323 325 327 326 326 326 326 326 324 323
318 318 320 322 322 319 321 322 323 322 324 323 323 323 322 321 324 323 322 322 322 322 323 324 323 324 323 325 325 326 324 326 323 320 324 324 325 325 324 324 325 326 325
316 318 320 321 320 319 321 322 323 323 324 324 324 323 322 322 323 323 323 322 323 324 324 324 324 325 324 325 325 324 325 325 324 323 321 325 325 325 322 321 321 321 322
316 318 318 319 320 320 321 322 323 324 323 323 324 324 322 323 323 323 323 323 323 323 324 325 325 324 323 324 324 324 324 323 324 322 321 321 320 321 321 317 316 320 320
316 317 316 318 320 322 322 322 323 324 325 324 325 325 324 323 323 322 322 322 322 322 324 324 326 324 320 322 324 323 323 322 321 320 317 317 315 319 321 319 318 317 317
316 316 316 318 320 321 321 321 322 323 325 326 325 325 324 324 306 310 319 322 322 322 322 322 321 318 315 312 313 313 318 320 318 317 315 316 315 318 316 318 315 314 313
316 316 317 319 319 320 321 319 318 318 321 323 323 324 322 318 304 305 311 323 322 322 322 323 323 320 320 320 311 311 312 312 315 320 319 319 316 316 317 313 313 314 316
314 316 317 319 316 319 318 316 315 315 318 320 321 322 321 314 302 303 309 324 324 323 324 324 322 322 320 321 320 318 317 318 320 321 324 320 321 317 318 317 317 315 311
313 316 316 318 316 317 316 314 314 315 315 316 319 320 320 312 301 303 316 323 322 322 323 323 324 321 304 306 318 316 314 312 303 301 302 303 301 303 311 318 316 316 310
313 315 316 318 316 316 315 313 314 315 315 316 317 319 312 316 299 302 316 323 321 322 322 319 310 318 299 303 317 316 315 312 309 309 309 306 306 304 305 320 318 313 305
315 315 315 317 317 317 315 314 313 314 314 314 313 314 317 316 310 300 306 321 321 320 320 319 319 301 299 299 304 314 313 309 305 308 307 307 307 308 308 308 310 310 307
315 314 314 316 318 317 316 314 313 313 312 311 311 310 309 312 304 300 303 307 310 320 320 319 315 298 298 297 304 300 296 303 309 308 308 307 307 306 304 304 305 304 304
314 313 312 315 316 316 315 314 312 312 311 311 312 311 310 308 308 299 299 299 304 318 319 311 297 295 296 298 298 295 299 310 310 309 308 307 308 304 303 302 302 302 301
313 312 311 313 313 315 317 316 314 311 311 311 311 312 311 309 307 306 308 307 301 306 301 301 298 299 298 301 301 302 309 311 311 310 309 306 304 303 302 302 299 298 296
312 312 311 312 314 314 316 316 317 316 313 313 313 313 312 311 310 302 305 310 311 304 300 301 301 301 302 302 303 305 308 309 308 306 305 303 302 302 301 302 300 299 295
310 310 311 311 312 315 315 312 297 303 301 299 301 309 313 305 299 296 295 295 294 293 302 302 303 303 303 303 303 303 308 306 307 306 304 304 302 301 300 300 299 297 293
311 310 310 310 312 313 315 315 313 308 299 297 297 298 301 305 296 295 293 292 291 294 307 302 304 304 304 303 303 303 305 309 306 306 304 303 302 301 299 299 297 295 293
312 302 310 311 313 314 315 316 316 315 314 314 299 301 296 296 296 294 291 293 298 297 303 304 303 303 303 303 302 302 304 306 304 302 302 302 301 300 299 298 296 294 294
312 310 311 311 313 312 315 316 316 316 315 316 307 298 296 293 293 291 292 310 305 302 303 304 304 302 301 302 304 304 305 306 304 303 302 301 301 300 299 298 295 291 290
313 305 307 311 312 314 315 315 315 315 314 314 312 314 300 299 303 302 300 305 308 308 305 305 306 304 303 301 302 305 306 303 303 303 302 301 301 301 299 298 295 292 292
314 310 302 311 312 313 314 314 315 315 314 314 314 312 297 309 311 309 305 305 308 308 308 307 307 308 307 306 305 305 306 306 305 304 302 302 301 300 300 297 294 293 292
315 312 311 312 313 313 313 314 314 314 314 314 314 310 291 308 313 311 309 308 308 310 309 309 310 309 309 310 308 307 305 305 305 304 302 301 300 299 298 295 293 292 292
316 313 313 313 313 306 309 314 314 314 314 314 314 312 302 307 312 311 310 310 309 309 310 307 308 309 311 312 312 310 307 305 305 304 302 301 299 296 295 293 293 292 292
316 315 314 314 313 312 313 313 314 305 314 314 314 313 309 309 310 311 311 311 309 310 310 308 307 307 309 310 309 310 309 309 308 305 304 301 297 295 296 295 294 293 291
317 315 315 314 314 312 312 313 314 314 313 314 313 313 313 311 310 310 312 311 310 310 310 310 309 308 308 309 309 309 301 292 303 299 303 301 299 298 296 294 293 291 289
317 316 315 315 315 314 314 312 313 313 313 313 313 314 314 313 312 312 312 311 310 309 310 310 311 310 310 309 308 296 290 291 294 295 301 299 298 296 295 293 291 290 289

GFSGL_sfc_thetae_027.txt.gz
Theta_e
331 330 331 332 331 330 333 332 334 334 333 332 332 332 332 331 332 332 332 331 330 327 328 328 327 330 330 330 330 329 327 326 321 322 325 327 326 326 327 327 328 326 324
330 329 331 332 330 330 332 332 334 333 332 332 331 331 328 327 329 329 327 328 327 326 327 327 327 328 330 329 331 330 328 326 323 320 322 323 324 325 325 325 325 326 326
328 329 331 330 329 330 332 332 333 333 332 332 331 326 325 327 327 327 326 325 326 327 328 327 328 330 330 329 327 328 327 328 325 322 320 323 323 324 324 324 323 324 325
327 328 330 330 330 330 332 332 333 333 331 330 329 325 325 326 326 326 326 326 328 328 329 330 329 330 329 327 326 327 326 324 324 323 321 321 322 323 322 318 318 323 322
326 327 328 329 331 331 331 332 333 332 332 331 329 325 325 325 325 325 325 326 327 327 328 329 330 327 322 325 326 328 327 323 322 321 320 320 319 320 319 321 321 323 322
325 326 327 329 330 330 331 332 333 332 328 331 329 326 324 324 306 311 321 326 327 327 326 326 325 321 317 312 313 314 323 323 321 320 320 319 320 320 321 323 319 319 317
324 325 326 328 329 329 330 330 331 330 331 326 330 327 322 322 305 307 312 328 328 326 324 325 323 321 322 320 312 311 311 310 315 323 321 321 320 324 327 323 323 321 322
324 324 325 326 328 329 329 327 327 328 328 327 324 327 321 317 302 303 310 328 328 327 325 325 324 323 323 323 322 320 321 323 323 326 328 327 329 329 330 329 325 321 321
322 323 324 326 327 327 326 325 327 329 330 328 328 327 319 312 300 301 317 325 326 325 327 326 324 328 303 307 320 320 320 319 304 302 303 302 303 306 316 322 319 320 317
322 323 325 327 327 327 326 325 327 329 329 329 328 327 314 315 300 303 318 324 322 322 324 321 310 321 300 305 325 326 323 320 319 321 321 313 316 311 309 330 325 322 319
324 324 325 327 326 329 326 326 328 328 328 328 327 328 327 319 311 301 308 326 326 326 325 325 325 299 300 302 308 328 321 320 313 322 321 321 322 322 322 325 328 326 318
324 323 324 328 325 325 326 326 327 328 328 327 326 325 327 327 308 301 303 311 315 327 326 327 324 298 298 299 310 295 298 309 320 320 317 315 316 315 315 316 317 317 319
323 323 324 327 326 327 325 324 325 327 326 324 322 323 323 324 324 300 299 301 306 327 330 316 299 296 295 301 295 296 302 317 318 317 315 315 315 313 313 311 311 310 309
323 323 323 325 325 327 325 324 322 324 323 322 321 320 321 323 325 325 320 319 304 318 306 313 306 305 301 309 309 307 319 320 319 319 317 316 313 312 311 311 309 308 305
324 323 322 323 324 325 326 324 322 325 321 322 323 323 322 321 322 315 317 325 326 317 315 317 319 319 319 319 320 320 320 319 318 319 317 313 312 312 311 311 309 308 306
323 321 321 321 323 324 324 323 298 305 302 300 304 316 323 308 297 296 299 298 295 296 319 321 318 318 317 318 318 318 318 313 318 318 317 315 312 311 310 310 310 308 304
325 324 320 318 320 321 322 322 321 313 299 298 297 298 303 308 296 294 293 293 292 297 321 321 320 319 318 318 319 319 317 319 320 317 317 315 313 313 308 309 308 305 302
326 308 321 320 320 320 321 321 322 321 320 321 301 304 296 297 295 293 292 296 306 304 317 319 318 319 320 319 318 317 318 318 317 317 315 315 314 312 310 309 307 305 298
324 320 322 321 320 318 321 321 321 321 321 321 323 303 302 294 293 291 292 318 317 315 315 315 317 318 317 317 318 317 317 317 316 315 314 314 314 312 311 310 307 294 294
323 310 314 321 320 320 320 321 320 321 321 321 321 321 320 307 316 315 311 316 322 321 319 317 316 316 316 315 315 316 315 313 314 314 314 313 312 312 311 309 306 300 296
321 318 308 320 320 320 320 320 321 321 320 320 321 319 303 319 321 321 321 319 321 322 321 320 318 317 316 314 314 312 313 313 314 313 313 312 312 310 310 308 302 297 294
322 320 317 319 321 320 321 321 321 321 321 321 321 319 293 316 321 321 321 321 321 322 323 322 320 320 318 316 314 313 312 311 312 312 312 311 311 309 308 305 299 296 293
321 320 318 320 321 312 318 321 321 321 321 321 322 321 314 317 320 321 321 322 322 322 322 322 321 321 321 321 320 317 314 313 313 313 311 309 305 305 305 302 299 298 295
322 322 319 320 320 320 320 320 321 311 320 321 322 322 321 318 319 321 322 323 322 321 321 321 320 320 321 321 320 320 319 318 316 316 313 310 310 303 304 301 298 295 293
322 322 322 322 321 320 321 321 322 321 321 321 322 322 323 322 320 321 322 322 322 321 320 320 320 319 319 319 319 320 311 293 312 304 314 313 309 303 302 300 295 293 292
322 323 323 322 322 321 321 321 321 322 321 321 321 322 323 323 322 321 321 321 321 320 320 320 320 320 320 318 318 306 291 291 302 296 312 309 302 303 298 296 295 293 291

GFSGL_sfc_thetae_030.txt.gz
Theta_e
333 334 334 335 336 337 338 336 336 337 335 333 334 334 334 335 335 336 335 334 333 334 335 334 332 336 333 330 332 334 331 333 322 324 325 326 326 325 327 327 329 328 324
332 332 333 335 335 337 335 334 335 335 335 333 333 333 332 333 334 334 331 332 331 332 329 329 330 332 332 334 338 332 330 326 323 318 323 323 324 326 326 326 325 326 325
330 331 333 334 335 334 335 335 335 335 333 333 333 332 332 332 332 333 331 331 330 329 330 331 330 330 331 332 333 330 331 326 325 321 320 323 323 324 323 324 323 325 326
328 329 332 333 334 335 335 334 335 335 333 332 332 331 331 330 330 329 330 330 329 330 332 333 333 332 332 327 332 329 330 324 323 321 320 320 321 323 323 319 318 322 323
327 328 331 333 334 334 335 334 335 334 333 332 330 330 329 329 328 329 329 329 331 332 333 332 334 329 323 325 333 331 327 324 321 320 319 319 319 319 319 320 320 321 324
326 327 330 332 332 334 335 335 334 332 332 332 329 328 328 328 308 312 324 328 328 329 330 330 332 325 319 311 313 316 324 324 321 320 319 318 319 321 321 321 319 319 317
326 327 330 332 331 333 334 334 333 332 328 333 331 330 327 328 306 308 312 330 329 331 330 329 328 327 326 325 311 311 311 310 317 323 321 322 321 323 323 322 322 322 320
325 325 330 330 330 332 334 334 335 332 329 326 326 324 324 326 304 305 310 332 330 330 329 328 329 325 323 323 323 325 323 322 325 325 325 325 326 331 330 324 329 330 326
324 324 328 330 329 331 330 332 335 336 334 332 330 323 318 323 302 302 316 330 327 326 330 327 328 324 303 308 322 322 318 316 306 306 310 310 308 310 322 328 324 322 319
324 324 326 329 330 329 330 333 336 336 334 334 329 325 313 318 299 301 316 329 326 325 330 325 309 315 303 308 326 324 326 327 327 324 320 314 317 314 309 332 327 322 322
325 325 325 330 330 331 331 335 336 335 333 331 331 330 323 318 311 302 309 326 324 325 326 327 322 299 301 306 313 328 323 327 320 328 328 328 327 326 327 332 333 329 324
326 325 325 331 328 330 330 335 335 334 332 331 331 330 327 326 312 303 305 312 315 324 326 329 321 298 299 301 311 300 302 314 326 324 324 322 323 325 328 330 330 329 327
325 326 326 328 329 329 329 332 333 334 331 329 329 329 329 330 328 302 301 302 307 328 330 311 299 296 296 301 297 300 303 326 326 325 324 324 324 323 321 319 320 318 319
326 326 326 327 328 330 328 327 329 330 328 323 323 328 330 330 330 330 328 328 308 322 309 320 312 308 302 309 307 311 327 326 324 322 319 318 318 318 318 319 316 316 313
327 327 327 326 327 329 329 325 324 330 323 323 322 322 325 328 329 321 323 331 331 323 325 326 327 326 325 324 324 325 326 326 324 325 322 319 318 318 318 319 318 316 313
326 327 326 324 326 326 328 327 298 303 305 304 306 314 321 306 302 302 302 301 299 303 325 327 328 326 323 324 324 325 326 320 324 323 322 320 318 318 317 317 317 316 315
328 328 326 320 324 323 324 326 324 315 302 299 300 301 301 304 297 296 295 294 294 301 328 329 327 324 322 322 323 323 323 324 325 323 322 321 319 318 315 316 316 316 314
329 309 326 324 323 323 322 323 323 323 321 322 301 306 297 296 294 293 293 299 314 311 322 322 322 322 321 320 321 321 322 323 323 323 322 322 320 318 316 316 316 315 313
328 326 325 325 324 320 323 322 322 321 321 321 322 305 301 294 292 291 293 322 321 321 321 320 322 322 322 323 322 322 322 322 322 322 322 322 321 319 317 316 316 301 303
329 313 317 325 323 322 323 322 321 321 321 321 321 322 323 311 318 318 315 320 321 320 320 319 320 321 322 321 321 322 321 320 322 322 322 322 321 320 317 316 316 311 307
329 327 313 324 324 323 322 322 322 321 322 322 322 320 305 322 320 322 323 324 324 323 323 322 321 320 321 321 321 320 319 320 320 321 321 321 320 318 317 317 316 310 303
329 328 324 324 325 323 322 322 323 322 322 322 323 320 294 323 321 320 321 322 324 325 325 325 323 322 321 320 319 319 318 318 319 319 319 319 319 318 317 316 315 310 304
328 328 325 325 325 315 322 322 322 322 322 323 323 323 320 323 323 322 322 324 324 325 325 325 324 323 323 322 322 320 317 317 318 319 318 318 317 316 316 315 312 307 303
328 328 326 325 325 325 324 323 323 311 321 322 323 323 324 324 325 325 325 326 326 327 327 326 325 324 324 323 323 323 322 320 319 319 320 318 317 312 315 313 310 307 305
328 328 327 326 326 324 325 325 325 325 324 323 323 324 325 325 326 326 326 326 327 328 328 328 327 326 325 324 323 324 314 294 316 309 321 320 318 317 313 313 310 307 299
326 328 328 327 327 326 326 326 326 326 326 326 326 326 327 326 327 327 327 327 327 328 328 328 327 327 326 325 324 312 294 291 308 293 319 320 318 316 314 312 307 297 293

GFSGL_sfc_thetae_033.txt.gz
Theta_e
333 334 335 337 335 335 337 336 337 337 334 333 334 334 333 334 335 337 336 334 332 334 332 333 332 331 337 331 334 334 333 333 324 326 328 325 324 324 325 326 327 327 323
332 332 333 338 333 336 334 336 336 335 334 332 334 331 331 332 335 334 332 333 332 331 333 332 330 333 333 335 336 333 330 333 324 320 323 323 323 323 323 323 325 327 324
330 330 333 334 336 335 335 335 336 335 333 332 333 331 330 331 332 332 332 331 332 329 330 332 329 332 331 327 327 327 328 326 324 321 319 322 322 324 322 323 322 323 324
328 330 332 335 334 335 335 335 335 335 333 331 333 331 332 332 331 331 332 331 330 331 333 334 330 331 326 328 327 325 324 323 323 320 319 319 321 322 321 319 318 321 319
327 329 332 335 336 335 334 334 335 335 332 331 331 332 331 331 329 330 331 330 331 332 334 333 333 327 321 324 329 326 324 321 320 319 318 319 318 318 317 319 318 319 319
328 329 332 333 332 334 334 335 335 334 333 331 329 329 330 330 310 314 324 331 332 332 332 333 331 325 318 311 316 318 324 323 320 319 318 317 318 319 320 319 318 318 316
327 330 331 332 331 333 333 333 332 333 333 332 331 329 331 328 308 309 313 332 331 333 332 331 330 329 327 325 312 311 311 311 316 322 320 320 319 320 320 317 317 322 322
326 328 331 331 330 332 333 334 333 332 330 327 327 329 331 325 306 306 312 332 333 333 332 331 328 328 327 328 326 323 323 324 324 325 324 324 324 322 319 318 322 329 325
325 327 330 330 331 331 331 334 336 334 334 332 329 324 327 325 304 302 313 332 332 331 331 330 326 324 305 308 323 319 319 319 310 309 309 307 305 309 319 325 325 321 317
325 326 330 330 331 331 332 335 338 337 334 333 329 326 314 328 301 300 312 329 330 327 325 322 306 317 303 308 326 321 319 320 322 323 322 313 317 317 310 331 328 322 320
326 326 329 330 331 333 333 337 337 335 334 332 328 324 324 326 322 301 306 331 329 329 326 325 320 301 304 307 314 331 325 325 319 327 328 327 328 328 328 331 332 334 326
327 326 328 331 330 332 333 336 335 334 331 331 328 323 324 325 310 302 304 313 317 328 324 326 317 299 302 304 316 303 305 317 330 327 328 327 327 329 329 332 336 331 328
326 326 327 331 329 331 332 334 332 334 329 332 331 327 327 327 323 304 302 303 307 327 330 312 298 298 299 305 301 303 304 329 328 327 324 323 323 328 330 329 326 324 325
326 327 328 330 328 329 328 332 331 330 326 329 329 329 328 329 329 330 321 325 307 316 309 315 313 309 302 314 314 315 326 327 325 324 325 326 328 324 323 323 319 318 316
326 327 327 328 329 328 327 327 329 333 323 323 330 330 329 328 327 320 324 329 330 323 325 327 325 325 322 323 323 324 327 327 326 325 323 320 319 319 319 321 319 318 315
328 326 326 326 327 330 327 324 298 302 303 301 300 314 325 311 304 302 305 304 301 305 326 326 325 324 323 323 323 324 326 322 327 326 324 321 319 318 319 320 320 319 316
331 330 325 321 326 326 328 327 322 315 303 303 299 301 306 308 301 299 298 297 300 305 327 327 326 324 322 322 323 323 323 325 329 325 324 322 320 319 316 318 318 318 317
331 310 328 324 324 324 327 328 326 323 320 322 304 308 300 298 297 296 295 303 321 315 328 328 326 326 324 322 322 323 324 326 325 324 324 324 324 320 318 317 317 317 317
330 326 327 326 324 321 324 325 326 325 322 319 320 307 300 293 293 293 295 322 323 325 327 327 326 326 325 323 324 324 326 325 325 326 325 325 325 323 321 318 317 302 307
330 314 318 326 324 323 323 322 322 322 323 321 320 320 319 310 317 318 319 322 320 320 320 320 321 323 324 323 323 323 321 324 325 327 326 325 326 325 321 319 318 318 315
328 327 313 325 324 323 322 322 322 321 321 321 321 320 306 319 319 320 321 322 322 322 322 322 321 321 323 324 324 324 324 324 325 325 325 325 326 323 325 323 321 319 317
331 329 326 325 325 324 323 323 323 322 321 321 322 319 296 322 319 319 321 322 323 324 324 325 323 323 323 322 323 324 322 322 324 325 324 324 324 324 323 322 320 320 317
330 330 328 327 326 315 322 322 322 322 322 322 322 322 319 324 323 322 323 325 328 328 329 329 326 325 326 326 326 325 322 323 324 325 324 323 323 323 323 322 319 318 316
331 330 330 328 327 326 325 325 322 310 321 322 323 323 324 325 325 325 325 325 326 327 328 328 327 326 327 329 327 326 325 325 325 324 324 324 322 318 321 319 318 317 315
330 332 331 332 329 328 326 326 326 322 322 322 324 324 324 327 327 327 328 328 328 328 329 329 329 328 328 326 326 326 316 294 317 308 322 323 322 322 320 318 317 318 312
328 330 331 332 331 330 329 328 328 328 325 325 326 326 326 326 325 329 330 330 329 328 329 331 332 331 330 328 328 315 295 291 307 293 321 324 322 320 319 319 317 315 307

GFSGL_sfc_thetae_036.txt.gz
Theta_e
336 337 335 337 334 337 339 338 337 338 334 334 335 335 334 333 334 333 331 332 330 330 328 327 326 326 329 331 331 327 326 326 320 323 325 325 324 324 325 326 327 326 324
334 334 334 333 335 337 337 337 338 337 335 332 332 330 333 333 333 332 332 331 330 328 327 326 326 328 325 328 327 326 326 326 322 319 321 321 322 324 325 324 325 326 324
331 333 333 335 336 336 335 337 337 336 333 330 330 330 330 332 332 333 331 331 329 329 328 327 326 327 326 326 325 325 326 326 323 320 318 321 321 323 322 322 322 321 322
330 331 334 336 336 335 336 337 337 336 333 330 329 331 329 330 331 331 331 330 329 329 330 328 327 327 325 324 323 323 324 323 322 320 318 319 320 321 320 318 317 320 319
328 332 335 337 335 336 334 334 335 336 333 329 331 331 332 331 328 330 330 329 330 329 329 329 327 324 323 324 324 322 322 321 320 319 317 317 317 317 316 317 315 316 315
329 332 334 334 332 335 334 334 335 334 332 330 330 329 331 327 309 314 323 328 329 329 327 327 326 321 317 315 316 316 320 320 319 318 317 316 316 318 318 315 315 312 311
329 332 332 332 332 333 333 333 332 332 332 329 329 330 327 324 309 309 312 332 330 330 329 329 327 325 323 321 310 312 311 311 315 321 318 318 317 319 318 317 316 315 315
328 330 331 331 331 333 333 333 333 334 330 328 328 331 326 321 306 305 307 332 330 329 330 329 328 327 324 324 323 322 321 322 322 323 322 321 321 321 321 320 319 322 321
326 329 331 331 331 332 332 334 332 332 331 328 327 325 325 323 302 303 312 331 328 328 328 326 325 322 306 307 322 320 320 318 309 308 308 306 304 307 315 318 320 316 313
325 329 330 332 333 330 334 333 335 334 331 327 324 325 318 324 302 301 310 329 326 324 323 319 307 314 305 308 322 321 319 320 321 320 317 310 310 310 307 321 321 316 314
326 329 330 332 334 335 335 335 335 333 331 328 325 324 329 325 317 300 304 330 326 323 322 321 315 303 307 308 312 323 320 322 316 322 323 323 323 323 321 322 327 323 317
326 327 330 333 331 333 335 335 334 333 330 324 322 322 325 327 312 305 304 315 317 325 323 321 308 300 304 309 313 302 304 314 324 324 323 323 323 323 323 325 326 325 324
326 327 330 331 332 333 334 334 332 331 329 325 324 323 323 325 322 304 303 303 312 325 327 307 297 300 300 303 302 303 306 325 324 323 322 323 325 327 327 322 321 321 320
327 328 331 330 329 331 334 334 331 331 330 328 325 325 325 324 324 323 322 318 308 313 306 311 309 309 307 312 311 312 326 327 325 324 324 325 325 324 323 322 317 315 312
329 328 330 329 329 329 332 328 331 317 326 331 329 327 326 325 325 319 321 326 326 319 320 321 320 321 320 321 324 324 324 323 324 323 321 320 321 321 320 320 317 314 311
328 328 327 328 329 326 325 321 297 301 300 299 308 322 328 313 305 305 305 305 304 304 323 322 321 321 320 319 320 321 324 321 324 323 321 320 318 317 317 317 316 314 312
328 328 326 325 328 327 325 323 320 311 299 299 299 305 312 309 303 300 300 299 300 305 325 324 322 322 321 322 321 321 322 323 324 323 321 318 317 317 310 316 315 315 314
329 312 327 326 326 328 328 325 323 322 321 320 306 309 302 300 300 298 297 305 316 313 325 326 325 324 322 322 322 322 322 324 323 323 323 321 319 317 316 316 315 314 313
328 327 327 324 327 323 329 329 326 323 322 323 317 308 298 295 295 296 298 326 324 324 324 326 328 327 324 323 322 322 323 322 323 322 322 322 321 318 316 315 315 301 305
329 315 318 326 324 324 324 325 326 325 321 318 321 319 313 308 316 317 318 325 326 326 326 326 327 327 327 324 323 322 322 320 322 323 321 321 321 321 318 317 315 313 310
329 327 313 326 324 324 322 322 323 324 324 320 319 319 304 318 318 318 318 320 320 319 322 324 325 322 322 323 322 321 320 320 321 322 322 322 321 320 321 319 317 315 313
328 327 325 324 325 323 323 323 323 322 321 322 322 315 297 319 321 320 321 320 321 322 323 323 320 320 319 320 322 322 321 320 320 321 321 322 322 321 320 319 318 316 313
329 328 326 324 324 315 319 323 323 322 321 321 322 318 312 317 318 318 319 321 322 323 323 323 322 322 323 322 321 321 321 321 321 322 321 320 320 320 320 317 317 315 313
329 330 329 325 324 325 325 323 322 311 322 321 322 321 317 319 321 319 319 321 321 322 322 322 321 321 322 325 325 323 322 321 322 322 322 321 320 312 319 318 317 315 313
330 330 331 328 326 324 326 325 323 322 321 322 322 322 321 322 323 323 324 323 321 322 324 325 325 325 324 324 325 325 314 294 315 309 321 320 320 319 318 316 315 313 306
329 332 330 332 329 328 325 327 325 323 322 321 322 324 323 323 323 324 325 324 323 323 324 323 325 326 325 325 324 313 296 292 301 294 317 318 317 318 316 315 314 311 301

GFSGL_sfc_thetae_039.txt.gz
Theta_e
327 326 330 327 328 327 327 328 326 325 326 326 327 326 326 325 327 326 324 324 323 323 323 324 321 323 324 324 324 323 321 320 319 322 323 325 326 324 322 323 324 321 319
327 326 329 328 327 327 327 327 326 326 326 327 327 327 327 327 326 325 325 326 325 323 324 324 321 326 324 323 321 320 320 321 320 318 321 322 322 324 321 322 323 324 322
326 327 329 326 326 325 327 328 328 327 326 327 328 328 327 327 326 326 327 326 325 324 325 325 323 324 323 322 323 322 322 323 322 320 318 321 322 323 322 323 322 322 323
328 325 326 326 326 325 326 327 326 327 328 326 327 328 329 328 328 328 326 324 325 327 326 326 326 324 323 321 322 323 323 321 321 319 319 319 320 321 320 317 317 319 316
326 328 327 326 326 327 327 327 327 326 327 328 327 325 324 324 325 325 324 324 325 326 327 327 325 325 322 322 323 323 323 321 319 318 317 317 317 317 316 317 314 314 314
327 327 329 327 328 325 325 326 326 325 325 324 323 324 321 322 307 311 318 323 325 323 323 323 321 320 317 313 313 314 321 320 318 318 317 316 316 316 317 315 314 313 310
327 328 329 327 327 326 328 327 325 323 322 322 321 321 318 315 306 307 310 326 325 324 323 322 323 322 319 318 311 311 310 310 315 320 317 317 315 316 316 314 313 313 312
326 327 328 328 327 326 326 325 323 323 322 320 321 321 316 313 304 303 307 325 324 324 325 324 324 323 320 322 321 321 321 321 321 322 320 320 319 319 318 316 315 316 314
325 326 327 328 326 326 326 324 324 323 323 322 323 317 315 312 301 301 317 327 325 322 323 325 323 322 306 307 321 319 319 318 308 307 308 307 305 307 314 317 316 313 310
324 326 328 328 327 326 325 324 325 324 323 323 322 322 313 313 299 300 319 324 320 318 319 318 309 315 303 306 321 320 317 318 319 318 315 310 311 308 309 318 318 313 312
323 327 327 327 327 327 326 325 324 324 322 320 319 319 319 315 310 301 308 321 319 318 319 317 314 304 302 304 311 321 318 320 314 319 318 317 317 315 314 317 318 316 312
321 327 327 328 331 328 326 325 325 322 318 318 319 319 318 316 308 303 305 314 313 321 318 317 309 302 302 303 312 300 302 312 321 321 319 318 316 317 317 316 320 324 317
320 325 325 325 329 327 326 325 324 322 318 317 320 320 318 317 313 302 302 302 309 318 318 308 298 301 301 302 301 302 307 322 321 320 319 319 320 320 319 318 317 317 316
323 323 324 325 324 327 328 327 325 323 320 319 319 318 317 316 316 316 314 311 306 308 304 305 307 305 308 310 309 311 322 322 321 319 318 319 321 319 316 315 312 310 309
323 322 323 324 322 324 318 319 324 325 323 322 321 321 319 318 319 314 315 320 317 313 311 311 312 314 316 317 318 318 321 322 320 319 319 319 320 319 318 315 313 309 306
322 322 322 322 321 319 313 310 297 297 305 308 310 319 322 311 303 303 304 304 302 302 314 313 313 313 317 318 318 319 317 317 322 321 317 317 318 318 315 314 312 309 307
322 322 321 321 320 317 315 313 310 309 297 300 305 306 308 306 302 302 301 300 299 303 316 315 315 315 315 316 317 316 316 317 319 319 317 317 317 317 310 313 312 310 308
322 310 321 322 321 318 318 316 314 312 311 312 302 304 301 300 301 299 297 301 308 308 317 317 316 316 316 316 315 314 315 317 318 318 316 316 315 315 312 312 311 310 308
322 321 321 320 322 320 319 317 317 316 314 313 309 303 295 295 298 297 298 319 319 318 317 318 320 319 318 318 319 318 317 317 317 316 317 316 315 313 312 312 311 300 302
322 311 314 319 321 319 322 321 317 317 317 314 313 311 303 303 309 309 310 320 320 320 320 320 320 321 321 319 319 319 318 314 317 318 317 317 318 316 313 312 311 309 308
322 316 309 318 317 319 317 322 319 317 316 316 315 314 300 316 316 316 316 319 322 322 322 322 322 320 319 319 318 318 317 318 317 319 318 317 316 316 315 313 311 311 308
323 321 319 319 318 317 317 317 318 318 317 315 317 313 294 318 318 318 318 319 321 321 317 322 323 323 319 314 316 317 315 315 315 317 318 318 317 317 316 314 313 311 308
324 322 319 320 318 309 310 317 316 316 316 318 315 315 307 316 316 316 316 317 318 318 319 316 315 315 315 313 313 316 316 315 315 316 316 317 317 317 316 313 313 311 309
323 323 321 320 319 318 315 316 316 307 315 314 317 314 313 314 316 317 318 318 317 317 317 317 317 317 316 315 315 317 317 317 317 317 317 316 316 309 316 315 313 312 309
321 321 321 320 319 317 317 316 316 315 316 316 315 312 313 314 314 315 316 317 317 318 318 319 319 318 316 316 317 317 309 295 311 307 317 316 316 314 315 315 311 309 299
323 324 322 322 320 320 318 318 317 317 316 316 316 315 314 314 315 316 316 315 315 316 317 318 318 318 318 318 317 309 297 294 299 294 315 317 315 315 315 312 310 306 299

GFSGL_sfc_thetae_042.txt.gz
Theta_e
324 322 322 323 326 324 325 325 323 323 324 324 325 324 324 325 324 322 322 323 321 322 321 321 320 321 322 322 320 321 318 318 316 319 324 324 322 322 320 320 320 320 320
323 324 323 325 324 324 325 325 323 323 323 325 326 325 325 325 324 323 324 324 323 324 322 322 320 324 321 321 319 317 318 319 320 317 321 321 320 321 320 319 319 319 318
324 324 324 324 324 324 324 325 324 324 324 324 324 324 325 325 324 324 325 324 324 323 323 323 322 323 320 322 319 319 319 322 321 319 318 322 319 321 319 320 319 320 322
325 324 323 323 323 323 324 324 325 325 326 325 325 327 326 325 326 326 324 322 323 324 325 325 324 323 321 322 322 322 322 321 319 319 318 318 318 321 320 318 317 319 316
323 325 322 323 324 324 324 325 325 324 327 327 327 324 323 324 324 323 323 323 323 324 325 325 325 323 321 321 323 323 322 320 318 318 317 317 317 316 316 316 314 314 313
324 325 326 324 325 323 323 324 323 323 323 322 323 320 319 320 306 310 319 322 322 322 323 322 323 319 316 312 315 316 320 320 319 318 317 315 316 316 316 316 314 313 309
325 326 326 325 325 324 325 324 321 320 320 319 318 318 315 313 302 304 310 322 320 320 320 322 323 320 318 316 309 310 311 311 316 319 317 316 315 317 316 315 314 313 312
325 327 326 326 324 325 324 322 320 318 318 318 316 315 314 312 301 303 309 321 321 324 321 324 321 320 320 320 320 319 319 320 320 321 320 319 319 319 318 317 315 312 312
325 325 326 325 324 324 322 321 320 320 318 318 317 314 313 313 301 306 318 324 323 322 324 324 322 320 304 306 319 318 317 315 306 305 306 305 303 305 312 317 312 310 308
324 325 326 326 325 324 322 321 320 320 323 322 319 316 310 316 299 304 317 322 319 319 319 318 308 315 302 305 320 318 316 316 317 316 314 309 310 307 307 318 313 310 308
325 325 325 325 324 324 322 321 321 319 319 320 318 317 313 312 310 302 307 317 318 318 318 317 314 301 300 302 309 319 315 318 313 318 317 317 317 316 315 316 314 314 310
324 325 324 324 328 326 323 321 321 318 316 315 317 314 315 313 303 301 303 308 310 319 319 317 310 298 299 301 309 299 302 311 319 317 317 316 315 312 312 315 316 315 314
324 324 324 326 325 324 323 321 320 316 317 319 320 319 316 314 313 301 301 301 306 317 319 309 299 297 298 301 299 302 308 320 318 316 316 315 313 316 314 314 314 316 314
323 324 324 325 322 323 324 323 321 316 315 318 320 318 315 314 314 314 312 309 303 308 303 307 306 307 306 307 308 313 320 320 318 317 317 317 315 314 313 312 311 309 309
323 323 324 324 323 322 321 321 323 320 317 318 319 318 317 317 316 310 312 315 312 310 309 310 316 316 315 317 318 319 319 318 317 317 317 318 316 317 314 312 310 308 308
321 322 322 323 322 319 314 308 295 300 304 306 308 314 318 309 299 299 301 300 297 300 311 310 315 317 317 317 318 318 317 316 318 318 316 318 318 317 316 312 311 308 306
320 321 320 320 320 314 312 312 310 305 298 298 301 303 306 304 297 299 298 297 296 303 312 311 313 316 317 317 318 318 317 317 317 320 317 316 317 317 309 316 314 311 308
320 310 321 320 319 315 313 311 311 315 318 315 300 300 299 297 298 298 295 300 309 308 313 313 314 315 316 317 317 317 315 316 318 318 317 317 317 317 314 315 315 313 312
321 320 322 321 318 316 315 312 311 312 320 316 308 302 295 293 294 295 295 318 315 314 313 314 315 315 317 318 318 319 318 316 316 317 317 316 316 316 314 315 314 301 303
321 311 314 320 319 317 316 314 313 311 313 316 316 316 302 304 309 307 306 318 318 318 317 317 317 317 316 315 317 318 317 313 313 316 317 316 315 315 315 313 312 311 307
321 315 307 320 320 319 318 316 315 315 313 312 317 311 298 316 316 316 314 315 319 320 320 318 318 319 319 318 317 317 316 316 315 316 317 317 317 314 315 314 313 311 310
321 319 317 319 320 320 319 321 317 316 316 314 313 310 292 317 318 317 317 318 320 321 322 321 321 321 320 320 318 318 317 316 316 315 317 317 316 316 316 314 312 311 309
321 319 319 319 318 309 311 318 320 317 316 316 316 314 305 312 318 318 318 319 320 321 321 319 322 322 322 320 321 320 317 317 318 318 317 317 317 316 315 314 314 312 309
321 320 319 318 318 315 316 315 316 308 317 316 315 316 311 313 318 318 319 319 319 320 321 322 320 318 321 319 317 317 319 319 318 316 317 317 317 310 316 315 314 314 312
320 320 318 318 317 314 314 313 314 314 314 317 316 314 314 314 316 317 317 317 317 317 317 318 319 320 317 316 317 315 308 295 310 306 315 315 314 314 315 315 314 310 301
324 324 321 319 317 316 315 314 315 314 315 315 315 316 314 314 314 315 316 316 316 316 317 317 316 315 315 315 315 308 297 295 298 293 311 314 314 313 313 313 312 312 305

GFSGL_sfc_thetae_045.txt.gz
Theta_e
322 321 321 322 323 323 323 323 323 322 322 322 323 322 322 322 321 320 319 321 320 319 319 320 319 319 322 320 319 317 315 318 318 320 323 323 320 318 320 323 324 322 320
321 321 321 321 321 321 323 323 321 321 322 323 323 323 323 323 322 320 321 321 320 320 320 319 321 322 320 320 318 315 316 317 320 317 320 319 317 318 317 318 321 322 320
321 322 321 320 321 322 322 322 321 321 322 323 324 323 323 323 322 322 323 322 322 323 322 321 321 320 319 319 316 317 318 319 320 319 317 319 318 318 316 317 315 315 318
322 321 320 320 321 322 322 322 322 322 322 322 322 324 324 324 324 324 323 321 323 323 324 323 323 322 321 320 319 320 320 319 319 319 317 316 317 318 317 315 315 315 316
322 321 320 321 322 322 322 322 323 323 324 325 326 325 322 323 323 323 321 321 322 323 324 325 324 323 320 321 322 322 320 318 319 317 316 316 316 315 314 316 313 313 312
322 321 322 322 322 321 322 322 321 321 324 323 323 320 318 318 305 311 318 321 320 322 321 322 322 319 315 313 315 316 319 318 318 317 316 315 315 316 316 314 313 312 307
322 324 325 323 322 321 322 321 319 319 319 318 317 317 315 314 301 303 309 321 320 322 320 323 323 320 318 319 311 312 312 311 315 319 317 316 315 316 316 315 314 313 312
323 324 324 324 322 322 321 319 317 316 318 315 315 314 313 312 301 303 307 320 319 320 322 322 320 320 318 318 320 319 320 320 319 321 319 319 319 319 319 317 313 311 311
324 324 324 324 322 322 320 318 316 316 316 314 314 313 313 312 301 302 315 323 323 323 323 322 321 319 303 305 319 316 315 314 307 306 306 304 303 304 312 315 312 310 307
323 324 324 323 323 321 319 318 317 318 321 318 315 312 309 313 300 303 316 322 320 319 320 318 308 313 301 305 319 317 314 314 314 313 312 308 311 309 308 316 314 310 307
324 324 324 323 322 321 319 318 318 321 322 318 315 312 313 314 311 301 306 317 320 319 318 317 313 300 300 301 308 319 314 316 312 317 316 315 316 316 317 315 314 312 308
323 324 323 322 325 322 320 318 318 316 316 314 315 311 316 316 302 300 301 307 309 319 318 317 308 298 299 299 307 300 302 311 318 317 316 314 314 314 315 314 312 312 311
322 322 321 323 323 321 319 321 320 316 318 317 317 316 316 316 314 300 297 299 305 316 318 309 298 296 297 300 299 300 307 318 317 316 315 315 315 313 311 312 312 313 312
320 321 322 322 320 320 321 322 320 318 318 319 318 316 317 315 316 314 311 308 304 308 304 307 305 305 305 306 308 313 317 317 316 316 315 312 311 311 310 311 310 309 310
321 322 323 321 321 319 321 320 320 317 318 319 321 318 316 314 316 309 310 312 314 309 311 315 316 316 314 316 318 318 317 317 316 313 315 313 312 311 311 310 309 307 307
320 321 322 321 320 319 316 313 294 299 303 304 304 312 316 307 298 297 297 297 296 298 313 316 316 316 316 316 317 318 317 313 315 316 315 317 317 314 312 309 309 308 306
321 321 321 320 321 317 314 315 313 305 297 297 297 300 304 302 295 295 295 294 294 300 310 315 317 317 317 318 318 318 318 316 315 317 316 316 315 314 311 311 310 309 308
321 309 321 321 321 317 316 315 314 312 311 313 297 300 295 295 294 294 293 298 308 306 310 313 316 317 317 318 318 318 318 314 317 316 315 315 314 314 312 313 314 313 312
320 319 321 321 320 316 314 312 312 314 316 314 306 300 294 292 292 291 294 314 311 310 310 311 315 317 317 318 318 318 317 317 317 317 316 315 315 316 315 315 315 298 302
319 310 313 319 315 314 312 310 309 312 315 314 312 312 304 306 310 308 307 313 313 312 312 312 313 315 316 317 317 317 316 312 313 316 316 317 316 316 315 314 313 311 308
319 314 307 318 316 317 315 312 311 310 313 314 316 310 296 314 314 313 312 312 315 317 315 315 314 315 314 315 314 315 315 316 314 314 314 314 314 313 315 315 313 312 312
318 317 317 318 318 316 316 315 313 312 311 313 314 308 290 313 316 316 315 315 317 319 320 319 317 318 318 316 315 315 316 316 315 314 314 315 315 315 314 313 312 311 310
319 317 316 317 318 308 311 316 314 314 313 313 313 310 303 311 316 316 317 317 317 318 319 320 320 319 320 320 320 318 316 316 316 316 315 314 315 315 315 314 313 312 310
320 319 317 316 314 314 314 316 317 307 314 315 314 313 309 311 315 317 318 318 318 319 320 320 321 321 321 321 321 321 322 321 320 318 316 316 315 311 314 314 314 313 312
320 320 318 316 315 313 312 313 313 315 316 316 315 315 314 312 313 317 319 319 319 319 319 320 321 321 320 321 321 319 313 298 313 308 317 316 315 315 314 314 314 313 311
316 320 319 319 317 315 312 311 312 312 313 316 316 315 315 314 314 314 316 317 318 318 318 319 319 320 320 320 319 312 299 296 301 295 314 315 314 313 314 313 312 312 309

GFSGL_sfc_thetae_048.txt.gz
Theta_e
322 323 322 323 324 324 324 324 324 325 324 324 324 324 324 324 324 323 323 324 324 323 324 323 322 324 325 323 321 321 322 323 318 320 322 321 320 321 323 326 327 325 322
322 322 322 323 323 322 323 324 324 324 324 325 325 325 325 325 324 324 323 324 323 322 321 321 322 324 323 323 322 321 322 325 321 316 319 317 317 319 321 321 322 322 322
322 321 321 321 321 323 324 323 323 323 324 325 326 325 324 325 325 325 325 323 324 322 322 321 323 322 321 321 321 321 323 324 322 318 316 318 317 317 316 317 316 317 320
322 321 321 321 322 323 324 323 324 324 324 325 325 326 326 326 326 326 325 324 325 323 324 323 323 322 322 320 321 322 323 322 321 318 315 315 315 316 315 313 313 316 316
322 321 321 322 323 323 324 324 325 324 325 325 325 327 326 325 323 325 324 323 325 324 324 324 323 322 321 320 322 322 323 320 318 316 315 314 313 313 311 313 311 313 313
322 321 322 322 323 323 323 324 324 324 325 326 324 323 322 320 302 308 320 323 324 323 323 322 322 318 316 314 315 315 320 322 319 317 315 313 314 315 315 313 312 311 306
322 323 323 323 323 323 323 322 321 321 322 322 322 321 320 318 301 302 309 324 323 323 323 322 323 321 320 323 311 311 310 311 316 320 316 316 315 316 315 314 315 314 311
322 323 324 324 322 323 322 321 319 319 319 318 318 318 318 315 301 302 306 323 323 324 324 323 321 319 319 321 320 319 321 322 321 323 322 320 320 320 320 318 313 310 310
323 323 324 324 322 322 321 319 319 319 319 317 318 317 318 318 301 300 314 325 324 323 323 322 320 318 304 304 320 319 317 314 306 306 306 304 303 305 311 316 312 312 309
323 324 325 325 324 322 321 319 319 321 320 318 316 316 309 318 300 301 316 323 321 320 319 317 306 312 300 304 318 318 314 314 314 314 311 307 310 308 308 318 316 311 310
325 325 324 325 324 323 321 321 320 322 320 317 316 316 318 315 309 302 307 322 320 319 318 316 311 299 300 300 308 319 314 316 311 316 316 316 317 317 316 317 317 314 313
324 324 323 323 325 322 322 320 321 322 319 317 315 315 319 317 304 301 301 308 311 321 318 317 307 297 298 300 307 300 302 310 317 316 315 315 315 315 315 316 318 317 317
323 323 323 323 323 322 321 321 319 320 317 316 317 317 318 318 315 298 297 299 303 319 319 308 296 296 297 300 300 301 306 318 317 315 315 315 317 318 317 315 316 317 318
321 322 322 323 321 322 323 322 321 320 319 317 316 316 318 316 317 315 313 312 304 306 304 306 305 305 305 306 310 314 319 320 319 318 318 316 315 317 317 318 316 316 316
321 322 323 321 322 320 322 319 321 322 319 320 318 319 318 316 317 310 311 316 317 309 311 315 316 315 314 316 318 318 319 319 319 318 317 316 316 317 317 317 317 315 316
321 322 322 322 322 321 317 314 296 299 304 304 302 313 318 305 300 298 296 297 297 301 316 316 315 315 315 317 318 317 318 315 319 319 318 318 316 317 316 316 316 317 317
321 322 321 320 321 318 316 317 317 309 297 297 296 299 304 301 295 295 294 293 293 303 317 317 317 317 317 318 319 319 318 319 320 320 319 319 318 318 312 316 317 316 315
322 308 323 323 322 320 319 319 319 317 319 317 298 300 295 293 293 292 293 298 311 311 317 318 318 318 318 319 319 320 320 319 320 319 319 318 318 318 316 317 318 317 316
321 321 323 323 322 318 320 319 319 318 317 317 311 301 293 291 291 291 295 316 315 315 315 317 320 319 320 321 321 321 318 318 319 320 320 319 320 320 319 319 319 302 306
321 310 315 322 319 319 318 317 316 316 318 317 316 314 304 304 309 307 308 316 316 317 317 317 319 320 321 321 320 319 318 315 318 321 321 321 321 321 320 320 320 319 314
320 316 306 320 319 319 318 318 316 315 318 319 319 311 299 316 316 315 313 315 318 318 317 318 318 320 321 321 319 318 318 319 320 321 321 321 321 320 321 321 321 320 320
320 318 318 319 319 319 318 318 316 315 317 319 319 309 291 317 318 318 317 317 319 321 322 320 319 319 319 320 321 321 321 321 321 321 321 321 321 321 321 320 320 319 319
319 318 319 319 319 308 314 317 316 315 315 317 318 313 304 314 319 319 319 320 320 321 322 323 322 321 322 322 322 322 321 321 323 323 321 321 321 321 321 320 319 318 318
321 319 319 319 319 317 317 317 317 307 316 316 316 317 314 315 318 321 321 321 321 321 322 323 324 324 324 324 324 323 323 323 323 323 323 322 321 316 320 320 319 319 319
321 320 318 317 317 318 317 318 319 317 316 317 317 317 316 316 318 320 322 323 322 322 321 322 323 324 324 325 325 325 316 299 317 311 323 322 321 321 320 319 319 319 318
313 314 314 315 315 315 315 315 315 315 317 318 318 318 318 317 316 317 318 321 322 322 323 323 323 324 324 325 325 314 300 297 304 296 321 323 321 321 321 320 320 318 318

GFSGL_sfc_thetae_051.txt.gz
Theta_e
335 336 335 335 336 337 337 337 337 337 335 334 333 333 333 334 335 334 334 332 330 333 333 332 332 333 331 331 329 330 327 328 322 320 324 322 323 326 330 332 329 328 324
334 335 335 335 336 336 336 336 336 335 334 333 333 332 332 333 334 333 332 331 330 330 329 330 325 329 331 331 329 325 329 332 325 319 319 317 319 322 324 324 325 326 325
333 333 334 334 335 335 335 335 335 334 333 333 333 332 332 333 333 333 332 331 329 326 325 321 324 326 327 329 327 328 330 329 328 324 317 318 317 318 318 320 320 320 320
332 332 333 333 334 335 335 334 334 334 333 333 333 332 332 332 332 333 332 331 329 327 325 326 325 324 326 327 329 331 327 324 326 319 316 315 315 317 317 316 314 317 317
329 330 332 333 334 334 334 332 333 334 334 333 333 333 334 333 331 332 331 331 331 326 325 325 325 324 322 323 329 328 326 324 321 317 315 314 313 313 313 314 314 314 314
329 329 331 332 333 334 334 333 333 333 334 333 332 333 333 329 303 308 323 331 330 327 324 325 324 320 318 314 316 317 323 324 319 316 316 313 313 313 315 313 311 309 307
329 330 330 332 331 332 333 332 332 334 335 332 330 332 332 330 302 303 309 331 330 330 325 324 322 324 324 323 312 311 312 311 318 323 317 317 314 315 316 313 313 313 312
329 329 330 331 330 331 332 332 332 333 333 333 332 332 331 323 301 302 307 332 329 328 326 324 321 320 326 324 325 325 325 326 326 327 326 322 323 324 320 318 315 313 313
328 329 330 330 330 331 331 331 331 331 330 330 330 329 330 327 301 301 316 328 326 326 326 324 322 320 305 305 324 323 322 319 308 307 308 305 303 305 315 316 313 312 310
329 330 331 331 331 331 332 331 331 332 330 327 328 328 313 329 301 301 316 326 323 321 320 320 306 314 299 304 322 322 317 317 318 319 316 309 315 311 309 319 318 314 313
331 331 332 332 332 333 332 332 331 329 326 326 327 328 326 324 314 302 307 326 323 322 320 319 316 299 299 302 310 324 318 321 313 319 318 318 319 318 319 319 321 323 320
331 331 331 333 332 332 332 331 331 329 324 320 325 324 323 321 305 301 303 309 313 322 319 318 310 297 298 299 310 299 302 310 320 317 315 315 316 316 317 318 321 323 326
331 331 332 332 332 332 331 328 324 326 322 320 323 324 323 321 317 298 298 301 306 321 321 307 296 296 297 299 299 300 306 319 318 316 315 317 318 320 319 321 324 325 325
331 331 332 332 331 332 330 327 326 322 322 322 321 322 323 322 319 320 321 316 303 308 303 308 305 304 305 306 309 314 319 319 319 318 319 319 322 322 320 321 320 319 318
331 331 332 331 331 327 326 324 326 326 322 323 322 321 323 319 320 312 315 319 316 309 311 316 316 315 315 317 318 320 321 322 321 322 320 321 322 322 323 324 323 322 320
330 330 330 330 330 325 320 319 297 302 303 304 306 316 324 305 298 299 298 297 298 300 316 316 315 316 316 317 318 318 321 318 322 324 324 324 323 322 323 324 323 321 320
329 331 330 327 329 323 321 322 321 308 295 295 298 301 303 303 295 294 295 295 296 306 318 317 319 319 319 319 320 320 321 324 326 326 325 325 325 324 321 322 321 321 321
331 311 330 331 331 328 326 327 327 325 321 321 299 304 294 294 293 293 294 301 315 315 320 319 319 322 322 321 321 322 323 323 325 326 326 326 325 324 322 322 322 322 322
329 329 331 331 331 327 329 328 328 328 328 325 315 303 294 291 291 292 296 324 320 320 322 321 321 322 322 322 322 325 326 325 325 326 326 326 326 325 323 323 322 303 309
329 313 320 331 330 330 329 327 327 328 327 327 324 321 307 306 313 311 312 323 324 323 325 325 325 324 323 323 324 324 323 323 322 324 326 326 327 326 325 325 325 323 323
327 327 310 330 329 330 329 327 327 327 327 326 328 321 299 324 323 320 319 322 324 326 325 325 326 327 326 326 325 324 322 322 321 324 327 327 327 326 327 326 326 326 326
327 327 327 328 329 329 329 329 327 326 327 327 328 317 292 324 326 324 323 323 326 329 329 328 326 326 328 327 327 325 323 323 325 327 327 327 327 327 327 326 326 326 326
327 326 327 327 328 315 326 328 327 327 325 327 328 322 314 323 327 327 327 327 328 329 330 330 329 327 328 328 329 329 327 327 329 329 328 328 327 327 327 326 326 325 325
327 326 326 326 326 326 327 328 327 313 325 325 326 326 324 326 328 329 329 330 329 330 330 330 330 330 330 330 329 329 329 329 330 329 330 328 328 323 327 326 325 325 325
326 325 325 325 324 325 325 326 326 326 325 326 327 326 327 326 326 327 329 330 331 330 330 330 331 331 331 331 331 331 319 295 319 312 329 329 328 327 326 326 327 327 328
319 319 318 319 320 321 321 321 322 323 323 323 324 324 324 325 325 325 325 326 326 328 328 329 329 330 330 330 330 313 297 293 307 294 323 328 328 327 327 327 327 326 326

GFSGL_sfc_thetae_057.txt.gz
Theta_e
348 349 349 348 348 347 346 344 345 345 343 340 340 340 339 337 338 338 337 337 333 336 336 334 334 336 338 339 337 333 339 337 331 329 329 331 333 336 337 342 338 338 329
347 347 346 345 344 344 343 343 344 342 341 339 339 337 335 334 336 337 335 335 333 333 333 333 332 335 335 337 340 337 337 336 332 325 325 325 327 334 338 334 331 333 330
344 343 343 343 343 342 342 342 340 339 338 337 336 334 333 333 336 337 335 334 334 334 334 330 330 332 330 337 335 334 340 338 336 326 321 322 322 327 327 326 325 325 323
341 341 341 341 341 340 340 339 338 338 336 335 334 333 332 333 335 334 335 334 334 332 331 329 327 325 329 331 329 335 337 335 334 325 320 320 319 321 322 318 316 319 319
338 338 338 339 338 337 337 338 338 337 336 334 333 332 333 332 330 336 335 335 334 331 329 328 328 326 322 322 332 336 335 335 327 321 321 319 316 316 316 318 315 316 316
337 335 334 335 336 337 338 338 337 335 335 333 334 335 336 328 306 313 325 336 334 331 327 326 327 321 320 314 316 315 329 332 328 323 321 317 317 316 317 316 314 312 309
333 331 333 334 335 335 336 336 335 337 339 336 336 335 335 334 306 308 310 336 334 333 327 325 324 326 323 329 316 314 314 314 320 329 323 320 316 317 317 316 316 316 313
331 331 332 333 334 335 334 334 336 338 337 338 336 335 336 328 304 303 307 336 335 334 327 326 324 329 329 328 330 329 330 329 327 328 326 323 322 321 318 318 319 316 315
329 331 332 333 333 333 333 335 340 337 338 336 335 335 335 331 304 304 316 334 332 329 327 326 326 328 307 309 329 327 327 327 308 308 309 305 303 305 313 317 314 313 311
329 331 333 333 334 333 335 336 337 337 337 336 333 335 322 332 303 302 315 333 328 325 324 320 308 321 302 304 329 330 325 324 324 320 317 310 313 311 308 318 316 313 312
331 332 333 334 335 337 338 338 337 335 335 336 333 334 333 329 324 302 306 332 328 324 324 324 320 302 300 302 307 333 325 326 316 321 320 318 317 318 319 320 321 317 315
331 331 333 334 333 334 337 338 335 335 332 333 331 331 331 332 311 305 305 308 314 325 326 326 318 298 298 301 310 301 303 315 325 321 318 317 316 317 318 323 322 320 323
331 331 334 334 334 335 334 334 331 333 331 330 330 325 327 330 328 302 302 304 304 327 325 302 296 295 296 302 299 302 306 326 323 319 318 318 319 320 320 322 322 322 329
330 331 334 332 331 334 333 336 334 332 329 327 327 325 326 328 329 328 324 319 307 315 309 315 304 303 303 307 312 314 325 324 321 319 318 320 321 321 319 324 322 323 326
331 330 331 330 334 334 334 332 334 334 326 333 330 326 326 325 323 317 321 324 327 316 317 319 316 314 312 315 319 323 323 323 323 321 321 319 319 320 320 324 325 325 323
330 329 329 329 330 331 331 329 297 299 298 299 302 316 322 305 298 300 301 298 300 300 320 318 316 315 315 317 317 319 321 319 322 321 320 318 318 320 320 322 326 325 323
331 332 329 327 328 328 329 329 326 314 298 296 296 299 305 301 297 296 295 296 296 306 320 318 316 316 317 318 318 318 319 323 323 322 322 322 322 323 321 323 324 324 323
331 312 329 330 329 327 330 329 327 325 324 325 301 305 296 295 294 294 295 303 316 313 322 320 318 318 318 318 320 320 321 322 324 325 326 326 327 326 323 323 324 324 324
330 329 329 330 329 325 329 330 328 327 325 323 322 308 298 292 293 294 296 322 321 319 321 324 322 320 321 321 322 323 326 326 326 327 328 327 327 324 324 325 325 307 312
330 314 317 329 329 329 329 327 328 327 326 326 324 324 315 312 317 318 321 321 325 323 325 327 325 323 322 324 325 326 327 326 327 327 328 328 327 327 326 326 326 324 323
329 328 310 329 328 328 328 327 328 328 327 327 327 323 304 326 324 324 325 326 326 326 326 328 328 328 327 326 326 327 327 327 327 328 328 327 329 327 328 327 325 324 322
328 327 329 328 328 328 327 330 330 330 329 328 329 319 297 323 328 327 327 328 329 328 329 330 329 328 329 328 328 329 328 328 328 329 329 328 329 329 328 326 325 325 325
327 326 327 328 328 315 325 326 327 329 328 330 328 324 323 327 329 330 329 331 332 331 332 332 330 329 330 331 331 331 329 329 330 331 330 329 329 329 328 327 326 325 325
327 327 326 327 327 328 327 327 325 314 325 329 327 327 328 330 330 330 331 332 332 332 332 333 331 330 331 332 332 333 333 333 334 332 333 331 330 325 329 329 328 328 329
326 327 326 326 326 326 327 327 327 326 325 327 327 327 327 328 329 329 330 330 331 331 331 330 329 327 314 311 307 303 291 288 308 296 332 333 331 331 329 328 328 328 328
330 328 327 328 327 327 325 322 323 326 326 324 322 322 322 320 321 323 322 320 321 316 317 313 310 312 308 303 298 288 287 287 294 287 312 330 330 329 329 328 327 327 327

GFSGL_sfc_thetae_060.txt.gz
Theta_e
350 352 352 353 351 350 350 348 348 348 345 343 343 341 337 337 338 338 337 335 335 333 333 332 332 334 333 332 332 329 328 327 322 325 328 330 330 330 333 330 332 329 324
350 350 350 349 348 347 346 347 346 345 343 341 341 337 336 337 338 336 335 335 332 331 332 332 329 334 331 332 330 327 328 328 326 320 323 324 327 330 332 331 331 331 327
347 346 346 345 344 345 344 344 343 343 341 339 339 334 335 335 334 336 335 332 334 332 332 330 330 331 327 329 330 328 329 329 328 321 319 322 322 327 325 325 324 323 323
344 342 341 342 343 343 342 342 342 340 339 339 338 335 333 335 334 334 333 333 333 330 330 328 326 324 325 326 328 328 329 326 326 319 319 318 320 322 321 318 316 319 319
340 340 341 342 342 341 339 339 339 340 338 336 335 333 335 332 331 333 332 333 332 329 329 328 326 325 321 319 325 326 327 326 322 319 318 317 316 317 316 317 315 316 317
337 337 340 338 337 337 338 339 340 338 338 334 334 332 329 326 307 312 329 334 333 329 326 325 324 321 319 314 316 317 322 326 320 320 317 315 315 316 317 315 315 313 310
337 336 335 335 335 336 338 337 337 339 336 335 337 336 332 325 304 307 312 334 331 331 327 323 323 326 322 326 314 315 315 316 320 323 317 317 315 317 317 315 315 314 312
333 331 333 334 334 335 335 336 337 337 337 338 336 335 334 319 304 305 309 335 333 331 325 325 323 326 326 327 327 326 326 326 325 326 322 319 319 319 319 319 317 315 315
330 330 332 335 334 334 333 335 338 336 336 335 335 333 331 323 305 304 313 333 330 326 326 324 325 327 308 308 327 325 323 318 307 305 306 305 304 305 314 318 314 312 310
329 330 332 334 334 331 333 337 337 337 336 337 334 334 322 324 304 304 314 331 326 323 323 319 307 320 301 304 328 326 319 318 316 315 313 309 311 308 310 320 317 312 311
331 331 334 335 333 336 336 338 336 335 335 334 332 331 333 328 316 304 304 330 324 322 323 321 321 300 300 302 309 326 319 320 313 317 316 316 316 317 317 318 318 316 314
331 332 335 334 332 335 336 335 336 335 333 332 330 330 331 329 312 304 304 309 315 324 323 325 315 298 298 303 313 302 305 313 320 317 315 314 315 315 317 318 318 319 320
332 333 334 335 333 334 335 335 332 333 330 330 328 327 326 327 322 301 301 304 307 319 316 301 297 296 297 303 299 303 305 321 319 316 314 315 316 318 320 318 318 319 319
333 333 334 333 332 334 335 335 331 332 329 329 326 325 325 327 326 325 317 313 306 312 309 309 304 305 306 306 309 316 324 322 319 317 316 318 318 318 318 318 317 318 320
334 333 333 332 331 334 325 325 333 319 320 327 331 325 323 322 324 319 320 325 324 313 314 317 315 314 317 319 320 322 322 320 319 318 318 317 317 317 317 322 319 318 319
331 332 331 330 333 331 328 321 296 298 296 296 303 320 313 305 300 300 299 299 300 300 318 315 313 314 315 317 319 320 321 317 320 319 318 318 318 316 317 320 322 321 319
330 331 328 329 329 329 329 327 321 309 296 295 296 299 304 299 297 297 296 295 297 303 318 316 315 315 316 317 319 319 319 321 321 320 319 319 319 319 315 318 321 322 321
334 314 328 326 330 329 328 328 325 323 322 318 299 302 295 295 294 294 296 304 317 316 319 317 316 317 317 318 318 318 320 321 322 321 319 318 318 319 318 319 321 320 321
332 329 329 326 327 326 328 328 325 324 323 320 315 305 296 292 293 295 297 321 319 319 321 319 318 318 319 320 320 321 321 321 321 323 323 322 323 322 321 321 321 305 309
331 316 316 327 326 330 329 326 327 326 325 323 322 317 312 309 314 314 319 323 322 322 323 323 320 320 320 321 321 322 324 321 323 325 325 325 325 324 323 322 323 322 321
329 328 308 328 327 328 329 329 329 327 326 324 324 318 302 322 320 321 320 322 325 324 325 324 323 322 322 324 324 325 325 326 326 326 326 326 326 324 325 324 324 324 323
328 326 327 326 327 328 329 330 331 329 328 326 325 313 297 320 324 324 325 326 327 328 329 327 326 326 324 324 326 326 326 326 327 327 326 326 326 326 326 325 325 323 322
327 326 327 325 327 315 325 330 331 329 327 327 324 320 318 323 325 326 326 328 327 328 330 328 327 327 329 328 328 327 326 326 327 328 327 326 326 326 326 325 325 323 322
327 326 326 324 326 325 326 327 328 316 328 326 324 323 324 324 325 327 327 328 331 321 318 323 308 308 307 305 306 305 299 297 310 321 328 327 326 320 326 326 324 323 323
326 325 325 324 325 326 325 325 328 327 327 326 326 327 320 319 321 321 316 315 313 308 305 305 306 302 298 296 296 295 288 286 296 292 321 326 328 328 327 326 325 324 324
323 327 326 323 323 325 325 323 323 321 320 321 320 318 317 312 310 314 313 311 308 306 302 298 297 297 295 293 290 287 287 288 293 288 310 325 326 326 325 324 325 324 324

GFSGL_sfc_thetae_063.txt.gz
Theta_e
340 340 341 342 345 345 343 342 342 342 342 341 338 334 333 333 331 329 327 329 327 326 327 326 325 325 325 324 323 323 322 320 316 320 322 324 327 328 329 327 326 325 323
342 343 343 342 342 340 338 337 339 339 339 336 335 332 334 334 333 328 328 328 327 325 325 325 325 329 323 324 321 322 322 322 319 316 322 320 323 328 328 328 327 327 326
344 342 341 342 340 337 334 334 335 333 332 333 331 330 332 333 328 328 329 327 327 326 325 324 323 324 323 325 324 321 322 326 320 318 318 320 323 326 323 323 323 322 324
340 339 338 338 338 335 334 332 333 331 330 330 329 331 331 330 328 329 329 328 327 325 325 323 321 322 321 324 325 322 324 322 319 317 318 317 320 321 321 318 317 320 319
339 338 337 337 335 334 332 331 330 330 330 329 328 327 329 330 330 331 330 327 323 322 322 321 321 322 319 319 325 323 323 320 318 316 317 317 317 318 316 317 316 316 317
336 336 337 335 333 331 330 329 329 328 328 326 326 327 324 324 309 315 327 325 324 322 320 319 321 320 318 315 316 317 321 320 316 316 315 317 316 316 317 316 316 315 311
335 336 335 332 331 329 330 330 328 327 329 328 326 324 321 315 304 308 317 326 324 322 320 320 322 324 321 321 312 315 315 315 316 317 317 317 316 317 317 316 317 314 312
334 333 331 331 330 329 329 327 330 325 328 328 328 323 318 313 303 305 309 325 324 324 322 322 321 322 321 322 320 322 322 319 318 319 318 319 319 319 319 318 315 314 316
328 328 330 331 329 327 327 328 327 325 324 324 326 322 317 312 304 305 314 324 323 323 323 322 322 323 310 306 322 317 314 312 306 307 307 304 303 306 314 316 314 314 311
326 327 331 331 329 326 326 327 326 326 326 327 326 324 315 313 304 304 316 324 320 320 318 318 306 314 301 308 321 316 314 313 313 313 311 306 310 308 309 318 317 313 311
327 327 331 331 330 330 330 328 326 326 325 324 324 323 320 314 309 303 305 321 319 319 317 318 312 299 300 304 309 319 314 315 310 316 315 315 317 317 318 318 317 316 313
326 330 331 330 332 332 329 326 326 325 323 322 322 322 321 316 306 301 304 312 315 320 318 317 309 297 299 300 311 300 303 310 316 315 314 314 314 315 317 318 317 317 319
329 328 328 328 330 328 327 326 326 324 324 321 321 322 321 318 313 300 300 306 308 314 313 308 297 297 298 302 300 301 306 317 315 314 313 314 315 316 318 317 318 318 319
327 327 328 328 327 329 328 326 326 323 324 322 321 322 322 317 315 311 309 308 304 308 303 306 305 306 305 307 308 312 319 316 315 315 314 315 317 317 315 316 314 315 316
327 327 327 327 326 315 310 310 320 311 316 323 321 323 323 321 320 313 313 317 314 309 312 315 317 317 317 317 320 320 319 318 316 316 316 315 315 316 314 316 315 315 314
327 326 326 327 323 319 315 312 296 295 295 303 308 315 313 307 302 301 300 300 299 300 315 315 314 316 317 317 318 317 317 315 317 318 317 316 312 311 313 316 317 313 314
326 326 325 326 324 321 318 316 312 306 296 294 295 300 304 299 297 297 298 297 296 304 315 314 314 315 317 318 318 318 318 317 318 318 317 317 316 313 310 317 317 316 316
327 314 327 327 327 325 323 319 317 316 313 309 298 298 294 295 295 295 296 303 313 312 316 315 315 317 317 318 317 318 319 318 318 318 317 318 317 315 315 316 317 317 317
326 325 326 327 326 323 326 322 321 320 314 310 308 302 294 293 294 295 298 318 316 314 316 317 317 318 318 318 318 319 318 319 319 319 318 316 316 317 317 315 315 303 307
322 312 318 327 324 324 325 321 320 320 315 313 313 310 307 308 313 314 316 319 318 318 318 317 318 318 317 319 319 319 319 316 316 317 317 316 317 317 316 316 316 316 314
320 317 308 326 324 325 323 321 321 320 318 318 314 312 300 317 316 316 317 319 320 320 322 319 319 319 319 320 320 318 317 318 317 320 321 321 320 319 320 320 318 318 317
321 322 324 324 324 325 324 324 323 321 320 319 315 308 292 317 317 319 320 320 323 322 323 323 320 319 319 319 319 320 321 319 321 323 324 323 322 321 320 319 319 319 322
320 323 321 321 323 313 321 325 323 322 321 319 316 314 308 314 318 319 322 321 323 322 316 316 322 318 315 310 308 310 314 314 317 321 323 323 323 321 323 321 321 320 317
320 320 322 321 323 324 326 325 326 312 321 319 317 316 315 317 320 317 309 310 307 306 304 301 301 301 300 300 300 299 296 297 304 311 318 324 324 317 323 324 323 324 324
322 319 320 319 322 324 322 325 325 324 322 320 317 317 318 316 313 308 306 302 301 299 298 297 297 295 294 293 293 293 289 287 296 291 319 323 322 321 323 322 322 322 320
318 318 317 319 321 320 319 319 320 319 317 313 309 307 308 308 306 304 303 299 296 295 294 293 292 292 292 292 290 287 287 288 295 292 306 306 307 305 309 309 309 309 311

GFSGL_sfc_thetae_066.txt.gz
Theta_e
328 329 334 336 338 341 341 340 338 339 338 338 339 336 334 333 330 327 326 327 327 324 324 324 323 323 323 323 321 320 318 317 314 318 320 322 325 327 329 326 325 325 323
334 336 336 338 340 340 341 340 340 339 339 340 338 334 333 333 329 326 326 327 326 324 324 324 323 326 322 322 320 320 319 318 317 316 315 322 325 327 328 325 325 327 325
338 338 337 338 339 337 337 339 340 339 337 337 334 331 330 330 329 328 328 326 325 324 323 322 322 323 320 321 321 320 320 322 317 319 315 319 324 325 323 323 322 322 324
340 339 337 335 335 335 335 335 336 335 334 332 330 329 330 329 329 327 326 325 324 323 323 322 321 321 320 319 321 323 322 319 318 316 315 318 320 321 322 319 318 320 320
338 336 334 334 335 334 333 330 331 330 331 329 327 328 329 328 326 325 326 326 323 321 320 319 319 320 320 319 323 322 322 318 316 313 313 317 317 318 318 318 316 316 317
336 334 335 334 334 333 332 329 328 327 326 325 325 325 325 325 313 314 325 325 323 320 317 317 319 320 317 314 314 316 321 319 316 313 312 317 317 316 318 317 316 315 312
334 334 334 334 331 330 329 327 325 322 322 322 322 324 323 319 305 308 314 324 321 319 317 317 321 322 320 321 311 313 314 313 315 316 315 318 317 318 318 317 318 310 313
333 332 333 331 329 328 327 325 323 323 322 323 322 320 319 311 301 306 309 322 320 319 321 320 318 321 320 320 319 321 321 319 318 318 317 317 319 320 320 320 315 315 316
332 331 330 330 327 327 325 324 322 324 327 325 323 318 315 310 301 303 315 321 323 322 320 322 322 320 306 305 319 318 315 313 304 305 306 305 304 305 313 318 315 314 311
330 330 330 329 327 325 324 324 325 323 323 324 320 317 311 312 301 304 315 323 322 319 317 316 304 314 301 302 315 316 315 312 312 312 311 306 309 308 307 319 318 314 311
329 330 329 328 325 324 324 324 322 323 324 323 321 317 314 313 308 301 306 319 318 316 316 317 311 299 300 300 306 315 312 313 310 315 315 316 316 316 317 317 316 317 313
329 329 328 327 329 327 325 323 324 323 321 320 319 316 314 315 305 300 303 308 311 317 315 315 309 298 299 299 308 298 300 309 316 314 314 314 315 316 316 316 317 315 317
328 328 328 328 328 328 326 324 322 322 321 320 321 319 316 317 311 298 300 300 306 316 317 309 298 296 297 299 298 299 304 316 315 313 313 313 315 317 317 316 317 318 318
328 328 328 325 324 325 326 325 324 322 321 320 320 318 316 315 315 311 309 307 302 306 303 304 304 303 303 306 306 311 316 314 314 314 313 314 316 316 315 316 315 315 316
326 327 326 325 322 315 307 311 322 318 319 321 320 321 319 317 316 307 309 312 314 309 309 312 315 315 313 315 316 315 315 314 314 315 313 314 315 315 314 315 314 314 314
325 326 325 321 317 314 313 308 295 295 295 298 306 317 315 306 300 298 300 298 298 299 315 316 316 316 315 316 317 316 316 313 315 316 315 314 315 314 314 314 315 313 314
326 325 322 320 318 316 315 314 310 305 296 293 295 299 305 302 298 296 296 296 296 303 315 314 315 317 317 318 317 316 315 316 317 317 316 315 313 313 312 314 314 314 314
327 315 324 322 320 318 317 314 314 315 312 311 297 296 294 298 296 295 295 301 312 310 315 315 315 317 318 317 318 317 316 317 317 317 317 316 315 311 311 313 315 314 315
326 326 325 324 322 318 319 317 315 313 313 309 309 301 294 292 293 295 298 317 315 314 315 316 317 317 318 318 318 319 318 317 317 317 317 317 317 313 312 314 314 303 306
325 315 319 324 322 322 319 318 317 313 312 313 312 310 306 308 313 314 316 317 317 315 317 317 317 318 318 319 318 318 316 316 318 317 317 316 317 317 316 314 315 315 313
322 320 308 323 323 322 320 318 318 314 313 313 313 310 298 316 315 314 315 317 318 318 318 318 318 318 319 319 318 318 318 318 316 316 318 317 317 316 317 316 314 314 314
322 322 324 324 323 322 320 319 318 316 315 313 313 309 291 313 315 314 318 318 321 322 323 320 318 318 319 319 319 318 317 317 319 319 320 321 320 317 316 316 316 315 315
322 323 325 324 324 310 319 320 319 318 317 314 313 312 307 312 317 319 320 317 314 311 315 318 316 309 307 306 307 310 318 318 316 317 322 323 322 320 320 318 317 316 316
322 323 320 320 321 322 322 320 319 310 316 315 314 312 312 314 313 308 306 304 305 303 301 301 299 300 299 299 300 299 298 299 304 311 314 322 322 316 321 322 322 321 321
317 318 322 321 321 324 323 322 319 319 319 316 316 314 311 307 303 302 301 299 296 295 295 296 296 295 294 294 295 295 292 288 300 297 310 311 314 314 314 313 316 313 313
312 315 319 319 321 323 322 320 319 317 313 311 308 306 304 302 300 297 296 295 294 293 293 292 293 293 292 291 290 289 288 290 294 291 306 307 307 308 308 308 309 308 307

GFSGL_sfc_thetae_069.txt.gz
Theta_e
318 322 324 327 329 331 334 336 336 336 337 338 337 336 335 334 333 331 329 326 325 323 322 322 322 321 320 320 319 318 316 315 311 319 322 323 321 325 326 324 326 324 322
320 325 327 329 332 333 335 336 336 336 338 338 337 335 335 335 332 329 327 326 325 323 323 322 321 323 320 320 319 318 317 316 315 315 319 322 323 326 325 325 325 325 324
324 326 329 332 334 335 336 335 336 336 337 338 336 334 334 332 328 325 326 325 324 323 323 322 321 320 319 319 319 317 319 320 317 315 317 322 323 324 321 322 322 322 322
330 330 332 335 336 336 336 336 337 337 337 335 335 334 332 330 328 326 326 324 324 323 322 321 320 320 320 319 319 318 318 317 317 315 318 319 320 322 322 319 317 320 320
334 333 333 335 334 335 336 336 335 336 335 335 332 330 328 327 328 326 324 323 322 321 320 320 319 319 320 318 319 319 319 318 318 316 313 317 317 318 318 317 315 316 317
334 333 333 333 333 332 332 332 332 332 331 330 328 327 324 325 309 312 321 322 323 323 317 316 316 317 316 315 314 316 320 319 317 314 310 317 317 317 318 317 316 316 313
333 333 332 333 332 331 331 331 329 327 326 324 323 323 322 320 305 308 313 324 321 318 316 315 317 321 319 320 311 311 312 312 315 317 313 314 318 318 319 317 314 311 313
332 331 331 331 330 330 328 326 322 323 323 321 320 321 318 313 302 304 307 320 318 317 315 318 319 320 320 320 318 321 321 320 319 319 318 316 316 320 321 320 315 315 316
331 330 331 331 328 327 325 323 321 321 320 319 319 316 314 312 300 301 314 319 318 317 317 318 319 320 308 305 321 320 317 314 305 305 306 304 302 305 313 317 315 314 311
330 330 330 330 328 325 324 322 320 323 321 321 319 318 310 311 300 301 315 324 321 320 318 315 303 314 300 301 319 318 315 313 313 313 313 307 308 308 307 320 318 314 312
331 331 330 328 326 325 323 323 321 321 320 318 315 313 312 311 308 301 304 322 320 318 316 313 313 299 298 298 306 317 313 313 310 315 315 315 315 315 317 317 319 317 313
325 328 325 324 326 325 322 324 324 322 320 316 314 312 314 314 304 301 301 306 308 315 313 314 311 296 295 298 307 297 300 309 316 315 315 314 314 315 316 317 317 316 316
326 325 324 324 324 324 322 321 321 321 320 319 317 315 315 315 310 299 298 298 302 314 314 309 297 296 295 299 298 299 303 315 315 314 313 313 315 317 316 316 317 318 318
325 325 324 323 322 324 324 323 321 320 320 320 319 315 316 315 314 311 308 307 302 306 303 305 304 303 303 303 305 310 314 313 314 314 313 314 316 316 315 315 315 316 313
325 324 323 323 323 317 309 314 321 319 319 321 320 319 316 316 316 309 311 314 314 308 309 311 314 313 311 312 315 315 314 311 314 314 314 314 314 315 314 315 313 311 311
325 324 324 321 319 315 313 308 295 295 297 300 304 314 315 306 298 297 298 298 297 299 314 315 314 314 313 314 315 313 313 311 314 315 314 314 314 313 313 314 315 313 314
325 323 321 317 319 317 316 315 310 302 294 293 297 301 305 301 296 295 295 295 295 302 315 315 315 315 315 317 316 315 313 315 316 315 314 314 314 314 312 313 314 313 313
324 309 322 320 318 317 315 314 314 313 312 310 296 297 294 295 294 293 294 300 310 310 315 315 316 317 318 317 316 315 315 316 316 316 315 314 314 313 313 313 313 313 313
323 323 323 320 318 314 315 315 313 313 313 308 305 299 293 292 293 294 297 315 314 313 314 316 317 318 318 318 318 317 316 316 315 316 316 316 314 313 312 313 314 302 305
325 308 315 319 317 316 316 314 314 314 313 314 314 309 304 307 310 313 316 316 315 315 316 316 317 318 319 319 318 318 317 314 316 316 315 316 316 315 313 313 314 314 313
324 320 304 320 320 318 317 314 314 314 314 314 313 309 297 316 315 315 316 316 316 316 317 317 317 319 319 320 319 318 316 317 317 316 317 317 317 316 317 316 315 315 314
324 320 322 321 321 319 318 316 314 314 314 312 312 304 293 316 316 316 318 319 320 321 320 318 318 318 320 320 319 318 317 318 318 317 318 318 317 317 316 316 316 315 314
325 323 322 322 321 307 316 316 314 314 313 312 312 310 311 315 317 318 316 311 309 309 310 314 313 308 307 307 308 312 317 318 317 319 319 320 319 319 317 315 315 313 313
322 323 322 321 318 318 317 316 314 306 312 312 311 312 314 313 307 303 303 304 302 301 300 299 298 299 300 300 301 301 301 303 307 312 315 320 322 314 320 320 320 319 316
318 322 321 320 319 319 317 317 316 315 314 313 312 309 304 303 301 299 298 299 298 298 297 295 294 293 293 293 294 294 289 288 300 299 313 314 313 312 312 314 313 312 310
312 316 317 321 321 321 319 317 316 315 314 311 305 301 299 296 296 295 295 294 293 293 292 292 291 291 290 290 288 287 288 289 294 290 305 308 308 308 308 307 306 305 304

GFSGL_sfc_thetae_072.txt.gz
Theta_e
316 315 322 325 327 327 329 332 335 336 338 338 339 338 338 336 336 335 334 331 329 328 328 327 326 326 326 326 325 324 323 322 319 322 324 326 326 327 326 327 328 326 326
314 316 322 325 327 328 330 333 335 336 339 339 339 338 336 335 335 334 331 331 328 327 326 327 326 326 326 326 325 324 324 323 322 319 322 324 324 327 325 325 326 326 327
316 320 322 326 328 329 331 334 336 337 338 339 338 337 335 335 334 333 331 329 329 328 327 326 326 326 325 325 325 324 324 323 323 320 320 324 324 325 323 324 324 323 323
318 321 325 327 330 331 333 334 336 337 337 338 337 337 336 335 333 329 329 328 328 328 327 327 326 325 325 325 325 325 324 323 322 320 320 321 322 323 322 319 317 320 320
321 323 326 330 332 334 334 335 336 337 338 337 336 335 334 333 330 328 328 329 327 326 325 325 325 324 321 322 325 325 323 322 321 320 320 320 319 320 318 319 319 319 319
328 326 331 333 334 335 336 336 336 336 336 335 334 333 331 331 310 313 323 327 326 325 323 323 323 319 316 312 312 315 322 322 319 318 317 317 320 319 318 318 318 319 317
331 332 333 334 333 334 335 335 334 334 333 332 331 331 328 326 306 308 312 327 326 326 323 321 321 322 320 321 311 311 313 312 315 319 318 320 320 320 320 319 320 319 316
332 332 333 333 332 333 334 333 333 330 330 330 329 328 325 318 304 303 308 326 324 323 322 321 322 323 322 322 319 321 323 320 320 321 322 322 325 325 324 323 319 317 318
331 331 332 332 331 332 331 328 328 327 327 326 325 322 321 315 299 300 316 324 322 321 321 321 322 322 308 304 320 321 319 316 305 304 305 306 304 306 315 319 317 317 313
330 331 331 330 330 329 327 326 326 327 324 323 320 321 312 313 298 301 315 323 321 320 320 318 305 315 300 301 323 320 317 315 315 316 315 309 308 309 308 322 321 316 315
328 331 330 329 327 326 325 325 324 323 321 319 317 317 317 313 308 301 305 325 322 321 320 319 317 300 298 299 307 321 316 315 312 317 317 317 317 318 321 323 324 320 319
324 326 329 327 326 326 324 324 322 320 317 316 315 313 315 315 305 301 301 306 313 322 319 319 311 297 296 297 307 297 300 309 317 317 316 315 315 316 318 320 320 320 320
324 327 325 326 326 325 324 322 321 320 317 316 315 313 314 315 311 299 298 297 302 318 319 310 297 295 295 299 297 299 303 317 317 316 315 315 317 318 318 318 319 320 319
319 321 325 323 323 324 324 323 322 320 320 318 317 315 316 316 315 311 308 308 303 307 303 306 304 303 303 302 305 310 316 317 316 315 314 316 317 316 315 316 317 317 316
319 324 323 323 322 314 306 314 323 321 320 321 319 318 316 316 317 309 310 315 316 309 309 313 314 312 311 313 315 315 315 317 316 315 315 315 315 315 314 316 316 316 315
323 322 322 321 318 315 314 309 294 297 299 302 304 314 317 306 299 298 299 299 297 299 314 315 314 313 312 314 314 314 314 312 317 316 316 315 314 314 314 315 315 316 318
323 322 320 318 318 317 317 317 310 301 295 295 298 301 303 300 297 296 296 295 295 302 316 315 315 314 314 316 314 314 314 315 317 316 316 316 315 314 312 314 314 316 316
323 308 321 320 320 319 319 318 317 317 316 312 297 298 294 294 294 293 293 299 309 311 317 316 316 316 317 317 317 316 316 316 317 316 316 316 316 314 314 313 314 313 314
323 322 321 320 319 315 317 317 317 317 316 310 306 299 293 292 292 294 297 316 315 314 316 317 319 318 318 318 318 318 318 317 317 317 316 316 316 315 314 315 314 302 306
322 306 313 318 317 317 317 316 315 314 313 315 313 308 303 307 309 309 315 317 316 316 317 317 318 319 319 319 319 318 318 315 317 318 319 317 316 316 315 316 318 317 316
321 318 302 319 319 318 317 317 316 316 316 315 312 308 297 316 314 316 316 316 316 317 318 317 319 320 321 320 319 319 318 318 318 318 318 319 318 316 317 318 317 317 316
322 320 322 320 319 318 316 317 317 315 314 313 311 304 293 318 317 318 318 318 320 320 320 319 319 319 320 320 320 318 320 319 319 319 318 319 319 318 318 317 317 317 315
323 323 322 321 319 307 315 315 315 315 314 313 313 314 316 317 317 315 311 308 307 306 309 313 312 309 308 308 311 317 319 321 320 322 321 320 319 319 318 317 316 315 318
324 323 322 319 319 318 316 315 314 306 313 313 313 314 316 310 306 305 303 302 301 299 300 299 299 300 300 301 302 302 303 302 306 313 315 317 323 317 322 320 319 319 320
324 323 321 319 319 318 316 316 313 313 313 313 313 307 305 303 301 300 299 298 298 296 295 295 295 294 293 295 294 295 288 287 301 299 316 319 316 317 319 320 318 314 311
321 321 321 321 320 319 318 316 315 313 312 309 304 302 301 298 297 296 296 294 293 292 292 292 292 291 291 291 290 287 288 288 293 290 303 304 304 306 305 304 303 302 300

GFSGL_sfc_thetae_075.txt.gz
Theta_e
320 322 323 326 328 333 337 340 341 346 347 345 347 348 348 349 350 349 348 346 342 337 341 340 339 340 336 335 335 334 332 330 326 328 328 331 330 331 332 332 332 336 334
320 324 326 327 329 334 337 340 343 345 345 345 347 347 348 349 349 347 346 343 336 335 336 339 337 335 337 337 335 335 333 333 330 329 326 327 328 328 331 329 329 332 337
314 323 330 327 328 334 338 341 343 343 344 345 346 347 347 347 347 347 345 342 336 335 338 338 336 337 336 334 334 334 334 333 332 329 327 328 327 327 326 327 326 328 328
311 320 329 330 330 335 338 341 343 344 344 345 346 346 347 346 345 345 342 337 336 337 338 338 336 336 336 335 335 335 335 332 331 329 327 325 325 326 328 323 323 325 324
309 314 330 331 333 335 337 340 344 344 344 345 345 347 347 346 342 342 340 337 338 337 338 337 338 333 326 329 334 335 334 331 330 328 324 323 323 322 324 323 320 320 323
309 311 327 328 330 335 339 341 343 343 344 345 345 345 345 342 312 316 330 338 337 336 335 335 335 323 321 313 312 314 327 332 330 325 325 323 324 323 321 322 321 320 318
308 311 326 328 331 336 338 340 341 341 343 344 345 344 344 342 308 310 315 338 337 337 336 334 332 331 326 330 313 311 312 313 316 332 323 322 324 324 322 319 321 324 322
309 316 328 330 333 337 338 337 338 338 341 341 342 344 343 337 308 306 311 338 337 337 336 335 334 332 330 328 328 327 329 325 324 325 323 324 330 331 326 324 324 322 323
324 329 330 334 335 334 334 334 335 337 338 340 340 335 333 326 303 302 319 336 335 334 333 333 332 331 308 305 327 327 325 320 307 305 307 309 307 310 321 327 324 322 319
330 330 334 335 334 334 334 334 336 338 336 332 332 334 323 326 298 303 320 333 332 330 331 328 307 321 300 301 329 326 322 318 319 318 316 311 312 314 308 329 327 322 320
325 332 336 338 337 334 333 335 335 331 328 329 328 332 330 325 312 300 305 334 332 330 328 327 326 302 298 298 306 326 322 323 314 320 322 321 322 321 324 327 329 328 323
324 331 333 335 334 333 334 333 329 328 325 328 325 321 320 321 308 300 303 311 316 331 327 329 321 297 296 298 309 298 300 311 323 320 321 320 318 319 322 324 328 329 326
328 328 330 332 331 332 331 333 330 328 329 325 323 319 319 320 316 298 299 301 309 327 329 314 298 295 295 301 297 299 304 323 323 320 319 319 320 322 324 322 323 324 323
322 326 327 327 327 330 330 331 329 328 327 325 323 321 320 319 319 318 315 313 304 313 306 312 307 305 302 307 308 313 323 323 321 319 319 320 320 320 319 320 319 320 320
321 324 324 325 324 318 315 325 329 330 325 325 325 324 321 320 320 314 317 323 325 315 315 317 316 316 314 315 318 320 321 322 322 319 318 318 317 317 316 318 319 319 318
325 323 323 320 319 318 319 314 296 300 300 301 306 319 324 307 299 298 299 298 298 300 319 319 317 316 315 316 317 318 319 316 322 318 318 317 316 315 314 316 318 317 322
323 325 324 320 322 324 324 321 315 304 295 296 297 298 303 303 297 297 296 295 296 302 321 320 318 316 316 317 319 319 317 320 322 320 319 317 316 316 313 315 315 318 319
325 309 323 324 325 325 326 325 323 319 317 314 296 301 295 295 295 295 294 300 310 313 321 319 321 318 318 320 318 317 319 318 319 319 320 319 317 315 317 318 318 320 319
324 325 326 326 326 324 327 326 326 324 320 313 309 300 294 292 292 293 296 321 317 317 318 319 321 322 320 320 320 321 319 319 318 319 319 319 319 317 315 316 315 302 306
326 308 317 325 324 327 327 327 326 323 320 320 318 307 304 308 311 312 318 320 323 321 320 320 323 321 320 322 321 321 320 321 322 322 320 319 319 319 317 317 316 316 318
325 323 307 327 327 328 328 326 325 324 323 318 312 309 298 317 313 315 316 319 319 320 323 321 320 321 321 326 324 322 322 320 322 321 321 322 319 317 318 318 319 323 323
326 326 328 328 328 327 326 324 324 321 318 313 312 305 292 319 318 319 318 319 321 323 324 323 323 322 323 322 321 320 321 321 322 321 321 321 323 321 320 322 322 321 320
328 328 327 327 326 312 321 322 319 318 316 316 318 318 319 319 317 312 309 306 309 311 309 313 312 310 310 312 315 319 323 326 325 326 321 320 320 321 320 319 318 318 321
329 328 327 324 324 321 320 318 317 310 317 318 318 318 315 311 307 305 304 302 301 302 301 300 300 301 303 308 304 306 311 313 319 327 323 326 325 319 324 320 320 319 318
329 328 327 325 324 320 316 317 317 318 317 317 314 310 307 303 302 300 299 298 298 299 297 296 295 296 297 299 301 300 292 288 307 300 320 317 317 316 318 314 310 308 307
329 328 327 327 325 324 318 315 315 316 313 309 306 305 301 298 297 295 294 294 293 294 295 294 293 292 293 290 288 287 286 288 294 290 306 308 306 304 304 302 301 301 300

GFSGL_sfc_thetae_078.txt.gz
Theta_e
319 321 324 326 328 329 332 333 339 346 345 344 350 353 353 351 353 355 357 353 351 350 349 346 347 347 342 338 338 336 334 333 327 334 337 334 335 337 336 339 339 341 336
319 320 323 326 329 333 333 337 340 341 343 341 348 349 348 350 354 354 352 350 349 348 346 346 344 343 343 342 338 339 336 337 331 332 332 331 333 335 333 333 337 339 338
317 319 321 322 326 332 336 338 339 343 342 343 346 347 347 349 352 353 351 350 349 347 346 345 344 343 340 338 338 336 335 335 335 331 331 331 332 330 328 330 332 334 335
317 317 319 322 322 330 337 337 339 338 339 343 346 347 347 349 351 351 351 350 348 347 346 346 342 340 340 339 338 337 337 335 334 332 332 328 329 329 330 325 327 329 327
315 316 318 321 322 329 336 337 339 340 340 344 346 347 348 349 348 350 350 348 347 345 346 342 342 337 329 332 336 338 339 334 334 328 329 326 327 326 326 326 325 327 326
313 315 317 320 322 327 338 337 339 340 343 345 346 346 348 346 316 320 339 347 345 342 340 339 340 328 326 317 315 315 325 337 334 331 332 328 328 328 330 327 323 321 319
312 314 315 319 322 327 336 336 341 346 352 352 351 349 349 350 312 312 319 346 342 340 339 339 337 335 331 335 314 311 312 312 315 336 332 332 331 327 328 326 327 322 322
308 310 314 319 322 329 335 338 345 351 352 352 351 351 350 340 309 310 314 342 341 341 340 340 339 338 336 334 334 332 333 332 331 331 332 333 331 329 331 330 326 327 327
307 311 316 320 322 332 334 342 349 351 351 351 350 350 347 332 306 307 322 340 339 338 339 339 338 337 311 306 332 330 330 329 310 305 308 309 306 309 322 326 321 322 322
313 318 320 321 326 334 341 344 347 349 348 345 346 347 331 335 301 306 321 334 335 335 338 338 308 325 302 302 332 331 325 326 323 319 319 314 312 317 309 334 326 323 322
309 312 318 331 335 337 339 339 340 340 342 343 342 343 343 334 317 304 304 334 333 333 333 333 332 301 300 300 303 333 327 328 317 321 321 322 328 329 330 333 334 332 326
323 329 331 333 334 335 336 337 338 339 338 338 338 336 335 335 312 302 303 308 320 334 333 333 327 299 298 298 308 301 303 312 325 323 322 321 323 324 327 332 333 336 332
323 327 331 333 334 335 334 334 335 339 333 332 333 328 331 331 325 300 301 303 304 333 334 310 299 296 296 304 298 299 302 325 326 325 323 323 324 324 326 330 330 327 331
320 326 329 332 332 334 336 339 338 336 334 330 327 330 329 328 326 328 326 325 308 321 310 319 311 309 303 313 311 312 325 327 323 322 322 325 326 323 322 323 323 327 325
323 324 326 328 328 326 325 335 338 340 331 333 333 330 328 328 328 321 323 331 331 321 324 323 323 323 322 320 322 325 328 327 324 323 323 322 322 321 320 322 323 323 321
323 323 320 321 324 327 327 318 299 304 302 303 308 323 329 311 302 300 297 298 301 302 325 325 321 322 320 322 323 325 326 320 322 322 321 321 320 319 318 318 322 320 321
323 323 323 323 328 328 330 326 319 311 297 295 297 302 307 304 298 298 296 296 297 302 326 323 321 322 323 322 325 325 324 326 326 323 323 321 320 318 314 315 317 319 317
324 309 327 328 327 329 327 326 323 324 322 320 299 303 296 296 296 295 296 302 317 318 324 323 323 322 323 321 325 325 325 325 325 323 321 320 319 316 315 315 315 319 318
321 325 329 331 330 326 329 328 327 327 323 317 314 302 296 293 294 295 299 325 322 322 323 323 325 324 323 324 326 322 324 322 322 322 323 322 320 317 317 320 317 301 309
327 313 320 331 330 329 329 328 326 325 325 326 324 315 308 308 312 315 324 326 325 324 323 323 325 327 323 326 322 325 323 323 323 322 322 323 322 321 318 318 317 315 315
325 328 310 330 331 330 330 330 328 327 326 327 323 316 302 326 319 321 325 326 325 324 325 325 325 327 327 326 326 324 324 326 327 325 324 323 320 320 321 320 318 318 321
329 329 329 329 330 330 330 329 329 328 326 323 318 313 294 323 321 319 318 319 322 323 326 326 325 323 323 326 328 327 324 323 325 324 322 324 323 321 319 319 320 320 323
330 329 330 330 329 316 327 327 327 327 324 320 319 320 322 320 316 314 312 318 317 318 318 318 315 313 315 322 321 324 324 326 326 326 325 322 322 324 324 320 322 321 321
329 329 329 329 328 328 327 326 324 315 321 321 321 315 311 308 305 304 302 304 303 301 301 301 302 304 308 307 307 309 312 309 331 327 328 323 322 318 321 320 321 320 319
329 329 329 328 326 325 324 323 320 321 321 317 313 307 304 302 300 300 299 301 298 296 295 296 296 295 297 299 297 297 289 288 312 300 325 323 317 318 316 315 315 311 309
331 330 328 326 322 322 322 320 319 317 314 311 306 302 300 298 296 296 296 302 299 295 294 293 293 292 292 292 292 287 287 289 297 291 309 308 305 303 302 301 300 300 301

GFSGL_sfc_thetae_081.txt.gz
Theta_e
319 320 324 323 326 331 333 335 337 339 340 339 347 351 356 360 362 361 359 355 352 355 356 354 352 355 347 344 341 336 334 334 328 337 337 339 337 338 339 339 341 342 335
317 319 322 322 324 330 332 336 338 339 339 342 346 342 352 356 359 358 353 351 353 354 353 351 346 346 350 351 339 346 341 344 332 335 339 334 335 338 339 337 336 341 340
316 316 322 323 324 328 330 333 339 339 340 342 341 343 348 354 356 356 353 354 355 353 350 348 348 348 347 347 342 341 337 338 341 332 335 333 334 335 333 332 334 336 334
315 315 319 322 324 326 328 330 336 340 338 340 342 341 346 350 351 353 353 355 354 351 353 351 347 346 345 344 342 342 341 338 338 336 334 333 331 333 331 328 328 331 331
314 313 314 319 322 324 326 327 333 338 341 340 342 344 348 350 349 353 354 354 354 352 351 347 351 343 334 337 339 341 341 335 337 335 332 331 329 328 328 329 328 327 327
313 312 314 316 316 322 326 328 330 336 341 340 339 343 348 348 321 323 344 354 352 349 347 346 345 333 328 321 318 316 329 338 336 335 336 332 331 329 330 330 326 323 321
312 311 311 313 314 316 322 325 329 335 342 342 341 345 349 353 312 314 321 354 351 350 348 345 341 338 333 337 315 313 313 312 318 337 335 335 333 332 333 332 329 329 325
311 309 310 310 311 313 317 323 329 334 340 342 344 350 353 350 310 311 318 353 350 349 347 343 343 340 336 335 334 333 334 334 333 331 334 336 336 329 330 331 329 328 325
311 309 309 309 308 310 315 321 330 336 340 343 348 351 353 337 308 311 327 349 345 344 341 341 340 340 316 311 335 333 333 333 310 306 307 307 306 307 320 326 323 323 321
309 308 308 308 308 312 317 323 331 337 340 345 348 353 337 340 305 310 328 341 340 337 341 336 309 328 303 308 334 333 330 331 329 328 328 318 317 317 309 330 325 321 321
309 309 307 308 310 316 321 327 333 339 343 347 348 350 345 338 324 309 306 342 337 335 334 336 332 302 300 301 303 335 329 329 320 326 327 328 328 327 328 334 336 329 322
310 308 306 308 314 322 327 332 338 341 343 344 343 341 343 339 317 304 305 311 321 335 334 334 323 299 298 300 309 303 305 315 327 325 322 323 325 329 331 335 335 335 330
308 311 314 314 318 318 326 335 337 337 337 337 337 336 334 337 327 302 301 303 309 333 324 314 299 297 298 305 300 301 303 327 328 325 322 322 326 328 331 333 335 333 333
310 323 318 315 313 320 335 336 334 334 336 338 336 334 334 331 330 333 328 324 311 315 310 319 313 312 306 314 316 315 327 329 327 325 325 327 328 327 326 329 328 328 327
316 323 329 332 332 331 327 331 336 343 339 339 338 335 332 330 330 322 326 333 333 323 324 327 326 326 325 324 325 326 326 326 324 325 324 324 324 322 322 326 325 325 324
318 320 322 325 324 324 322 315 298 302 303 305 310 327 330 311 301 300 300 301 303 306 325 325 322 323 323 322 324 326 328 321 324 323 323 323 322 322 320 322 323 324 322
317 322 324 326 332 330 331 328 321 309 299 296 301 305 307 301 297 297 298 299 300 306 326 324 322 322 323 325 326 326 325 325 327 324 323 322 322 323 319 319 319 318 321
322 308 327 332 331 332 331 330 329 328 325 321 300 304 297 296 295 296 298 306 321 318 326 324 322 323 324 325 326 325 326 326 325 323 323 323 322 320 318 316 315 316 320
321 320 326 333 332 327 330 330 329 327 323 317 311 302 297 295 295 297 299 327 325 325 325 324 326 325 325 326 326 327 325 325 323 322 323 324 322 320 318 319 317 302 307
320 308 316 328 329 329 329 328 327 325 325 323 321 311 309 311 314 320 327 326 325 325 326 325 326 326 326 327 327 325 324 323 323 322 322 323 323 321 319 319 320 318 318
321 327 307 327 330 328 329 327 327 327 326 325 322 318 301 320 320 325 327 327 326 325 325 326 325 327 327 328 325 324 325 325 325 323 324 323 323 322 321 321 320 321 320
329 329 332 331 332 331 330 330 329 327 323 324 323 317 295 325 324 325 326 326 326 327 329 328 328 327 328 328 326 325 325 325 326 326 325 325 323 321 323 322 322 321 320
327 330 330 327 330 316 327 329 327 325 324 324 324 323 324 323 320 317 315 319 321 315 312 316 318 318 323 325 328 328 328 327 328 329 325 327 324 323 323 319 321 322 320
329 331 331 330 328 329 329 329 326 314 322 322 319 317 316 314 309 310 308 308 311 308 305 301 302 306 305 307 307 312 309 315 321 328 326 326 324 318 324 324 320 319 319
329 330 332 331 328 326 325 324 324 321 318 315 311 307 305 304 302 301 300 298 297 296 295 295 296 298 298 299 300 301 291 289 314 304 326 322 316 312 310 309 310 307 308
329 331 328 326 324 325 323 320 319 317 312 307 303 301 300 299 298 300 296 295 293 292 291 291 291 291 293 292 290 287 288 289 298 292 314 311 306 303 302 302 301 300 300

GFSGL_sfc_thetae_084.txt.gz
Theta_e
323 325 326 323 323 325 326 327 330 331 331 331 331 330 334 347 352 354 351 350 349 350 351 348 348 349 346 344 342 341 334 333 328 330 336 337 333 333 334 334 335 334 331
322 321 321 326 325 325 325 327 330 331 333 332 331 331 330 337 348 352 351 352 350 349 348 348 348 349 347 345 343 339 334 335 333 327 333 331 331 332 333 332 333 339 335
318 318 321 322 322 322 325 326 327 328 330 333 332 332 332 333 334 349 352 351 349 349 349 349 348 345 344 342 341 338 336 336 334 332 329 332 330 332 329 328 330 330 331
316 317 320 322 321 319 323 326 326 327 326 328 333 334 334 336 335 344 351 350 349 348 350 350 347 344 344 342 340 338 337 334 333 330 329 329 328 329 329 324 326 328 328
316 314 318 320 320 319 319 320 323 324 325 326 329 335 336 336 337 344 349 349 348 347 349 348 346 343 336 340 339 338 336 333 332 329 327 327 326 325 324 325 326 323 325
316 315 316 316 315 316 318 317 318 318 324 326 327 332 333 337 320 318 341 349 347 346 347 347 341 327 321 316 316 317 333 334 331 328 327 325 326 326 328 326 324 321 317
316 315 315 315 313 314 314 314 315 316 319 324 326 329 335 338 317 311 321 348 346 346 345 342 337 336 329 326 314 316 313 315 322 331 327 327 326 328 326 326 323 322 322
315 315 314 313 311 311 312 312 313 313 314 316 324 328 334 337 315 307 316 346 345 345 345 344 339 336 336 334 330 330 330 326 325 327 330 330 331 331 330 326 325 324 323
313 313 313 313 310 309 310 310 312 312 311 313 319 327 333 336 307 307 322 344 343 343 344 342 340 336 315 313 332 329 329 323 308 306 307 304 303 305 320 326 323 320 317
311 311 312 312 311 310 310 310 310 310 311 312 315 326 328 337 304 306 329 343 340 340 339 334 317 332 305 309 332 331 328 328 326 324 323 317 313 314 309 326 324 320 318
312 311 311 311 311 310 309 310 309 309 310 313 317 328 334 337 320 306 318 341 340 336 335 331 325 304 303 302 310 332 327 329 318 325 323 325 327 327 326 326 328 324 321
308 308 307 307 308 308 307 307 306 309 311 315 322 330 336 335 315 308 314 323 323 334 333 334 314 298 298 299 312 305 306 317 326 322 321 322 324 324 327 328 329 330 327
306 305 306 306 305 306 306 305 306 311 313 318 326 330 333 333 318 305 306 311 312 333 335 316 298 297 298 302 299 300 304 326 325 322 320 319 321 326 328 328 329 329 328
306 306 308 312 307 305 307 308 309 316 318 324 329 330 332 326 323 322 316 314 306 310 306 308 309 310 312 311 312 311 325 326 326 324 325 325 326 325 323 325 324 325 324
309 312 314 309 307 305 306 309 317 324 326 330 332 333 328 326 327 320 323 328 328 318 318 321 322 323 322 323 323 323 325 325 324 323 322 323 323 322 320 324 323 323 321
312 320 320 315 314 312 315 314 297 310 307 309 312 326 329 314 305 304 303 304 304 306 323 323 323 323 322 321 323 324 325 321 324 322 322 322 321 320 319 321 322 321 319
318 321 323 320 320 318 319 319 311 306 301 302 302 304 307 302 301 300 301 301 302 309 324 323 322 322 321 321 323 325 324 324 324 323 321 320 320 320 316 318 319 319 318
320 307 329 328 327 327 327 325 326 324 320 315 301 305 300 298 297 298 299 306 319 319 325 322 321 321 321 323 323 324 325 324 324 322 321 320 320 319 317 315 316 317 315
319 320 326 330 331 327 329 328 325 321 315 310 309 302 297 295 297 299 303 324 323 324 324 323 322 322 324 325 326 326 325 324 323 322 320 320 320 317 316 317 316 301 305
320 307 313 329 328 328 327 324 323 321 320 318 315 312 313 315 319 321 325 325 325 325 324 324 325 325 326 324 326 325 322 322 323 321 320 321 321 319 318 318 319 315 315
318 322 303 329 327 326 325 324 324 322 319 317 315 315 301 323 322 324 324 324 324 323 324 326 325 324 326 327 326 324 323 322 322 321 321 322 322 320 320 319 320 318 316
320 325 330 328 327 326 326 327 325 322 319 318 317 310 292 326 325 325 326 325 323 325 329 326 326 327 325 326 325 324 322 324 325 324 324 322 321 321 321 319 319 320 318
322 326 326 327 328 315 327 326 325 323 322 321 321 321 322 319 318 318 318 315 312 310 312 317 321 320 319 321 319 320 323 323 326 326 323 324 323 321 320 317 318 318 319
328 327 327 325 327 327 324 323 321 314 322 323 320 316 312 311 308 308 308 307 302 300 300 301 304 306 308 309 309 308 310 313 325 328 326 323 321 317 322 319 319 319 317
328 326 325 324 325 324 322 320 320 320 317 313 310 307 304 302 300 298 299 297 295 294 294 294 297 297 297 300 300 301 291 290 311 305 320 315 313 310 310 308 307 305 306
327 327 327 326 324 322 320 316 313 311 307 305 303 302 301 297 296 295 294 292 291 291 291 291 291 293 293 293 292 289 289 290 298 294 311 308 305 304 303 302 302 301 301

GFSGL_sfc_thetae_087.txt.gz
Theta_e
314 316 315 314 315 315 318 321 323 324 325 326 327 327 327 325 326 338 340 336 338 342 344 338 334 332 334 342 336 333 330 325 320 323 328 328 327 329 328 330 330 329 328
315 315 315 315 316 315 316 317 319 322 326 327 329 328 328 328 326 328 335 346 344 344 344 344 343 346 342 341 336 332 329 326 324 320 324 325 324 326 328 326 330 334 330
315 312 310 312 310 310 312 315 317 318 320 323 324 325 327 329 328 326 328 335 346 343 344 346 345 343 342 339 334 332 330 330 326 324 322 324 324 325 323 323 324 325 327
311 310 310 311 311 312 314 314 315 318 319 319 321 323 324 325 330 329 329 326 335 347 345 346 344 343 344 340 334 331 329 327 325 323 322 321 321 322 322 319 319 324 327
310 310 308 312 312 311 311 312 313 315 316 316 318 321 322 323 326 331 329 330 329 342 345 346 345 340 334 336 336 331 329 324 323 321 320 320 320 319 318 319 319 323 324
310 309 310 311 312 311 312 312 313 313 311 312 313 314 319 323 314 312 319 330 335 345 342 344 344 328 327 322 323 324 329 326 323 321 320 318 319 320 320 319 318 319 316
311 311 312 311 311 309 310 311 309 308 309 310 311 313 315 319 310 309 312 323 330 341 342 342 336 335 327 327 316 314 317 319 324 324 321 320 320 322 320 319 317 315 317
309 310 311 312 311 310 309 308 306 306 307 308 309 310 311 313 308 307 309 322 330 340 341 339 336 327 327 326 325 325 323 322 321 326 324 323 323 324 322 323 320 320 320
309 309 310 311 311 310 307 306 306 306 306 306 308 309 309 310 304 305 310 323 330 338 340 338 333 330 312 311 327 324 321 316 307 306 306 305 301 304 316 322 320 319 316
309 310 311 311 311 311 310 308 307 306 306 307 307 308 307 308 304 303 309 323 330 337 336 335 317 328 307 310 326 324 320 317 317 315 314 312 310 311 307 320 320 316 316
306 307 306 307 310 311 311 310 307 305 306 305 306 307 308 308 309 303 306 320 332 336 333 330 329 309 305 305 314 325 322 321 315 319 318 319 318 318 320 319 320 319 316
305 305 306 307 309 310 310 310 309 307 304 304 304 305 307 309 307 307 305 303 321 334 330 328 321 304 301 305 314 302 305 314 320 317 317 319 319 320 319 320 321 321 321
304 304 306 307 307 307 307 308 308 307 304 303 303 303 305 310 317 308 302 302 310 331 329 316 301 297 298 303 300 301 307 320 317 314 315 315 316 324 320 320 321 323 322
302 303 304 304 304 305 306 306 306 305 303 303 303 303 306 313 322 316 315 314 309 314 307 307 306 307 310 306 307 308 320 320 318 315 315 316 319 319 317 320 320 319 321
304 304 305 306 307 307 306 305 305 305 305 303 303 306 309 317 322 317 320 324 322 315 313 316 317 317 314 314 315 316 317 319 319 318 317 318 320 317 315 320 319 318 315
303 305 307 305 304 305 306 303 299 301 299 299 302 309 320 315 305 303 305 304 302 305 319 318 317 317 316 316 316 315 318 316 317 317 321 320 319 318 316 318 318 319 317
307 313 308 306 303 302 303 302 302 301 298 298 298 302 305 303 298 302 303 303 302 310 320 318 318 317 317 317 317 318 317 318 318 317 316 319 319 318 315 316 317 313 316
315 306 315 313 311 310 309 309 308 307 310 310 299 305 300 300 303 303 302 307 318 317 320 318 317 317 316 316 317 319 318 318 317 316 315 316 319 317 316 315 315 315 315
315 319 322 320 320 318 320 319 319 319 313 310 310 304 301 301 301 301 305 321 319 318 318 317 318 317 318 318 321 323 320 318 317 316 315 316 318 315 312 314 314 300 303
312 309 315 321 321 321 320 319 319 318 318 319 316 310 311 315 319 319 321 322 320 319 319 318 320 321 318 321 321 319 316 316 316 315 315 318 317 313 315 315 315 309 308
312 323 307 320 321 320 320 319 319 318 317 316 316 314 301 320 319 319 320 321 320 320 321 319 320 322 322 323 320 317 318 319 317 315 317 319 315 313 314 317 315 314 315
314 323 324 323 323 321 320 319 318 318 319 317 315 306 298 322 321 319 317 316 316 320 323 320 321 322 322 320 319 320 319 317 316 316 316 317 317 316 318 317 317 316 314
317 325 325 324 321 310 318 318 318 318 319 318 318 318 317 316 312 309 306 305 306 306 309 313 313 314 314 313 314 319 321 320 319 320 320 318 316 317 316 316 317 316 315
324 325 325 323 321 320 319 317 316 311 315 314 312 310 307 305 303 301 300 300 299 299 301 302 303 304 305 306 306 307 311 317 323 323 321 319 318 315 315 317 316 316 309
325 324 323 320 320 318 318 318 315 312 309 307 304 302 300 299 297 296 296 296 295 295 295 296 297 298 299 301 302 301 292 293 309 300 313 311 307 308 307 307 307 307 307
324 324 321 319 318 315 311 308 307 306 304 302 299 298 296 294 293 293 292 292 291 291 290 291 292 293 293 293 292 289 290 291 298 294 307 305 305 304 304 303 302 301 301

GFSGL_sfc_thetae_090.txt.gz
Theta_e
313 316 315 315 316 316 317 317 318 318 319 321 323 324 325 325 324 325 325 332 334 338 342 341 340 337 328 331 336 337 334 328 325 321 327 326 326 326 328 328 329 328 326
311 314 313 312 311 311 311 313 316 317 319 321 324 325 326 327 326 325 324 327 334 333 333 336 337 338 335 334 332 334 333 329 323 320 324 324 324 325 325 325 328 332 328
312 312 313 313 312 312 312 312 312 315 318 319 322 324 322 322 322 324 327 327 326 329 338 338 338 338 338 337 338 336 333 330 325 323 322 322 322 323 321 322 322 323 326
312 312 311 312 313 313 312 310 312 316 316 316 317 319 320 321 322 322 323 324 328 326 331 339 338 338 338 341 338 336 330 328 324 322 320 320 319 320 320 318 318 320 322
308 311 311 312 311 312 311 311 313 312 313 315 317 318 317 318 320 319 319 321 325 328 327 335 340 339 333 335 339 332 328 325 323 320 319 320 317 317 318 318 316 317 319
307 306 307 307 309 310 310 310 309 309 310 312 312 312 311 314 308 308 311 319 322 322 325 332 342 332 330 321 321 322 327 326 321 319 319 317 316 317 318 317 315 314 313
307 308 310 309 310 310 310 309 308 308 309 309 309 309 308 310 306 304 306 314 319 321 323 327 337 341 328 332 318 318 317 315 320 326 322 318 317 320 319 316 316 315 314
307 308 309 309 309 310 310 309 310 310 309 309 309 308 309 309 303 302 303 310 313 320 323 326 331 333 332 331 328 327 327 326 324 325 323 321 321 322 323 320 319 317 321
305 306 308 309 308 309 309 308 308 308 308 308 308 307 306 306 301 300 302 306 309 313 322 328 334 328 313 308 330 325 321 317 306 304 307 304 302 304 313 320 318 318 316
305 307 308 308 309 308 308 308 309 308 307 307 307 307 305 306 300 299 300 305 306 309 316 326 313 326 306 307 329 325 320 318 315 315 315 310 309 310 305 318 320 319 312
302 304 305 307 307 307 307 307 309 308 307 306 305 306 306 305 305 298 298 305 307 310 317 326 331 304 304 304 313 326 321 317 312 316 315 316 316 317 319 317 318 317 314
302 303 304 305 306 306 305 305 305 307 308 305 305 304 304 304 301 299 297 298 303 309 313 324 327 305 303 303 312 303 302 311 318 315 314 313 315 316 316 318 319 318 318
303 303 303 304 304 304 303 303 304 305 306 305 305 303 303 304 304 300 299 298 298 304 314 317 308 302 301 304 303 300 307 320 316 313 312 313 315 317 317 318 318 319 319
300 300 301 301 302 304 305 306 305 305 305 305 304 303 303 303 302 304 307 311 302 305 309 312 309 308 309 308 308 314 321 319 316 313 312 312 314 316 316 318 316 317 316
300 301 301 302 302 303 303 305 305 305 306 306 306 306 303 302 303 302 304 315 318 315 313 314 317 318 316 316 317 317 318 317 315 314 313 314 316 315 313 317 315 315 313
301 302 303 304 305 306 305 305 301 301 300 297 299 304 306 300 298 298 298 303 301 302 319 319 318 317 317 317 317 314 314 314 316 316 316 319 318 317 316 318 318 317 313
304 305 307 306 304 304 304 304 303 299 298 297 295 296 297 299 296 296 298 297 300 305 320 319 317 316 315 315 315 315 314 315 316 316 319 320 318 317 314 316 316 316 316
307 304 311 304 305 304 303 303 302 301 300 300 295 298 295 296 296 296 295 303 313 316 320 318 317 316 316 316 316 316 316 316 315 314 314 315 319 316 315 314 314 314 314
305 309 314 311 310 304 304 303 303 303 302 302 304 297 297 294 295 297 301 323 321 319 319 317 318 317 316 317 318 319 318 316 315 313 313 314 318 317 314 313 313 301 305
305 303 309 317 317 314 311 309 307 308 307 308 308 307 304 301 307 316 323 321 320 319 318 318 317 316 317 318 319 320 316 314 314 313 313 315 316 311 311 314 311 307 311
304 316 302 321 320 320 319 317 317 317 315 312 309 309 304 320 320 320 320 319 319 318 318 318 317 317 318 319 319 318 317 318 314 313 317 318 313 310 311 313 315 311 310
309 321 321 319 319 318 318 319 318 317 316 315 313 305 298 321 319 317 316 317 318 318 319 318 319 318 320 318 317 318 319 315 314 314 314 314 313 314 314 312 315 315 311
315 321 318 317 318 310 318 319 318 318 319 319 317 314 313 312 310 309 308 309 311 312 313 316 315 313 315 317 319 320 319 316 314 315 315 317 315 314 315 314 316 315 314
323 320 319 319 318 318 318 315 312 306 311 310 309 307 306 304 302 302 302 303 303 303 304 306 308 309 310 310 308 312 318 318 318 318 318 317 316 312 313 316 315 311 308
322 321 319 318 317 316 313 311 310 307 306 304 302 301 300 298 297 297 297 298 298 298 297 299 301 302 302 304 305 306 296 293 307 300 315 312 310 310 310 310 309 308 306
320 319 317 315 313 312 309 306 304 302 300 299 298 296 295 294 294 294 294 293 292 292 292 293 294 295 296 296 295 291 290 292 297 294 308 307 306 305 305 303 302 300 298

GFSGL_sfc_thetae_093.txt.gz
Theta_e
309 311 312 314 316 315 313 314 313 314 315 316 318 319 320 321 321 321 323 324 326 328 330 332 335 338 335 334 336 335 331 330 325 329 324 326 326 326 328 326 329 329 326
310 310 313 314 315 315 315 314 314 314 315 317 318 319 321 322 322 322 322 324 326 326 331 333 332 336 334 333 331 330 333 333 330 327 325 325 324 324 323 324 327 330 328
308 307 310 313 312 312 314 315 314 315 315 315 317 319 321 322 323 322 323 324 325 326 326 328 332 333 332 333 333 331 332 333 332 327 325 323 322 322 321 322 323 323 325
307 308 308 311 312 312 312 312 311 313 314 314 315 318 320 319 318 319 319 319 319 322 327 327 328 333 334 332 332 334 335 333 330 326 323 321 320 321 321 319 318 319 320
303 307 309 310 311 313 312 312 312 311 313 314 315 316 317 318 319 317 317 315 315 319 324 326 327 328 328 328 331 330 334 331 327 325 321 319 317 320 320 317 317 315 317
306 305 307 308 308 309 310 310 310 310 312 313 314 314 314 316 308 307 310 311 314 316 319 322 325 323 325 319 318 316 328 331 326 325 322 318 317 319 317 316 315 313 312
305 306 307 307 307 307 309 308 308 308 309 309 310 311 311 310 303 303 305 310 310 311 315 319 323 327 323 335 324 314 314 313 320 326 323 320 320 320 318 314 314 314 313
304 305 306 306 307 308 307 308 308 308 307 307 308 309 309 309 303 301 303 307 307 308 312 318 322 324 325 328 335 329 328 326 324 325 326 326 324 322 322 320 317 315 317
303 304 305 306 306 306 306 307 308 308 308 308 308 308 307 308 302 301 302 305 306 306 310 312 315 319 314 306 332 329 327 321 307 311 311 308 305 305 314 319 316 317 317
301 303 304 305 305 305 305 306 307 308 308 309 309 309 307 308 300 299 301 306 303 304 305 309 307 311 307 306 325 329 323 320 317 315 314 307 309 308 306 319 319 319 317
301 302 302 302 302 303 303 304 305 307 308 307 307 308 308 306 304 298 298 305 305 304 305 307 311 306 304 301 306 328 324 319 316 319 317 315 315 319 319 318 318 316 312
300 300 300 301 302 303 302 302 304 306 306 306 306 305 307 306 302 298 297 300 302 305 304 306 308 302 301 298 302 307 304 311 319 317 315 312 314 316 318 318 316 316 317
297 298 298 300 300 301 301 302 303 303 303 304 305 304 304 304 305 299 296 297 297 302 305 304 301 298 298 300 301 303 306 320 318 315 313 312 314 315 315 317 317 317 316
297 298 299 299 300 302 303 303 302 302 302 302 302 302 305 302 303 302 303 301 298 300 302 303 303 303 303 310 308 310 321 320 318 316 312 312 314 315 315 314 314 319 317
298 298 299 300 300 301 302 302 303 304 303 302 302 303 302 304 302 302 303 305 306 307 307 312 311 311 313 315 316 320 318 316 315 312 311 312 312 312 313 315 314 316 312
299 300 300 301 302 303 302 302 299 300 299 298 297 302 305 301 297 297 297 297 297 296 309 311 312 316 318 318 318 318 317 313 315 313 313 313 314 313 312 317 318 315 311
303 304 304 303 305 305 304 303 301 300 299 298 296 295 298 297 295 295 295 294 293 294 307 315 318 320 320 320 319 318 315 316 315 316 316 317 318 317 311 316 315 316 314
299 297 299 301 304 304 303 303 304 303 299 300 295 299 294 294 294 294 293 293 302 299 310 319 320 319 319 319 318 316 315 315 316 315 316 319 317 315 314 314 314 314 314
296 297 302 308 307 304 305 304 305 303 301 301 301 297 294 293 293 292 292 305 305 308 319 320 319 318 318 317 317 317 317 316 315 313 312 313 317 315 314 314 313 301 305
298 297 300 310 309 307 304 303 302 302 302 301 301 301 297 298 301 302 303 306 311 320 320 319 319 318 317 317 317 318 315 313 313 311 311 312 316 315 311 312 313 310 310
299 303 300 316 310 309 305 303 302 302 301 301 301 302 296 304 303 305 306 309 320 320 319 318 317 318 318 319 319 317 316 315 313 312 312 314 315 309 309 310 313 310 310
299 313 318 318 318 316 313 310 308 308 308 307 306 300 292 308 313 317 319 319 319 320 319 318 317 318 319 319 318 317 316 314 313 313 317 315 311 310 310 312 315 313 309
301 318 319 319 317 308 317 317 315 314 312 311 310 310 314 315 314 314 315 316 317 317 317 317 317 315 315 315 318 319 316 314 314 315 314 312 311 311 313 314 315 314 313
318 318 317 315 314 313 311 310 308 304 310 309 308 308 307 307 306 305 307 308 308 307 309 309 311 311 311 311 314 316 314 313 315 316 318 317 315 310 315 314 313 309 305
319 318 315 314 313 312 311 309 307 306 305 304 303 302 302 301 300 300 301 302 302 301 301 303 305 307 309 311 310 307 294 293 309 302 316 316 314 313 312 310 308 306 305
317 315 313 311 309 307 306 303 302 302 300 299 298 298 297 296 296 296 296 296 296 295 296 296 297 299 301 300 299 292 291 292 298 295 308 307 306 306 305 300 296 294 293

GFSGL_sfc_thetae_096.txt.gz
Theta_e
309 312 311 313 313 314 314 315 316 316 317 318 319 320 321 322 324 324 324 326 326 327 330 331 332 333 333 335 337 338 335 332 330 334 330 333 332 334 333 333 333 334 333
310 310 311 313 314 314 315 315 316 316 316 317 319 320 321 322 323 322 323 327 326 326 327 329 332 334 334 334 336 335 334 333 331 328 334 331 331 329 331 329 330 334 334
310 310 310 311 312 313 315 316 315 316 316 316 318 319 320 322 323 324 325 325 325 325 327 327 328 330 332 334 334 333 333 333 333 331 332 330 327 327 326 328 329 333 331
307 309 309 309 311 313 315 316 316 316 316 316 317 318 320 321 323 324 323 322 323 324 325 326 328 329 329 331 333 333 332 331 331 330 329 326 326 325 325 325 325 327 328
306 305 306 308 309 312 313 314 315 315 316 316 316 316 319 320 320 321 321 321 321 320 321 325 328 327 323 323 326 328 332 331 332 327 326 323 323 323 324 325 327 325 325
304 305 307 308 309 309 311 312 312 312 313 314 314 315 316 317 310 309 317 319 319 318 317 320 324 322 321 315 315 315 325 332 328 326 326 324 323 323 324 324 324 321 321
303 304 306 307 308 308 310 311 311 311 312 312 313 314 315 316 306 305 307 315 314 315 316 317 317 320 319 325 320 316 313 313 319 329 328 325 324 324 325 322 322 323 324
302 303 304 305 306 307 308 308 309 310 310 310 312 313 314 314 304 302 303 313 313 314 314 314 316 319 321 321 323 326 332 323 321 324 332 330 330 328 328 326 327 325 323
298 300 302 303 304 306 306 307 308 308 308 309 310 310 311 312 302 301 303 310 311 311 313 314 314 314 307 302 315 318 325 329 310 310 313 310 306 307 317 326 322 321 320
297 299 301 303 304 304 306 306 307 308 309 309 309 310 308 310 301 299 303 310 309 309 311 311 304 308 302 300 310 317 321 327 319 316 318 312 310 310 308 330 326 324 321
298 299 300 301 302 303 304 305 306 306 308 308 309 310 310 308 309 298 298 311 310 308 309 309 311 301 299 297 297 312 318 325 316 321 321 320 321 319 321 325 329 328 322
297 296 297 298 299 300 300 302 303 303 303 304 306 307 309 311 304 298 297 302 304 308 308 309 310 299 298 297 298 300 299 307 322 322 320 319 320 319 323 324 325 325 326
297 297 298 298 299 299 299 300 300 301 301 301 302 302 305 308 309 299 297 297 299 307 310 306 300 297 294 297 297 297 298 320 321 320 319 318 320 321 321 321 323 324 324
296 296 297 297 298 299 299 299 299 299 299 300 301 303 305 307 307 306 303 301 300 304 303 306 303 300 296 302 307 304 313 323 321 320 318 320 320 320 320 322 321 322 321
296 297 297 298 298 299 299 300 301 303 301 301 303 304 305 305 305 302 303 304 304 304 305 308 309 311 311 311 313 313 321 321 319 318 318 318 318 319 319 321 320 320 321
296 298 299 299 300 299 299 300 298 298 298 297 297 302 305 301 297 296 296 297 297 296 306 309 310 311 311 311 314 317 319 317 319 319 319 320 318 318 319 322 323 322 320
297 299 301 301 302 302 301 300 299 300 297 297 296 295 296 298 296 295 295 295 294 296 307 308 309 311 313 315 318 319 319 320 321 320 319 321 320 320 318 320 320 318 316
298 296 295 296 296 297 298 300 303 302 300 298 295 297 295 294 294 295 295 293 295 297 306 306 308 314 316 319 319 320 319 320 320 319 321 321 321 319 318 319 318 318 318
293 294 294 296 297 298 304 304 304 305 302 300 301 294 295 292 294 293 293 305 304 304 305 307 310 316 320 321 321 320 319 320 319 320 322 321 319 317 317 318 316 303 307
292 292 293 297 306 305 304 304 304 304 301 301 300 299 299 296 298 298 303 306 307 308 308 309 314 320 320 320 320 320 319 317 320 320 319 320 318 318 316 316 315 313 315
292 295 294 311 308 304 304 303 303 302 301 301 301 300 296 303 301 303 305 306 307 306 310 318 320 319 320 321 320 319 319 319 319 319 319 320 318 315 316 317 315 313 314
294 300 317 310 310 307 305 304 303 303 303 303 302 298 291 306 306 306 306 306 307 308 322 321 320 320 321 321 321 320 320 319 319 319 320 320 317 316 317 316 315 314 314
299 315 315 314 314 302 308 307 305 305 304 304 302 301 304 305 305 305 306 309 317 319 320 320 320 320 322 323 323 323 321 320 321 322 320 318 317 317 318 316 316 316 316
316 315 313 311 311 310 309 309 308 302 307 305 303 303 304 310 311 312 313 314 314 315 318 320 320 320 320 322 323 322 322 322 322 322 322 320 318 313 317 317 314 311 309
316 313 312 311 310 308 307 306 305 306 306 305 304 304 304 306 305 305 306 307 307 308 309 312 316 317 319 320 317 316 297 294 317 306 321 319 317 315 314 313 309 308 304
311 310 308 308 307 305 304 302 302 301 300 300 300 300 300 300 301 301 302 302 301 301 302 304 306 308 309 308 305 293 291 292 301 297 315 314 310 307 304 299 297 297 296

GFSGL_sfc_thetae_099.txt.gz
Theta_e
319 321 321 320 320 321 323 325 327 329 329 328 328 328 329 330 332 333 333 333 334 335 336 336 336 339 335 336 337 332 328 334 324 331 338 344 342 340 344 344 340 338 342
319 320 320 321 321 322 322 323 326 328 329 327 326 326 327 327 329 330 329 328 330 331 334 334 333 333 337 339 336 336 335 337 330 332 335 338 338 341 338 341 337 338 339
314 317 319 320 321 322 324 325 326 325 328 327 326 325 325 325 326 328 327 326 327 328 328 328 329 330 331 332 335 335 336 336 337 336 334 341 339 336 334 334 337 338 338
310 313 315 317 318 317 320 322 325 324 325 326 326 325 324 324 324 325 326 326 327 326 328 328 327 326 328 331 331 333 336 338 337 336 337 335 330 332 330 330 328 333 334
308 309 311 315 316 317 316 320 323 324 324 325 325 325 324 324 323 325 326 326 327 326 327 326 326 325 322 323 326 328 332 331 333 335 333 331 326 322 324 329 330 334 334
305 306 309 310 313 314 317 318 320 320 322 323 323 324 326 323 311 309 320 326 327 326 324 323 323 321 320 313 313 313 320 328 331 333 334 331 328 325 327 328 330 328 326
304 305 305 308 309 311 314 315 318 319 322 321 322 323 326 327 306 305 309 325 326 326 325 322 321 319 317 320 315 313 313 310 313 330 336 334 328 328 327 327 330 330 331
303 303 303 304 306 308 310 312 316 318 320 320 320 321 323 325 305 302 304 326 327 326 324 322 322 322 321 320 318 317 319 324 330 330 335 338 331 333 329 329 332 334 333
301 301 302 303 304 306 307 311 314 315 316 318 319 320 321 323 304 301 306 322 325 323 322 322 321 320 309 303 315 315 317 319 320 307 307 306 309 307 322 331 329 328 327
300 301 302 303 303 304 306 308 312 313 314 314 315 319 315 320 304 300 305 320 322 319 322 321 306 314 303 300 315 316 314 317 325 328 322 317 313 316 311 333 334 331 331
301 301 302 303 303 305 306 307 308 310 312 314 314 317 318 317 318 299 299 319 318 318 317 317 318 301 298 297 296 315 314 314 315 320 323 323 322 322 324 328 336 336 331
300 300 300 301 302 302 303 303 305 307 308 310 311 313 314 317 306 300 297 300 310 318 317 318 319 301 298 296 299 300 296 299 312 319 321 320 321 321 324 331 336 337 338
299 299 300 302 302 303 302 303 303 305 304 305 307 309 312 313 316 301 297 296 299 315 317 312 304 299 296 297 294 294 294 309 315 320 320 320 322 324 325 328 330 332 333
296 297 298 298 299 300 301 301 300 301 302 303 305 305 307 310 312 314 311 306 300 305 308 314 309 305 300 304 306 311 316 315 318 321 321 321 323 321 323 325 324 326 327
296 296 297 297 298 298 299 299 299 300 301 303 305 306 306 307 309 307 310 313 314 309 311 316 314 313 313 314 316 317 317 318 321 323 321 319 320 321 321 323 323 324 322
294 295 296 297 298 298 298 299 297 297 297 295 295 301 306 300 298 297 298 298 298 298 309 313 313 313 313 314 315 315 318 317 322 322 322 321 321 320 321 323 322 324 324
294 294 296 296 297 298 298 298 298 298 296 296 295 294 295 299 294 296 296 295 295 296 310 312 313 314 315 314 315 316 317 321 322 323 324 325 323 324 319 324 326 325 325
294 294 294 295 296 297 298 298 299 300 299 297 296 296 294 292 293 294 294 294 298 301 311 312 313 315 314 314 315 317 319 321 322 323 324 325 326 325 325 325 325 323 322
293 293 293 293 294 294 295 296 297 298 299 302 301 295 296 294 292 293 292 304 304 308 310 311 313 313 314 315 317 319 321 320 322 323 325 326 326 326 324 322 320 306 311
290 290 291 293 294 295 297 298 297 298 299 302 300 298 299 295 297 298 300 307 309 309 310 311 312 313 314 316 320 322 321 319 321 323 325 327 326 325 322 321 322 321 322
290 292 290 295 304 305 304 304 305 304 302 301 300 301 296 301 302 304 305 308 309 310 311 312 312 313 314 317 322 322 320 321 321 326 326 326 324 320 320 321 320 320 320
292 294 298 310 307 304 304 304 303 302 302 301 301 297 291 306 306 308 306 309 312 313 314 314 314 314 320 322 323 321 322 324 327 327 326 323 320 320 320 321 320 318 319
294 305 314 310 306 299 304 304 304 303 302 302 303 303 302 305 307 307 309 311 313 315 313 313 319 322 325 326 326 326 327 327 328 327 326 325 323 321 323 320 319 320 319
312 313 311 311 311 311 308 306 304 299 304 305 305 305 308 309 309 311 312 313 311 311 315 322 325 324 326 325 327 329 329 329 329 328 328 325 324 318 324 321 320 317 309
312 310 310 310 308 307 307 307 307 307 306 307 306 308 309 310 310 311 311 312 315 318 320 322 325 326 327 329 328 328 306 295 323 312 327 326 325 324 321 318 313 309 303
309 308 308 307 305 304 303 302 302 303 302 301 302 302 304 304 304 304 306 307 308 311 314 318 324 327 327 326 321 298 292 295 311 299 325 324 322 320 318 312 309 302 297

GFSGL_sfc_thetae_102.txt.gz
Theta_e
322 326 327 330 330 334 336 338 335 334 331 329 329 328 329 330 333 336 337 334 335 338 340 339 340 345 340 338 338 337 334 332 327 328 330 335 338 346 346 348 345 348 345
320 321 324 326 326 326 327 329 331 332 331 329 328 328 327 327 330 331 331 329 330 332 334 336 335 335 339 340 336 338 336 336 329 327 332 333 341 346 347 347 345 346 341
316 317 320 323 326 327 328 329 328 329 331 329 328 326 326 326 327 329 327 326 327 329 330 331 332 333 334 333 334 332 332 333 334 332 329 335 338 343 341 344 340 340 339
314 313 315 316 319 323 327 327 328 327 326 328 328 326 325 326 326 326 326 327 326 326 328 328 328 328 330 331 332 333 333 332 333 331 331 333 338 342 340 334 332 334 332
311 312 312 315 317 318 321 324 325 323 323 324 326 327 326 325 323 325 326 327 327 327 327 326 329 326 322 323 325 327 329 328 326 326 326 330 331 335 332 334 330 331 331
309 308 311 313 314 317 320 320 322 320 322 322 323 325 328 325 311 310 321 327 327 327 327 327 327 320 320 314 313 313 318 323 325 325 327 329 334 337 336 334 328 327 325
308 307 308 310 311 313 316 318 320 322 323 323 323 324 329 334 306 305 309 330 328 328 328 328 326 322 320 323 313 310 311 310 311 325 326 330 333 338 338 334 328 328 327
306 307 308 309 309 310 312 315 318 320 322 323 324 326 327 329 307 302 305 329 332 332 330 329 329 326 325 325 324 322 321 322 324 325 329 332 337 341 336 332 329 329 331
305 307 308 308 308 308 309 312 315 316 319 321 322 324 326 326 305 302 306 325 327 329 327 329 328 327 313 303 322 320 320 322 315 307 307 305 303 305 318 330 326 326 329
303 304 306 306 307 307 309 310 312 314 315 316 318 323 317 325 307 300 307 323 325 324 330 330 309 319 305 301 322 321 319 320 321 321 322 320 313 322 307 326 327 327 332
304 304 304 306 307 308 308 310 310 311 313 315 316 321 322 321 322 300 299 323 321 322 322 325 326 304 302 298 304 322 319 318 315 319 318 321 330 327 323 322 328 329 331
303 302 301 302 303 305 307 308 310 310 310 312 313 315 317 323 308 301 298 301 312 323 324 324 325 301 300 298 300 303 298 300 316 317 317 318 328 322 324 326 328 334 334
301 300 301 302 302 304 304 305 305 307 306 307 308 311 313 316 320 302 298 297 300 317 323 317 307 298 298 299 296 295 294 314 316 317 316 320 327 324 325 326 328 332 337
297 298 300 300 300 302 303 304 304 304 305 305 306 308 309 313 316 320 315 309 300 307 310 318 313 310 306 312 312 306 315 318 318 317 320 325 327 323 323 325 326 329 331
296 296 297 297 298 299 301 302 302 305 305 306 307 307 308 309 311 309 312 317 316 311 313 317 317 317 317 317 318 318 319 319 320 320 320 323 322 320 320 324 326 328 327
293 294 295 296 297 297 298 298 297 297 296 295 296 302 306 301 297 297 297 297 299 298 311 313 315 315 315 315 315 316 318 316 320 321 323 321 320 319 320 324 326 326 326
294 294 294 294 295 295 296 296 295 297 296 295 294 294 294 296 293 294 294 295 295 297 312 312 314 316 314 316 315 315 316 317 322 322 322 321 321 321 318 323 324 326 325
294 293 294 294 294 294 295 297 297 297 297 297 295 295 294 294 293 293 293 294 307 304 311 311 311 315 315 315 315 316 317 317 322 322 321 322 322 321 324 325 325 327 325
291 292 292 293 294 294 295 295 296 295 299 299 300 295 295 293 293 292 292 304 308 309 310 312 314 315 316 317 317 317 317 318 322 322 323 323 323 324 326 327 326 308 314
289 289 290 291 292 292 293 293 294 294 295 297 299 300 299 295 296 299 298 305 307 311 311 313 315 316 317 318 318 317 317 321 322 323 323 323 325 329 327 326 325 323 324
290 291 290 292 293 295 297 297 296 296 297 298 298 301 295 299 299 302 305 308 308 311 311 313 315 316 317 317 317 317 321 322 322 325 324 324 329 326 325 324 325 325 325
293 293 295 299 305 305 304 305 299 299 300 301 302 297 290 303 302 304 306 309 309 312 313 313 313 315 316 316 317 320 321 320 323 324 323 326 326 324 324 323 322 323 323
294 299 303 307 305 300 305 304 303 303 303 302 300 298 299 304 304 306 308 310 311 312 313 314 315 315 317 319 322 323 322 322 324 326 327 326 324 324 324 322 320 319 318
312 311 311 311 307 306 305 304 303 298 302 302 303 304 306 307 308 308 311 310 313 314 315 318 318 318 318 322 324 326 327 330 331 332 328 326 324 317 323 323 322 322 319
310 309 307 308 308 308 307 306 306 307 306 306 307 309 309 310 311 310 311 314 316 316 316 316 315 318 324 325 325 328 314 298 326 314 330 327 325 325 324 318 316 313 306
308 305 304 303 304 305 306 305 305 305 305 306 309 310 312 312 313 314 315 316 314 313 312 318 325 325 325 324 327 306 294 294 314 300 325 328 326 323 320 315 308 304 302

GFSGL_sfc_thetae_105.txt.gz
Theta_e
322 324 325 328 330 333 336 338 343 347 347 342 341 341 340 341 339 340 340 339 338 344 346 341 342 346 339 341 337 337 331 333 331 331 333 342 347 343 341 343 345 347 347
319 320 322 326 329 329 331 334 338 339 340 337 332 331 327 326 328 327 329 330 331 334 335 339 338 336 344 344 340 344 338 339 332 332 335 334 338 342 343 346 344 344 344
318 318 319 321 324 329 330 330 331 333 333 331 328 326 325 324 325 328 328 327 330 331 332 333 336 338 340 337 338 334 332 335 334 331 330 334 336 339 341 346 345 346 345
315 316 317 319 320 322 324 324 324 328 329 330 327 324 323 323 324 325 326 326 327 326 332 333 332 334 335 337 336 337 335 332 332 330 329 330 332 338 336 336 337 340 337
312 312 314 317 319 319 321 319 319 318 326 326 327 326 326 324 323 326 326 326 329 328 331 327 333 328 322 325 327 334 335 329 324 323 324 326 327 329 333 338 333 335 339
311 311 312 313 314 316 318 322 318 316 321 324 325 323 327 324 310 310 324 330 330 330 329 329 329 325 321 315 315 313 317 325 325 319 318 321 329 331 336 336 334 332 328
310 310 310 311 311 313 316 317 317 316 317 321 325 326 327 330 309 305 308 332 330 330 333 332 329 324 323 323 313 311 311 309 311 325 322 324 327 331 336 335 333 333 331
306 307 309 309 310 311 313 315 320 323 321 320 319 322 327 328 307 303 304 326 332 334 334 334 333 333 330 326 325 325 325 325 323 322 326 330 333 335 332 334 333 332 334
304 305 306 307 308 310 311 316 318 319 322 325 325 327 328 327 306 302 306 321 327 333 333 335 333 332 317 305 324 324 323 325 316 308 307 305 301 302 308 329 327 327 325
303 304 306 306 307 309 312 315 316 317 317 318 321 326 321 328 310 301 307 325 327 326 333 334 311 325 309 302 327 326 323 325 323 324 325 320 311 321 304 324 330 324 324
303 305 305 306 305 307 309 313 315 314 314 318 319 323 327 326 327 302 300 325 325 326 325 327 330 306 301 299 306 330 325 325 319 323 322 321 323 325 330 331 332 328 321
302 304 304 304 305 305 306 305 309 312 314 315 316 318 320 326 311 303 300 302 316 325 325 326 328 303 303 299 303 306 299 304 319 318 317 318 319 320 329 330 331 327 327
301 301 301 303 304 304 303 304 304 307 307 308 310 312 315 317 323 304 299 299 302 319 325 319 307 301 302 302 300 302 296 315 316 316 317 319 321 322 331 328 329 327 327
298 299 300 299 299 303 303 302 302 302 304 306 308 310 312 315 318 323 315 311 302 309 312 320 316 312 310 316 312 305 316 319 317 317 319 320 322 327 328 326 321 323 324
296 297 296 296 296 298 300 302 301 303 304 304 307 309 310 312 314 310 313 320 320 316 316 321 323 321 320 320 321 321 320 319 317 319 319 320 320 326 323 324 322 321 320
293 294 295 296 295 296 297 298 297 296 296 295 296 300 310 302 296 297 296 297 301 300 313 317 318 321 320 320 319 319 321 316 320 319 321 321 322 324 317 320 321 319 322
292 292 293 294 295 294 294 293 294 297 295 295 293 294 295 297 293 294 295 293 295 297 316 316 318 319 321 321 320 318 318 320 323 321 322 323 321 322 315 319 321 322 322
292 292 293 293 294 294 294 294 294 293 293 295 295 295 294 293 294 292 293 295 306 301 312 316 316 318 319 319 318 318 319 320 319 322 323 323 323 322 320 318 321 322 324
290 291 292 291 293 294 294 294 294 295 295 296 299 296 294 293 292 291 292 301 305 308 309 313 317 316 316 317 318 317 319 319 319 323 323 323 323 322 320 320 324 308 314
289 289 289 289 290 291 292 292 293 293 292 295 296 298 299 294 296 298 298 300 303 306 309 312 314 314 314 315 317 317 318 318 322 323 323 324 322 323 321 323 326 327 326
289 290 289 291 291 292 292 292 293 293 293 295 295 299 295 298 297 299 300 302 304 307 309 310 312 313 316 318 318 318 319 320 323 324 324 324 322 321 323 325 327 328 329
293 293 294 295 298 300 301 301 296 295 295 295 296 297 289 299 300 302 304 306 308 311 313 312 314 315 316 316 319 320 318 321 324 325 325 324 323 322 327 326 327 326 326
294 296 298 304 307 299 304 301 298 298 298 298 300 298 298 301 302 304 306 308 309 309 311 312 315 314 316 320 320 320 317 323 326 327 325 323 322 324 324 324 324 323 322
308 308 309 308 307 305 304 303 302 297 301 300 299 299 300 303 305 307 308 309 311 312 312 313 314 313 318 319 320 322 323 327 329 328 327 324 325 319 324 320 319 320 319
305 306 309 308 308 307 306 304 304 303 302 301 300 301 304 305 306 309 309 309 310 312 313 315 315 317 319 319 320 322 314 296 323 313 330 329 326 326 323 320 318 315 310
302 303 305 306 304 306 307 308 307 307 305 306 307 307 308 309 308 308 310 313 313 313 315 318 319 319 316 318 322 310 292 294 307 300 327 328 325 322 321 319 314 311 309

GFSGL_sfc_thetae_108.txt.gz
Theta_e
323 325 324 324 325 327 330 333 336 337 339 339 342 341 334 331 330 330 326 326 324 316 328 336 339 341 340 339 338 336 329 322 315 320 327 326 324 336 335 336 337 338 338
320 320 324 325 323 324 325 329 333 333 335 337 339 337 333 331 329 333 321 317 320 316 324 332 335 337 336 337 337 333 328 322 319 315 321 324 327 331 332 333 337 341 339
316 315 317 323 323 322 323 325 329 328 326 330 334 333 333 328 328 327 328 324 326 327 329 333 333 335 335 335 333 333 331 324 320 323 320 327 330 331 332 335 335 335 339
314 313 314 316 320 321 321 321 325 326 325 323 321 320 326 328 327 326 324 323 325 326 329 330 331 332 333 332 331 330 330 328 326 324 322 324 327 327 327 327 327 331 332
312 311 313 315 316 317 318 320 321 323 322 322 319 317 318 323 324 325 326 327 328 327 329 330 330 326 320 323 330 327 326 325 324 321 319 318 319 320 323 328 326 327 330
311 311 312 313 313 313 314 315 318 322 322 321 318 317 313 317 311 312 324 328 328 327 326 327 329 322 318 314 314 312 317 318 318 316 313 312 315 316 320 326 325 324 320
309 309 309 310 309 310 312 313 313 317 322 319 317 317 313 313 311 309 309 330 329 329 328 329 323 324 323 324 313 310 310 308 310 317 316 317 317 320 322 323 325 325 325
306 306 307 307 307 307 307 310 313 315 319 319 316 314 314 317 309 306 308 322 327 330 330 330 326 326 324 323 321 319 320 321 316 314 318 320 323 324 323 323 324 324 326
304 305 305 305 304 305 305 308 308 311 314 319 318 315 314 316 308 303 306 320 317 318 329 330 329 327 315 308 324 323 322 323 315 311 311 310 305 301 302 318 319 321 320
302 303 304 303 304 303 305 306 307 308 311 315 315 319 317 319 309 304 305 322 320 321 323 324 312 324 307 304 321 323 321 322 323 320 315 311 305 312 302 318 324 322 320
304 304 303 303 303 304 304 307 307 306 307 310 312 313 318 319 319 302 300 321 322 322 319 319 326 305 305 301 307 323 321 323 320 321 320 320 320 322 324 324 327 325 321
303 302 301 301 302 303 304 304 305 306 305 306 309 310 314 318 309 303 299 304 313 322 321 322 322 303 302 300 302 308 302 309 321 317 316 315 316 317 319 326 327 326 327
298 298 298 299 301 302 302 302 301 302 303 303 306 308 309 313 318 304 299 299 301 319 324 318 309 303 300 301 301 303 300 315 317 314 313 314 316 320 323 326 324 325 325
295 295 296 297 299 301 301 301 301 301 301 302 303 305 308 311 312 317 313 308 302 307 312 319 314 311 308 312 309 307 315 316 315 314 314 316 319 320 318 323 321 320 319
293 294 294 295 296 298 299 299 299 301 301 301 303 304 305 307 311 307 309 317 317 312 314 319 318 317 319 319 318 314 315 317 315 316 315 315 316 317 317 322 320 319 317
291 291 292 293 294 296 296 296 295 295 296 295 295 299 306 301 295 295 296 296 295 299 313 315 315 315 316 318 319 318 317 314 317 316 315 316 318 318 318 320 318 319 315
290 290 291 291 292 291 293 294 293 296 294 294 293 293 293 295 293 294 294 293 294 296 313 314 314 314 316 319 319 318 318 319 319 318 316 320 321 320 315 318 317 318 318
290 291 290 291 292 292 293 293 294 293 292 295 295 294 293 293 292 292 294 295 301 301 310 314 313 315 315 318 319 318 318 318 318 319 321 321 321 319 319 319 317 315 316
287 288 289 290 290 291 292 293 293 293 292 293 295 294 294 293 292 290 292 300 300 303 307 312 315 314 316 317 317 317 317 317 316 321 321 321 321 319 318 319 317 300 305
287 287 288 288 289 290 290 289 291 293 293 293 294 295 297 293 295 297 299 300 301 302 304 309 313 314 315 314 314 316 315 314 321 322 321 320 321 321 320 319 318 318 319
289 289 288 289 289 290 290 290 291 291 292 293 294 296 293 297 296 298 299 301 301 303 305 308 311 312 314 314 314 314 314 317 320 321 321 321 321 320 321 319 320 321 322
291 292 294 294 294 294 293 293 292 292 292 293 294 294 288 299 298 298 299 302 303 305 307 308 309 311 312 312 312 312 314 319 321 321 321 322 321 322 320 319 317 317 320
297 296 298 300 304 299 301 298 297 294 294 294 295 296 294 297 299 299 300 302 304 306 308 310 311 311 312 315 316 315 316 320 322 323 322 322 322 320 319 317 319 321 319
308 308 307 306 305 304 303 300 298 294 296 296 297 297 298 299 300 301 303 305 306 308 310 312 312 311 313 314 315 320 321 325 325 325 324 322 321 314 319 320 321 320 314
303 304 306 306 306 305 304 302 302 301 300 300 299 300 300 302 302 304 306 307 308 309 311 310 310 313 313 314 317 318 301 296 320 310 325 323 319 320 321 317 315 312 310
299 299 300 301 303 303 305 305 303 302 301 301 301 301 303 304 304 306 308 309 308 310 311 311 312 313 314 319 318 298 292 293 306 298 323 324 322 319 317 313 310 308 307

GFSGL_sfc_thetae_111.txt.gz
Theta_e
313 313 313 312 314 314 316 318 321 323 324 326 330 332 333 324 321 318 317 320 321 320 319 316 317 323 322 326 329 326 323 318 315 315 319 321 319 322 326 333 333 331 331
310 309 309 314 313 313 313 316 318 320 322 320 320 322 324 327 326 323 320 323 324 319 317 317 316 322 320 324 331 325 321 317 314 312 312 315 317 318 325 329 332 335 334
308 306 306 307 310 311 312 314 314 316 318 320 317 318 318 321 328 327 326 324 319 318 316 318 318 319 319 327 331 326 322 321 315 313 313 319 320 323 325 326 327 329 334
306 305 305 305 307 309 310 311 312 314 317 317 318 317 319 317 324 327 325 319 319 317 317 318 321 324 326 330 328 326 323 318 315 315 316 317 319 319 321 320 320 323 325
305 304 304 305 307 307 308 309 311 312 313 315 317 317 317 317 318 313 315 320 321 318 318 322 323 325 326 327 327 324 322 319 317 315 311 308 310 311 313 318 318 320 322
304 303 305 306 307 306 306 306 306 308 310 313 316 315 314 317 308 305 312 314 318 321 322 324 324 319 317 317 317 316 318 315 313 309 307 304 306 309 311 312 315 315 315
302 304 305 304 304 303 303 303 302 302 304 308 313 313 311 310 306 305 306 315 315 319 319 318 320 319 316 315 311 309 308 307 308 308 305 308 308 312 313 312 314 314 316
301 302 303 303 303 303 302 301 301 302 303 304 306 312 311 312 305 303 305 314 314 315 318 319 315 316 317 315 309 306 307 307 308 311 310 311 314 315 318 314 312 313 316
301 301 302 303 302 302 301 300 300 301 301 304 306 309 310 310 303 302 306 312 313 315 321 322 316 318 311 308 312 309 311 313 311 307 306 305 306 306 304 310 309 313 316
298 301 303 303 303 302 302 301 301 301 301 303 303 306 310 311 304 300 304 313 314 314 314 320 308 312 306 303 316 313 312 313 315 314 311 307 304 306 300 310 313 314 315
299 299 300 302 303 302 302 301 301 300 301 302 302 305 306 311 314 302 300 314 317 312 313 316 313 303 301 302 304 318 315 316 313 313 311 310 312 313 315 311 315 317 313
294 296 298 300 301 302 301 300 300 301 302 301 300 302 305 306 305 304 299 302 310 317 317 316 313 300 300 299 301 306 303 310 317 313 311 310 309 309 311 315 319 320 319
294 293 296 297 299 299 298 298 298 301 301 300 300 300 302 305 306 303 299 298 300 312 317 314 307 301 298 298 299 301 303 314 313 310 308 307 308 311 312 317 318 319 319
291 291 292 293 294 295 297 298 298 299 299 299 299 299 300 302 304 306 308 304 299 304 308 309 310 309 306 309 304 304 309 313 313 310 308 308 309 310 311 315 314 314 312
289 290 290 291 292 294 295 296 298 300 300 300 300 300 300 300 302 296 301 309 308 307 309 312 310 311 310 310 310 307 308 311 311 309 309 308 309 310 311 313 314 312 312
288 289 289 290 291 292 292 293 295 295 295 294 293 296 302 298 294 295 295 294 293 295 307 310 311 309 309 311 312 310 309 310 312 310 309 309 308 310 311 312 312 311 309
288 288 289 290 290 290 290 291 290 294 294 293 293 293 292 294 292 294 295 295 294 295 305 310 309 309 309 311 314 313 310 312 313 312 311 309 310 312 308 311 311 312 311
286 288 288 288 289 290 291 291 291 291 291 294 293 293 292 293 292 292 294 296 300 297 300 306 308 310 309 309 313 314 314 313 313 312 310 312 314 313 312 311 312 312 313
285 286 287 287 288 289 290 290 291 291 292 293 295 293 293 292 291 290 292 298 299 300 298 303 309 309 309 310 310 314 314 313 313 311 313 315 315 312 311 312 313 301 303
287 287 287 287 287 289 289 289 290 291 291 293 293 293 295 293 294 294 294 298 299 300 299 300 306 309 310 310 310 310 308 308 308 313 315 315 314 314 312 314 314 313 314
288 289 288 289 289 289 289 289 290 290 290 291 292 294 291 295 294 295 295 297 299 300 301 302 304 311 312 313 307 310 307 308 313 316 315 314 315 315 316 316 316 317 317
290 292 293 293 294 292 292 292 291 290 290 291 293 294 288 295 297 296 297 298 299 300 303 304 305 307 309 309 309 306 305 308 313 314 314 315 316 316 317 317 317 317 315
297 304 300 300 302 298 298 298 296 292 292 293 294 294 293 294 298 298 298 299 301 301 303 305 306 307 308 310 309 308 305 309 315 317 317 317 317 317 317 316 315 314 316
300 301 303 304 305 303 301 298 295 292 294 294 295 295 295 295 297 299 299 300 300 302 303 305 306 307 309 309 308 309 310 313 319 320 319 319 318 310 316 316 316 317 312
296 299 299 300 301 302 302 301 300 297 297 296 297 297 297 297 299 300 300 301 301 302 302 304 304 308 308 307 310 309 305 294 317 307 321 320 318 316 316 316 314 311 308
292 293 295 297 297 299 299 301 301 301 299 299 299 299 300 300 300 301 302 302 302 303 304 305 306 306 307 310 313 296 293 294 305 297 320 317 316 317 316 313 310 307 305

GFSGL_sfc_thetae_114.txt.gz
Theta_e
310 309 309 311 310 311 310 311 313 316 316 318 320 320 320 321 325 321 323 325 319 317 319 319 318 319 318 318 319 323 323 319 314 320 318 319 318 322 320 324 329 328 329
309 310 308 309 310 310 310 311 312 313 314 316 318 318 319 320 319 321 320 321 320 318 319 318 318 319 316 320 322 324 325 323 320 316 315 316 316 316 318 319 324 331 328
305 305 304 304 306 310 308 309 311 311 310 312 317 317 317 319 318 323 322 320 319 321 319 317 317 317 316 317 317 324 323 322 318 316 313 314 314 317 317 320 322 324 329
304 303 302 302 303 303 306 307 308 308 309 311 313 316 317 317 318 320 324 324 321 320 321 319 319 317 316 315 319 325 323 319 317 316 313 312 314 316 318 317 316 319 321
302 301 301 302 303 304 304 305 306 307 309 309 309 313 315 316 317 314 316 319 319 317 317 318 317 319 319 319 326 321 321 318 316 315 314 308 309 308 309 314 314 316 317
300 300 302 303 303 303 303 303 303 303 304 306 306 308 310 315 310 308 310 313 316 316 317 319 318 317 318 315 316 317 321 319 315 311 307 304 304 307 309 310 311 311 308
300 302 302 302 302 302 303 303 301 300 301 300 302 305 306 309 305 303 305 311 314 315 312 315 319 324 319 323 315 313 313 311 314 309 304 303 304 307 309 309 310 311 310
299 300 301 301 301 302 301 302 301 299 298 298 299 301 302 305 304 302 302 308 313 311 314 314 316 320 318 318 314 311 310 307 307 307 304 307 308 311 313 311 308 308 311
297 297 298 299 298 298 299 301 301 298 297 297 299 300 301 304 303 302 302 308 311 311 316 316 317 318 308 303 309 306 304 305 305 305 305 303 304 303 309 308 306 307 307
296 296 297 297 297 299 300 302 302 298 299 299 300 301 302 302 301 300 302 310 308 311 313 315 308 313 302 301 307 305 304 306 311 308 307 305 304 306 299 307 308 308 308
297 296 295 297 295 295 296 298 302 301 300 299 298 299 301 302 303 299 298 312 310 312 312 314 316 301 300 300 303 308 307 310 309 311 311 309 308 309 309 305 307 311 310
294 293 293 293 295 295 296 298 300 300 299 298 299 300 302 301 300 300 297 300 307 314 313 314 314 301 299 299 302 303 301 307 313 310 309 308 308 308 310 309 311 313 317
291 291 291 292 293 293 293 295 297 298 298 297 297 298 300 301 302 299 297 297 299 312 317 312 305 301 297 297 297 298 299 313 312 309 309 309 308 310 309 311 314 315 316
289 289 290 290 290 291 293 293 293 294 294 295 297 299 300 301 299 303 303 300 298 303 306 311 309 308 302 304 304 303 309 312 313 314 309 310 308 308 308 310 313 312 311
288 288 288 289 289 290 291 292 294 296 297 298 299 300 299 299 298 299 300 304 306 305 306 312 309 308 306 307 306 307 308 311 312 310 308 307 307 308 308 310 310 310 313
286 286 287 288 289 290 290 291 293 293 293 292 293 297 301 296 294 293 293 292 293 296 304 307 310 310 310 309 310 308 308 308 313 313 311 309 307 308 307 308 310 309 308
285 285 286 287 288 288 289 289 288 292 293 293 292 292 292 294 293 293 294 294 293 296 304 307 309 311 311 312 312 310 308 310 311 311 311 309 308 308 304 308 309 309 309
285 286 285 286 286 287 288 289 290 289 289 291 292 292 292 292 292 292 293 295 297 298 300 301 306 310 311 311 313 312 311 309 310 309 308 308 309 308 308 308 309 309 309
285 285 286 287 287 288 288 289 289 290 290 291 293 292 291 291 291 290 292 297 298 299 298 300 303 308 310 310 312 314 313 311 310 308 308 309 309 309 308 309 309 300 305
286 287 288 288 288 288 288 288 288 289 289 290 291 292 295 291 292 292 295 296 297 299 300 300 299 304 309 310 309 311 312 308 309 309 309 310 310 311 309 309 310 308 310
286 288 288 289 290 290 289 288 289 289 289 290 291 294 291 294 294 295 295 295 297 299 300 301 301 303 307 310 309 307 307 308 308 310 312 311 310 310 309 310 311 312 313
288 291 299 295 295 294 292 292 290 290 290 290 291 292 288 294 295 295 295 295 297 300 302 302 302 303 306 308 307 306 304 306 309 314 314 311 311 310 312 313 314 313 314
292 298 300 302 303 297 298 296 295 291 291 291 292 293 292 294 295 296 295 296 297 299 302 303 301 301 306 306 308 305 304 307 310 314 311 311 312 313 315 315 315 313 314
293 295 298 298 300 301 301 296 294 291 293 293 293 294 294 295 296 298 298 297 298 299 301 302 301 302 304 308 308 310 308 309 313 314 314 313 313 309 314 314 313 313 313
290 291 293 294 295 297 298 301 297 296 296 295 295 295 295 295 296 298 299 299 300 300 300 302 303 304 305 305 306 309 302 290 308 302 315 316 315 315 315 314 313 310 307
288 289 289 290 291 292 294 295 299 299 298 298 298 297 297 296 298 299 299 300 300 301 300 301 301 304 307 307 308 295 290 289 295 293 317 317 315 315 315 311 310 309 306

GFSGL_sfc_thetae_117.txt.gz
Theta_e
309 308 308 308 309 309 308 309 310 312 314 315 316 316 316 315 315 315 317 320 322 323 321 321 322 324 321 319 319 317 316 315 313 314 319 321 322 324 326 325 327 327 327
304 306 306 306 306 307 308 308 309 311 312 314 315 315 316 316 314 314 316 318 319 319 320 319 320 322 318 317 316 315 317 321 316 313 318 318 320 319 319 317 320 325 325
303 302 301 301 301 302 305 306 306 308 310 310 312 314 315 315 314 314 316 318 319 320 319 320 319 318 316 315 316 317 320 324 320 318 317 314 316 316 316 316 318 321 325
302 301 300 300 301 301 302 303 304 306 306 306 308 313 314 314 314 315 316 316 317 321 320 320 319 318 317 315 316 317 319 320 319 317 316 314 315 316 316 315 314 316 318
300 300 299 300 301 301 302 303 304 305 306 307 307 308 311 313 315 313 313 313 315 317 319 321 321 321 319 316 316 316 319 318 316 316 314 312 311 311 310 312 310 312 313
298 299 300 300 301 301 301 301 301 302 303 303 304 306 305 310 308 307 310 310 312 313 315 318 318 317 316 313 314 315 321 318 315 315 314 313 309 308 309 309 309 307 301
297 299 300 301 301 300 301 301 300 300 300 300 301 302 303 304 303 303 305 308 310 312 313 314 314 320 315 317 312 312 312 312 314 318 311 308 306 308 310 306 307 307 306
297 298 299 299 298 299 299 299 299 300 300 301 301 301 302 302 300 299 302 304 306 309 311 312 311 312 315 319 319 316 315 317 317 317 316 308 307 310 312 311 309 306 308
297 297 297 297 296 296 296 295 296 296 299 300 301 300 299 300 299 298 299 303 305 307 310 312 312 313 309 304 319 317 316 316 309 305 303 302 301 304 309 309 306 305 304
296 297 296 295 296 295 294 297 296 296 299 302 301 300 300 299 298 298 299 303 305 307 309 311 307 310 304 301 316 314 310 307 307 305 305 303 303 302 303 308 306 305 306
295 295 295 294 293 293 293 294 293 294 295 296 300 301 301 301 299 297 297 301 305 308 309 310 314 303 300 299 303 311 309 306 305 306 306 306 307 307 306 305 307 308 306
293 293 292 292 292 293 292 292 293 294 296 297 299 299 300 301 299 298 297 297 302 307 309 311 313 301 299 298 301 299 298 304 309 308 307 306 306 306 308 308 307 307 310
290 289 289 290 291 291 290 290 290 291 291 296 298 298 298 301 302 298 297 296 297 300 311 309 304 298 298 300 299 297 300 309 308 307 307 307 307 308 308 308 310 309 310
288 287 288 288 288 289 290 291 290 291 291 292 295 296 297 298 300 301 299 300 298 301 306 311 306 302 303 304 302 302 308 311 310 309 308 307 307 307 307 307 309 310 310
287 287 286 287 287 288 289 290 290 292 293 293 294 295 295 298 301 299 299 302 303 303 306 310 311 312 310 303 303 304 305 309 311 310 308 306 307 307 306 306 307 307 312
284 285 286 286 287 288 288 289 291 291 292 292 291 292 295 294 295 294 294 295 295 295 305 306 308 310 310 307 306 306 305 306 309 309 308 307 306 307 306 306 307 307 309
284 284 285 285 285 286 286 287 287 290 292 291 291 291 291 292 292 291 291 292 292 296 304 306 307 309 310 309 309 308 306 309 310 311 309 307 307 306 303 305 306 307 309
284 285 285 285 286 286 286 287 288 288 288 290 291 291 291 291 292 291 292 295 298 296 298 305 307 310 311 311 310 309 308 308 308 309 308 307 306 306 304 305 305 306 306
284 285 286 287 287 287 287 287 287 288 288 290 291 291 291 291 291 291 292 297 297 298 295 298 301 307 309 311 312 311 310 308 308 307 306 306 306 305 305 306 306 298 299
284 286 287 287 288 289 288 287 287 287 288 289 290 291 293 291 290 291 293 296 296 298 297 297 298 300 307 309 310 312 311 308 307 307 306 306 306 307 306 306 306 309 310
284 286 287 289 293 291 291 289 289 288 288 289 290 292 289 293 293 294 293 294 295 297 297 300 298 299 301 307 307 309 310 310 308 307 308 307 307 307 307 308 307 307 307
286 288 293 298 301 299 295 293 292 290 289 289 290 291 287 293 295 295 295 295 297 297 298 301 299 302 302 304 306 306 306 306 307 308 308 308 308 308 307 307 308 308 310
289 292 293 296 297 295 299 296 293 291 290 290 291 292 291 293 295 295 296 297 298 298 299 302 301 301 303 303 306 306 305 305 308 309 309 309 309 308 309 309 310 310 309
289 290 291 292 293 294 296 295 294 290 292 292 292 293 293 294 295 296 296 295 297 297 299 302 302 302 301 303 304 305 305 307 310 312 311 310 309 304 310 310 312 311 309
286 287 288 289 290 291 292 295 297 296 295 295 294 295 295 295 295 296 298 297 296 297 298 301 301 303 301 305 305 306 298 289 307 300 312 311 311 310 312 312 312 310 306
284 285 286 287 288 288 289 290 292 296 298 297 297 296 295 295 296 298 298 299 298 297 298 300 301 303 302 305 307 296 289 288 295 292 310 312 311 311 312 311 310 308 306

GFSGL_sfc_thetae_120.txt.gz
Theta_e
305 307 309 310 310 311 311 311 311 313 315 318 318 317 317 318 318 317 317 318 319 321 323 324 324 325 325 325 324 324 322 321 317 321 322 326 326 326 327 332 332 332 330
306 305 306 305 306 306 307 309 311 311 312 314 316 317 316 317 317 315 314 317 318 319 320 321 321 323 323 324 323 321 320 322 320 318 322 323 323 327 328 328 328 331 331
303 303 303 303 303 304 304 305 306 307 309 311 312 313 315 316 317 315 315 316 318 319 320 320 321 322 320 322 320 319 320 322 320 320 319 321 323 323 323 323 324 326 327
301 301 301 302 302 302 303 304 305 306 307 308 309 310 311 314 316 315 315 316 317 317 319 321 321 321 319 319 319 319 320 320 321 319 318 320 320 322 323 323 323 326 327
299 300 300 301 301 302 302 303 304 305 306 307 307 309 310 312 313 314 315 316 316 315 317 319 321 322 320 319 320 318 320 320 321 318 317 320 319 318 321 322 322 322 322
298 298 300 301 301 301 302 302 303 303 304 304 305 306 307 309 307 307 312 314 315 314 314 315 318 318 318 314 313 314 318 319 320 320 320 318 315 316 316 319 318 317 312
298 299 299 300 300 300 301 301 301 301 302 302 303 304 304 306 302 302 305 311 311 310 311 313 314 317 317 320 313 311 310 310 314 322 320 321 314 313 315 316 317 316 315
297 297 298 298 298 299 298 298 297 298 298 299 300 301 302 303 301 299 301 308 308 308 309 309 310 313 316 318 319 318 316 318 318 321 323 323 317 317 320 319 319 316 316
296 296 297 298 298 297 296 295 296 297 296 297 298 298 298 300 299 298 300 304 304 304 307 308 309 311 307 302 316 317 318 318 313 309 309 307 305 303 311 317 315 315 313
294 296 297 295 295 294 295 294 295 294 294 296 296 296 298 302 298 297 298 303 303 305 307 309 305 309 303 300 311 315 315 318 317 313 312 306 307 307 305 321 316 315 315
296 294 293 294 294 294 292 293 293 293 293 293 294 296 297 298 301 296 296 302 301 302 304 307 312 301 298 297 298 315 316 318 313 315 312 311 313 314 315 315 317 318 316
292 292 291 291 292 292 291 290 291 291 291 291 293 294 298 300 299 297 296 296 299 302 303 308 312 300 295 296 297 302 301 306 312 311 311 310 312 312 314 315 315 316 319
289 289 289 290 290 290 289 288 288 289 289 289 290 291 297 300 301 297 296 295 295 299 305 306 302 297 297 297 298 300 299 309 311 311 310 312 315 316 316 315 316 316 316
288 288 288 287 288 289 289 289 288 288 289 290 290 291 293 299 300 301 301 302 297 300 301 304 304 302 302 304 304 303 309 312 311 312 313 315 315 315 316 317 317 319 320
287 287 286 286 287 287 288 288 289 290 290 290 291 292 293 293 296 294 297 301 302 302 303 308 309 308 306 306 307 308 311 314 314 315 315 314 315 315 315 315 317 317 318
284 284 285 285 285 286 286 287 290 290 290 290 291 291 293 292 292 292 292 294 294 295 304 308 308 310 310 308 309 308 309 310 316 316 316 316 315 315 315 313 316 317 316
283 283 283 284 285 285 286 286 285 289 291 291 290 290 290 291 291 291 291 291 291 292 301 305 308 310 311 310 311 311 310 310 314 316 316 315 316 315 311 313 314 315 315
283 284 284 285 285 286 287 287 287 286 286 289 291 290 290 290 290 291 291 292 298 298 304 306 307 310 311 311 311 311 311 312 313 314 314 315 315 314 313 313 313 315 315
283 283 285 285 286 287 288 288 288 287 287 288 290 291 291 290 290 290 291 295 299 300 301 305 309 310 311 313 314 314 313 313 313 313 314 314 314 314 314 315 314 300 304
283 284 285 286 288 289 290 289 289 288 287 288 288 290 292 290 290 291 294 295 296 299 301 301 303 307 311 313 315 314 314 311 312 313 314 314 313 314 314 314 314 312 310
283 285 286 289 294 297 298 292 291 290 288 288 288 291 289 292 291 292 293 294 297 298 299 301 303 303 306 311 313 315 315 314 313 314 314 314 314 313 315 315 316 315 313
285 287 290 292 294 295 295 296 294 292 290 289 290 291 287 292 294 294 294 295 298 299 300 301 303 303 305 307 311 312 314 314 315 315 315 315 315 315 315 315 316 316 315
286 288 289 291 292 291 294 296 294 292 291 290 291 291 291 292 293 295 296 297 298 299 300 301 302 303 305 306 308 311 312 313 315 316 316 316 316 316 315 316 316 316 316
286 287 287 288 289 289 291 292 296 291 293 292 291 292 292 292 295 296 297 298 299 300 301 301 302 303 304 306 308 311 313 314 314 316 317 318 317 308 317 317 317 316 315
284 284 285 286 287 287 288 290 292 294 296 295 294 294 294 295 295 297 297 298 299 299 300 301 302 304 305 305 308 310 303 290 311 302 318 318 317 317 317 318 317 316 309
282 283 283 284 285 285 286 287 288 289 291 296 297 296 295 295 296 297 298 298 298 298 299 301 303 304 304 305 308 297 288 288 300 294 317 319 318 318 318 317 316 315 309

GFSGL_sfc_thetae_123.txt.gz
Theta_e
312 314 315 315 317 319 320 322 322 323 323 323 324 326 327 327 328 328 327 324 323 324 326 326 326 329 326 327 329 331 325 324 320 325 332 335 334 333 333 334 335 335 335
310 311 312 313 313 314 314 316 318 318 319 319 321 322 322 323 324 324 323 320 320 319 320 322 321 321 326 327 326 328 327 325 321 318 327 331 334 334 333 333 333 333 335
308 308 309 311 311 312 313 314 314 314 314 314 314 315 316 318 321 322 321 320 319 319 319 320 320 321 322 323 325 324 324 326 323 320 321 330 331 330 331 333 333 334 335
307 307 307 309 309 310 311 311 311 312 311 311 312 312 312 312 314 316 319 320 321 319 322 322 320 320 320 322 323 324 325 322 321 320 319 325 327 330 330 329 328 332 330
305 305 306 307 308 308 308 308 309 309 309 309 309 310 312 312 310 313 315 319 321 321 323 320 323 321 318 319 319 322 323 321 319 319 319 322 321 326 327 331 327 328 332
304 304 305 306 306 306 306 306 307 307 308 308 308 308 309 310 304 304 310 316 318 319 320 320 320 318 318 314 313 314 319 321 318 318 319 318 320 328 329 329 328 327 323
304 304 304 304 303 303 304 305 305 305 306 306 306 306 306 308 303 301 303 312 315 317 317 317 316 315 314 318 313 311 311 309 313 320 320 324 326 329 330 329 328 326 323
302 301 302 301 301 303 303 303 303 302 301 302 302 303 304 305 300 298 300 305 310 314 315 315 315 314 313 313 314 316 319 320 318 321 321 326 330 331 328 327 322 323 324
300 300 300 300 300 301 299 299 299 299 299 298 299 299 300 301 298 297 298 302 303 308 311 313 311 311 304 301 311 310 315 319 313 308 310 309 306 306 315 321 321 317 316
298 298 299 299 297 296 294 294 295 295 294 294 294 296 297 298 297 295 296 300 300 305 309 310 303 306 300 299 311 311 311 317 319 319 319 311 309 312 306 323 321 315 317
298 297 297 295 293 293 292 293 293 292 292 292 293 294 295 297 298 296 295 299 301 303 305 307 308 300 298 297 298 314 314 318 317 322 318 321 320 314 317 323 328 321 319
296 295 293 291 292 292 291 291 291 291 290 290 290 292 295 296 296 296 295 295 300 302 304 306 307 298 296 296 297 301 300 303 321 320 316 317 318 316 319 322 326 326 327
293 289 290 290 290 290 290 289 289 289 288 288 289 290 292 295 295 298 296 295 295 300 304 303 298 297 296 296 295 298 297 311 317 315 312 316 319 321 325 323 325 326 325
288 287 288 288 288 289 290 289 289 288 288 288 289 289 291 293 295 298 302 301 297 299 301 304 303 301 299 305 304 302 308 313 312 314 313 318 321 321 320 321 321 322 323
286 286 286 286 286 287 288 288 288 290 290 289 290 291 290 291 295 293 292 296 299 301 303 307 307 307 305 307 310 309 311 314 315 315 317 317 319 320 320 324 324 324 323
284 284 284 285 285 286 286 286 289 289 289 289 289 290 292 292 291 291 291 291 291 291 299 305 305 307 308 309 311 310 310 311 314 316 318 319 319 321 321 323 324 324 324
283 283 283 284 285 285 286 286 286 289 291 290 289 289 290 290 290 291 291 290 290 290 299 304 307 312 309 310 312 312 309 313 316 317 318 321 322 323 319 321 322 323 323
283 284 284 285 285 285 286 287 288 287 287 289 290 290 290 290 289 290 290 290 295 293 302 301 303 313 309 310 312 314 315 315 319 320 323 323 323 322 321 322 322 322 323
283 283 284 285 286 287 288 288 289 289 289 289 290 291 291 290 289 289 289 293 296 302 302 303 308 311 312 311 313 315 317 317 317 321 322 322 323 323 321 322 322 305 310
283 284 285 286 287 289 292 295 295 292 290 289 289 290 292 291 291 291 292 294 295 298 305 305 309 311 312 313 315 316 320 316 319 320 321 322 323 323 322 322 322 319 320
283 285 285 288 291 292 293 293 296 293 292 290 289 291 288 292 292 292 294 295 296 298 304 308 310 311 314 314 315 317 320 320 321 321 322 322 323 322 322 322 323 323 322
284 286 288 289 290 291 291 293 296 293 292 290 291 291 286 292 294 293 294 297 298 299 303 309 309 307 312 313 315 318 320 320 321 322 322 323 322 322 322 322 323 323 322
285 286 287 288 289 288 290 291 293 295 293 292 292 292 292 293 294 295 296 300 300 300 301 306 304 309 307 308 311 319 319 321 322 324 323 323 322 323 323 322 322 322 322
284 285 285 286 287 287 288 288 290 290 293 294 293 293 293 294 295 295 297 300 303 303 301 302 302 308 309 308 310 316 319 322 324 324 325 323 323 317 323 323 323 323 321
283 283 283 284 285 285 286 286 288 289 290 293 295 294 294 295 296 297 298 300 303 303 303 302 303 306 306 308 310 311 305 292 313 306 325 325 325 324 324 323 323 322 317
282 282 282 283 283 284 284 284 285 287 287 289 292 296 295 296 297 297 298 299 301 304 305 305 304 307 308 309 309 295 289 288 304 292 321 324 323 323 323 323 323 321 317